[[{"header":{"parameterUnit":"m.s-1","parameterCategory":1,"la1":30.6,"la2":28.766,"lo1":-90.7593,"lo2":-88.6598,"dy":0.0162,"dx":0.0183,"nx":116,"ny":114,"refTime":"2023-05-30T12:00:00:Z","depth":0,"parameterNumber":2,"parameterNumberName":"U-component_of_WINDS"},"data":[0.0,0.0,0.0,0.0,0.0,0.0,0.0,0.0,0.0,0.0,0.0,0.0,0.0,0.0,0.0,0.0,0.0,0.0,0.0,0.0,0.0,0.0,0.0,0.0,0.0,0.0,0.0,0.0,0.0,0.0,0.0,0.0,0.0,0.0,0.0,0.0,0.0,0.0,0.0,0.0,0.0,0.0,0.0,0.0,0.0,0.0,0.0,0.0,0.0,0.0,0.0,0.0,0.0,0.0,0.0,0.0,0.0,0.0,0.0,0.0,0.0,0.0,0.0,0.0,0.0,0.0,0.0,0.0,0.0,0.0,0.0,0.0,0.0,0.0,0.0,0.0,0.0,0.0,0.0,0.0,0.0,0.0,0.0,0.0,0.0,0.0,0.0,0.0,0.0,0.0,0.0,0.0,0.0,0.0,0.0,0.0,0.0,0.0,0.0,0.0,0.0,0.0,0.0,0.0,0.0,0.0,0.0,0.0,0.0,0.0,0.0,0.0,0.0,0.0,0.0,0.0,0.0,0.0,0.0,0.0,0.0,0.0,0.0,0.0,0.0,0.0,0.0,0.0,0.0,0.0,0.0,0.0,0.0,0.0,0.0,0.0,0.0,0.0,0.0,0.0,0.0,0.0,0.0,0.0,0.0,0.0,0.0,0.0,0.0,0.0,0.0,0.0,0.0,0.0,0.0,0.0,0.0,0.0,0.0,0.0,0.0,0.0,0.0,0.0,0.0,0.0,0.0,0.0,0.0,0.0,0.0,0.0,0.0,0.0,0.0,0.0,0.0,0.0,0.0,0.0,0.0,0.0,0.0,0.0,0.0,0.0,0.0,0.0,0.0,0.0,0.0,0.0,0.0,0.0,0.0,0.0,0.0,0.0,0.0,0.0,0.0,0.0,0.0,0.0,0.0,0.0,0.0,0.0,0.0,0.0,0.0,0.0,0.0,0.0,0.0,0.0,0.0,0.0,0.0,0.0,0.0,0.0,0.0,0.0,0.0,0.0,0.0,0.0,0.0,0.0,0.0,0.0,0.0,0.0,0.0,0.0,0.0,0.0,0.0,0.0,0.0,0.0,0.0,0.0,0.0,0.0,0.0,0.0,0.0,0.0,0.0,0.0,0.0,0.0,0.0,0.0,0.0,0.0,0.0,0.0,0.0,0.0,0.0,0.0,0.0,0.0,0.0,0.0,0.0,0.0,0.0,0.0,0.0,0.0,0.0,0.0,0.0,0.0,0.0,0.0,0.0,0.0,0.0,0.0,0.0,0.0,0.0,0.0,0.0,0.0,0.0,0.0,0.0,0.0,0.0,0.0,0.0,0.0,0.0,0.0,0.0,0.0,0.0,0.0,0.0,0.0,0.0,0.0,0.0,0.0,0.0,0.0,0.0,0.0,0.0,0.0,0.0,0.0,0.0,0.0,0.0,0.0,0.0,0.0,0.0,0.0,0.0,0.0,0.0,0.0,0.0,0.0,0.0,0.0,0.0,0.0,0.0,0.0,0.0,0.0,0.0,0.0,0.0,0.0,0.0,0.0,0.0,0.0,0.0,0.0,0.0,0.0,0.0,0.0,0.0,0.0,0.0,0.0,0.0,0.0,0.0,0.0,0.0,0.0,0.0,0.0,0.0,0.0,0.0,0.0,0.0,0.0,0.0,0.0,0.0,0.0,0.0,0.0,0.0,0.0,0.0,0.0,0.0,0.0,0.0,0.0,0.0,0.0,0.0,0.0,0.0,0.0,0.0,0.0,0.0,0.0,0.0,0.0,0.0,0.0,0.0,0.0,0.0,0.0,0.0,0.0,0.0,0.0,0.0,0.0,0.0,0.0,0.0,0.0,0.0,0.0,0.0,0.0,0.0,0.0,0.0,0.0,0.0,0.0,0.0,0.0,0.0,0.0,0.0,0.0,0.0,0.0,0.0,0.0,0.0,0.0,0.0,0.0,0.0,0.0,0.0,0.0,0.0,0.0,0.0,0.0,0.0,0.0,0.0,0.0,0.0,0.0,0.0,0.0,0.0,0.0,0.0,0.0,0.0,0.0,0.0,0.0,0.0,0.0,0.0,0.0,0.0,0.0,0.0,0.0,0.0,0.0,0.0,0.0,0.0,0.0,0.0,0.0,0.0,0.0,0.0,0.0,0.0,0.0,0.0,0.0,0.0,0.0,0.0,0.0,0.0,0.0,0.0,0.0,0.0,0.0,0.0,0.0,0.0,0.0,0.0,0.0,0.0,0.0,0.0,0.0,0.0,0.0,0.0,0.0,0.0,0.0,0.0,0.0,0.0,0.0,0.0,0.0,0.0,0.0,0.0,0.0,0.0,0.0,0.0,0.0,0.0,0.0,0.0,0.0,0.0,0.0,0.0,0.0,0.0,0.0,0.0,0.0,0.0,0.0,0.0,0.0,0.0,0.0,0.0,0.0,0.0,0.0,0.0,0.0,0.0,0.0,0.0,0.0,0.0,0.0,0.0,0.0,0.0,0.0,0.0,0.0,0.0,0.0,0.0,0.0,0.0,0.0,0.0,0.0,0.0,0.0,0.0,0.0,0.0,0.0,0.0,0.0,0.0,0.0,0.0,0.0,0.0,0.0,0.0,0.0,0.0,0.0,0.0,0.0,0.0,0.0,0.0,0.0,0.0,0.0,0.0,0.0,0.0,0.0,0.0,0.0,0.0,0.0,0.0,0.0,0.0,0.0,0.0,0.0,0.0,0.0,0.0,0.0,0.0,0.0,0.0,0.0,0.0,0.0,0.0,0.0,0.0,0.0,0.0,0.0,0.0,0.0,0.0,0.0,0.0,0.0,0.0,0.0,0.0,0.0,0.0,0.0,0.0,0.0,0.0,0.0,0.0,0.0,0.0,0.0,0.0,0.0,0.0,0.0,0.0,0.0,0.0,0.0,0.0,0.0,0.0,0.0,0.0,0.0,0.0,0.0,0.0,0.0,0.0,0.0,0.0,0.0,0.0,0.0,0.0,0.0,0.0,0.0,0.0,0.0,0.0,0.0,0.0,0.0,0.0,0.0,0.0,0.0,0.0,0.0,0.0,0.0,0.0,0.0,0.0,0.0,0.0,0.0,0.0,0.0,0.0,0.0,0.0,0.0,0.0,0.0,0.0,0.0,0.0,0.0,0.0,0.0,0.0,0.0,0.0,0.0,0.0,0.0,0.0,0.0,0.0,0.0,0.0,0.0,0.0,0.0,0.0,0.0,0.0,0.0,0.0,0.0,0.0,0.0,0.0,0.0,0.0,0.0,0.0,0.0,0.0,0.0,0.0,0.0,0.0,0.0,0.0,0.0,0.0,0.0,0.0,0.0,0.0,0.0,0.0,0.0,0.0,0.0,0.0,0.0,0.0,0.0,0.0,0.0,0.0,0.0,0.0,0.0,0.0,0.0,0.0,0.0,0.0,0.0,0.0,0.0,0.0,0.0,0.0,0.0,0.0,0.0,0.0,0.0,0.0,0.0,0.0,0.0,0.0,0.0,0.0,0.0,0.0,0.0,0.0,0.0,0.0,0.0,0.0,0.0,0.0,0.0,0.0,0.0,0.0,0.0,0.0,0.0,0.0,0.0,0.0,0.0,0.0,0.0,0.0,0.0,0.0,0.0,0.0,0.0,0.0,0.0,0.0,0.0,0.0,0.0,0.0,0.0,0.0,0.0,0.0,0.0,0.0,0.0,0.0,0.0,0.0,0.0,0.0,0.0,0.0,0.0,0.0,0.0,0.0,0.0,0.0,0.0,0.0,0.0,0.0,0.0,0.0,0.0,0.0,0.0,0.0,0.0,0.0,0.0,0.0,0.0,0.0,0.0,0.0,0.0,0.0,0.0,0.0,0.0,0.0,0.0,0.0,0.0,0.0,0.0,0.0,0.0,0.0,0.0,0.0,0.0,0.0,0.0,0.0,0.0,0.0,0.0,0.0,0.0,0.0,0.0,0.0,0.0,0.0,0.0,0.0,0.0,0.0,0.0,0.0,0.0,0.0,0.0,0.0,0.0,0.0,0.0,0.0,0.0,0.0,0.0,0.0,0.0,0.0,0.0,0.0,0.0,0.0,0.0,0.0,0.0,0.0,0.0,0.0,0.0,0.0,0.0,0.0,0.0,0.0,0.0,0.0,0.0,0.0,0.0,0.0,0.0,0.0,0.0,0.0,0.0,0.0,0.0,0.0,0.0,0.0,0.0,0.0,0.0,0.0,0.0,0.0,0.0,0.0,0.0,0.0,0.0,0.0,0.0,0.0,0.0,0.0,0.0,0.0,0.0,0.0,0.0,0.0,0.0,0.0,0.0,0.0,0.0,0.0,0.0,0.0,0.0,0.0,0.0,0.0,0.0,0.0,0.0,0.0,0.0,0.0,0.0,0.0,0.0,0.0,0.0,0.0,0.0,0.0,0.0,0.0,0.0,0.0,0.0,0.0,0.0,0.0,0.0,0.0,0.0,0.0,0.0,0.0,0.0,0.0,0.0,0.0,0.0,0.0,0.0,0.0,0.0,0.0,0.0,0.0,0.0,0.0,0.0,0.0,0.0,0.0,0.0,0.0,0.0,0.0,0.0,0.0,0.0,0.0,0.0,0.0,0.0,0.0,0.0,0.0,0.0,0.0,0.0,0.0,0.0,0.0,0.0,0.0,0.0,0.0,0.0,0.0,0.0,0.0,0.0,0.0,0.0,0.0,0.0,0.0,0.0,0.0,0.0,0.0,0.0,0.0,0.0,0.0,0.0,0.0,0.0,0.0,0.0,0.0,0.0,0.0,0.0,0.0,0.0,0.0,0.0,0.0,0.0,0.0,0.0,0.0,0.0,0.0,0.0,0.0,0.0,0.0,0.0,0.0,0.0,0.0,0.0,0.0,0.0,0.0,0.0,0.0,0.0,0.0,0.0,0.0,0.0,0.0,0.0,0.0,0.0,0.0,0.0,0.0,0.0,0.0,0.0,0.0,0.0,0.0,0.0,0.0,0.0,0.0,0.0,0.0,0.0,0.0,0.0,0.0,0.0,0.0,0.0,0.0,0.0,0.0,0.0,0.0,0.0,0.0,0.0,0.0,0.0,0.0,0.0,0.0,0.0,0.0,0.0,0.0,0.0,0.0,0.0,0.0,0.0,0.0,0.0,0.0,0.0,0.0,0.0,0.0,0.0,0.0,0.0,0.0,0.0,0.0,0.0,0.0,0.0,0.0,0.0,0.0,0.0,0.0,0.0,0.0,0.0,0.0,0.0,0.0,0.0,0.0,0.0,0.0,0.0,0.0,0.0,0.0,0.0,0.0,0.0,0.0,0.0,0.0,0.0,0.0,0.0,0.0,0.0,0.0,0.0,0.0,0.0,0.0,0.0,0.0,0.0,0.0,0.0,0.0,0.0,0.0,0.0,0.0,0.0,0.0,0.0,0.0,0.0,0.0,0.0,0.0,0.0,0.0,0.0,0.0,0.0,0.0,0.0,0.0,0.0,0.0,0.0,0.0,0.0,0.0,0.0,0.0,0.0,0.0,0.0,0.0,0.0,0.0,0.0,0.0,0.0,0.0,0.0,0.0,0.0,0.0,0.0,0.0,0.0,0.0,0.0,0.0,0.0,0.0,0.0,0.0,0.0,0.0,0.0,0.0,0.0,0.0,0.0,0.0,0.0,0.0,0.0,0.0,0.0,0.0,0.0,0.0,0.0,0.0,0.0,0.0,0.0,0.0,0.0,0.0,0.0,0.0,0.0,0.0,0.0,0.0,0.0,0.0,0.0,0.0,0.0,0.0,0.0,0.0,0.0,0.0,0.0,0.0,0.0,0.0,0.0,0.0,0.0,0.0,0.0,0.0,0.0,0.0,0.0,0.0,0.0,0.0,0.0,0.0,0.0,0.0,0.0,0.0,0.0,0.0,0.0,0.0,0.0,0.0,0.0,0.0,0.0,0.0,0.0,0.0,0.0,0.0,0.0,0.0,0.0,0.0,0.0,0.0,0.0,0.0,0.0,0.0,0.0,0.0,0.0,0.0,0.0,0.0,0.0,0.0,0.0,0.0,0.0,0.0,0.0,0.0,0.0,0.0,0.0,0.0,0.0,0.0,0.0,0.0,0.0,0.0,0.0,0.0,0.0,0.0,0.0,0.0,0.0,0.0,0.0,-0.2839,-0.1542,0.0,0.0,0.0,0.0,0.0,0.0,0.0,0.0,0.0,0.0,0.0,0.0,0.0,0.0,0.0,0.0,0.0,0.0,0.0,0.0,0.0,0.0,0.0,0.0,0.0,0.0,0.0,0.0,0.0,0.0,0.0,0.0,0.0,0.0,0.0,0.0,0.0,-0.38,-0.4362,-0.5262,-0.6381,-0.4968,-0.3812,-0.2835,0.0,0.0,0.0,0.0,0.0,0.0,0.0,0.0,0.0,0.0,0.0,0.0,0.0,0.0,0.0,0.0,0.0,0.0,0.0,0.0,0.0,0.0,0.0,0.0,0.0,0.0,0.0,0.0,0.0,0.0,0.0,0.0,0.0,0.0,0.0,0.0,0.0,0.0,0.0,0.0,0.0,0.0,0.0,0.0,0.0,0.0,0.0,0.0,0.0,0.0,0.0,0.0,0.0,0.0,0.0,0.0,0.0,0.0,0.0,0.0,0.0,0.0,0.0,0.0,0.0,0.0,0.0,0.0,0.0,0.0,-0.3997,-0.3268,0.0,0.0,0.0,0.0,0.0,0.0,0.0,0.0,0.0,0.0,0.0,0.0,0.0,0.0,0.0,0.0,0.0,0.0,0.0,0.0,0.0,0.0,0.0,0.0998,0.0673,-0.0112,-0.0202,-0.0404,0.0,0.0,0.0,0.0,0.0,0.0,-0.4142,-0.3946,-0.4113,-0.469,-0.6103,-0.7263,-0.8183,-0.8183,-0.751,-0.6228,-0.4761,0.0,0.0,0.0,0.0,0.0,0.0,0.0,0.0,0.0,0.0,0.0,0.0,0.0,0.0,0.0,0.0,0.0,0.0,0.0,0.0,0.0,0.0,0.0,0.0,0.0,0.0,0.0,0.0,0.0,0.0,0.0,0.0,0.0,0.0,0.0,0.0,0.0,0.0,0.0,0.0,0.0,0.0,0.0,0.0,0.0,0.0,0.0,0.0,0.0,0.0,0.0,0.0,0.0,0.0,0.0,0.0,0.0,0.0,0.0,0.0,0.0,0.0,0.0,-0.4726,-0.4859,-0.4981,-0.4841,-0.5338,-0.6232,-0.5102,-0.5049,-0.5626,-0.3768,0.0,0.0,0.0,0.0,0.0,0.0,0.0,0.0,0.0,0.0,0.0,0.0,0.0,0.0,0.0,0.0,0.0,0.0,0.0,0.0,0.1116,0.0739,0.0112,-0.0875,-0.0965,-0.1255,-0.1947,0.0,0.0,0.0,0.0,0.0,-0.5171,-0.5171,-0.5763,-0.704,-0.924,-1.0388,-1.0557,-1.0557,-1.0453,-1.0131,-0.7648,-0.6505,-0.6412,0.0,0.0,0.0,0.0,0.0,0.0,0.0,0.0,0.0,0.0,0.0,0.0,0.0,0.0,0.0,0.0,0.0,0.0,0.0,0.0,0.0,0.0,0.0,0.0,0.0,0.0,0.0,0.0,0.0,0.0,0.0,0.0,0.0,0.0,0.0,0.0,0.0,0.0,0.0,0.0,0.0,-0.6025,-0.6064,0.0,0.0,0.0,0.0,0.0,0.0,0.0,0.0,0.0,0.0,0.0,0.0,0.0,-0.5963,-0.4948,-0.5868,-0.6354,-0.6367,-0.723,-0.7681,-0.7691,-0.7604,-0.7655,-0.779,-0.7499,0.0,-0.6018,-0.5607,0.0,0.0,0.0,0.0,0.0,0.0,0.0,0.0,0.0,0.0,0.0,0.0,0.0,0.0,0.0,0.0,0.0,0.0,0.0,0.0,0.0,0.0657,-0.0023,-0.0913,-0.1223,-0.1732,-0.26,-0.2893,0.0,0.0,-0.4496,-0.503,-0.5569,-0.6345,-0.7647,-0.9454,-1.0499,-1.135,-1.1997,-1.1997,-1.1997,-1.1963,-1.0782,-0.9437,-0.8012,-0.7382,0.0,0.0,0.0,0.0,0.0,0.0,0.0,0.0,0.0,0.0,0.0,0.0,0.0,0.0,0.0,0.0,0.0,0.0,0.0,0.0,0.0,0.0,0.0,0.0,0.0,0.0,0.0,0.0,0.0,0.0,0.0,0.0,0.0,0.0,0.0,0.0,0.0,0.0,0.0,-0.5663,-0.6609,-0.5963,-0.6563,-0.6542,0.0,0.0,0.0,0.0,0.0,0.0,0.0,0.0,0.0,-0.9631,-0.8861,-0.8266,-0.7983,-0.7671,-0.7571,-0.7668,-0.8092,-0.8307,-0.8302,-0.8209,-0.8148,-0.8077,-0.7957,-0.7598,-0.7065,-0.6397,-0.5598,-0.4687,0.0,0.0,0.0,0.0,-0.3422,-0.3452,0.0,0.0,0.0,0.0,0.0,0.0,0.0,0.0,0.0,0.0,0.0,0.0,0.0949,0.0299,-0.0536,-0.1583,-0.2102,-0.2763,-0.3605,-0.3993,-0.4253,-0.4393,-0.5191,-0.5636,-0.5636,-0.729,-0.9092,-1.0996,-1.1316,-1.1905,-1.2807,-1.2807,-1.2807,-1.2807,-1.2807,-1.1716,-0.9862,-0.9364,-0.8536,-0.7494,0.0,0.0,0.0,0.0,0.0,0.0,0.0,0.0,0.0,0.0,0.0,0.0,0.0,0.0,0.0,0.0,0.0,0.0,0.0,0.0,0.0,0.0,0.0,0.0,0.0,0.0,0.0,0.0,0.0,0.0,0.0,0.0,0.0,0.0,0.0,0.0,0.0,-0.6669,-0.7666,-0.6319,-0.8,-0.846,0.0,0.0,0.0,0.0,0.0,0.0,-1.0962,-1.1248,-1.1666,-1.2162,-1.0959,-1.0325,-1.0335,-0.898,-0.834,-0.8459,-0.8432,-0.8432,-0.8454,-0.8269,-0.8187,-0.8126,-0.8001,-0.793,-0.7825,-0.705,-0.6552,-0.6251,-0.5442,-0.4981,-0.4765,-0.4991,-0.506,-0.4993,0.0,0.0,0.0,0.0,0.0,0.0,0.0,0.0,0.0,0.0,0.0,0.0647,0.037,-0.0588,-0.1902,-0.3603,-0.4226,-0.4806,-0.5422,-0.5486,-0.5254,-0.471,-0.5151,-0.5413,-0.5413,-0.7849,-0.9754,-1.0996,-1.2149,-1.2748,-1.2807,-1.2807,-1.2807,-1.2807,-1.2807,-1.2724,-1.2536,-1.1374,-1.0834,-1.0527,-0.7853,0.0,0.0,0.0,0.0,0.0,0.0,0.0,0.0,0.0,0.0,0.0,0.0,0.0,0.0,0.0,0.0,0.0,0.0,0.0,0.0,0.0,0.0,0.0,0.0,0.0,0.0,0.0,0.0,0.0,0.0,0.0,0.0,0.0,0.0,0.0,0.0,0.0,0.0,-0.8455,-1.1069,0.0,0.0,0.0,0.0,-1.0404,-1.0584,-1.1397,-1.3074,-1.3444,-1.3769,-1.4067,-1.2878,-1.174,-1.0703,-0.9293,-0.8573,-0.8579,-0.847,-0.8475,-0.8568,-0.8307,-0.8199,-0.8188,-0.8126,-0.8006,-0.7903,-0.7825,-0.7271,-0.6398,-0.6329,-0.57,-0.4893,-0.5802,-0.6036,-0.6037,0.0,0.0,0.0,0.0,0.0,0.0,0.0,0.0,0.1763,0.1624,0.1071,0.0401,-0.0376,-0.1579,-0.2999,-0.4663,-0.5402,-0.6009,-0.6542,-0.6156,-0.5802,-0.5549,-0.5567,-0.6222,-0.7558,-0.9237,-1.0606,-1.1642,-1.2898,-1.3498,-1.3522,-1.4028,-1.4004,-1.3498,-1.3498,-1.3244,-1.2759,-1.2335,-1.1706,-1.0915,-0.9909,-0.8683,0.0,0.0,0.0,0.0,0.0,0.0,0.0,0.0,0.0,0.0,0.0,0.0,0.0,0.0,0.0,0.0,0.0,0.0,0.0,0.0,0.0,0.0,0.0,0.0,0.0,0.0,0.0,0.0,0.0,0.0,0.0,0.0,0.0,0.0,0.0,0.0,0.0,-0.891,-1.0934,0.0,-1.0957,-1.1667,-1.2232,-1.2332,-1.3438,-1.4451,-1.5206,-1.5515,-1.5783,-1.5999,-1.3837,-1.2473,-1.2076,-0.9742,-0.8552,-0.8481,-0.8513,-0.8426,-0.8279,-0.8318,-0.8225,-0.8002,-0.8072,-0.8017,-0.7903,-0.7903,-0.7693,-0.7352,-0.7352,-0.7145,-0.68,-0.6881,-0.6892,-0.6847,0.0,0.0,0.0,0.0,0.0,0.0,0.0,0.0,0.1596,0.1272,0.0781,-0.0024,-0.1295,-0.2536,-0.3992,-0.5787,-0.655,-0.7002,-0.7147,-0.6744,-0.6246,-0.5691,-0.5823,-0.6914,-0.9099,-0.9839,-1.0692,-1.1736,-1.2918,-1.3546,-1.3631,-1.4268,-1.4316,-1.3884,-1.3643,-1.3268,-1.2807,-1.2807,-1.2335,-1.158,-1.1168,-1.0144,-0.8805,0.0,0.0,0.0,0.0,0.0,0.0,0.0,0.0,0.0,0.0,0.0,0.0,0.0,0.0,0.0,0.0,0.0,0.0,0.0,0.0,0.0,0.0,0.0,0.0,0.0,0.0,0.0,0.0,0.0,0.0,0.0,0.0,0.0,0.0,-0.8125,-0.9335,-0.8444,-1.0542,-1.1859,-1.1319,-1.2683,-1.3833,-1.439,-1.5616,-1.6408,-1.6538,-1.6807,-1.6969,-1.7001,-1.4273,-1.28,-1.28,-1.0001,-0.8552,-0.8475,-0.8513,-0.8426,-0.8268,-0.8361,-0.8263,-0.7997,-0.8079,-0.8055,-0.7903,-0.778,-0.7719,-0.7719,-0.7719,-0.7719,-0.7678,-0.7291,-0.7105,-0.702,0.0,0.0,0.0,0.0,0.0,0.0,0.1524,0.1506,0.1321,0.0765,0.0288,-0.0639,-0.2302,-0.3409,-0.4901,-0.6999,-0.7708,-0.7842,-0.7358,-0.7315,-0.6652,-0.5116,-0.5912,-0.7439,-0.9731,-0.9548,-1.0002,-1.1174,-1.219,-1.2821,-1.3076,-1.3364,-1.363,-1.3835,-1.3098,-1.2759,-1.2759,-1.2759,-1.2759,-1.2665,-1.1523,-1.1029,-1.0782,0.0,0.0,0.0,0.0,0.0,0.0,0.0,0.0,0.0,0.0,0.0,0.0,0.0,0.0,0.0,0.0,0.0,0.0,0.0,0.0,0.0,0.0,0.0,0.0,0.0,0.0,0.0,0.0,0.0,0.0,0.0,0.0,0.0,-0.6589,-0.839,-0.9094,-0.7321,-1.0215,-1.2155,-1.1689,-1.3158,-1.4874,-1.6519,-1.6829,-1.6958,-1.6958,-1.7194,-1.7205,-1.6893,-1.4184,-1.2734,-1.2734,-0.9968,-0.8584,-0.8579,-0.8475,-0.8475,-0.8573,-0.847,-0.8318,-0.8199,-0.8199,-0.8063,-0.7872,-0.751,-0.7388,-0.7388,-0.7388,-0.7388,-0.7342,-0.6925,-0.6699,-0.6541,0.0,0.0,0.0,0.0,0.0,0.0,0.1606,0.1532,0.1377,0.0846,0.0325,-0.061,-0.2252,-0.3928,-0.5475,-0.6786,-0.8106,-0.862,-0.8048,-0.7849,-0.7333,-0.6409,-0.7446,-0.8354,-0.8996,-0.9754,-1.0287,-1.0609,-1.1814,-1.2436,-1.2533,-1.3186,-1.3234,-1.2727,-1.2543,-1.2141,-1.1639,-1.1639,-1.1858,-1.2214,-1.2273,-1.1908,-1.1234,0.0,0.0,0.0,0.0,0.0,0.0,0.0,0.0,0.0,0.0,0.0,0.0,0.0,0.0,0.0,0.0,0.0,0.0,0.0,0.0,0.0,0.0,0.0,0.0,0.0,0.0,0.0,0.0,0.0,0.0,0.0,-0.6613,-0.7525,-0.7464,-0.8203,-0.9042,-0.9748,-1.0629,-1.1563,-1.2505,-1.3046,-1.398,-1.5629,-1.5797,-1.5826,-1.5826,-1.5918,-1.538,-1.4135,-1.2368,-1.138,-1.1292,-0.951,-0.8546,-0.8465,-0.8519,-0.847,-0.8302,-0.8475,-0.8383,-0.8106,-0.7906,-0.7718,-0.7505,-0.7174,-0.7051,-0.7051,-0.7051,-0.7051,-0.6971,-0.649,-0.6049,-0.5729,0.0,0.0,0.0,0.0,0.0,0.0,0.212,0.1974,0.1624,0.072,0.0255,-0.0698,-0.2577,-0.3776,-0.4924,-0.6037,-0.7056,-0.7511,-0.7155,-0.7249,-0.7419,-0.7644,-0.8326,-0.8817,-0.9081,-0.9723,-1.0068,-1.0068,-1.1253,-1.1901,-1.2023,-1.2606,-1.2678,-1.229,-1.1985,-1.1595,-1.1198,-1.1198,-1.1394,-1.1697,-1.2106,-1.2213,-1.21,-1.1939,-1.1463,-1.087,-1.0818,-1.0547,-1.0157,-0.9828,0.0,0.0,0.0,0.0,0.0,0.0,0.0,0.0,0.0,0.0,0.0,0.0,0.0,0.0,0.0,0.0,0.0,0.0,0.0,0.0,0.0,0.0,0.0,0.0,-0.7353,-0.817,-0.8318,-0.8484,-0.8895,-0.982,-0.9914,-1.0497,-1.1993,-1.2161,-1.2848,-1.4352,-1.4576,-1.4585,-1.4471,-1.4497,-1.4069,-1.3042,-1.1564,-1.0792,-1.0704,-0.9316,-0.8557,-0.8492,-0.8557,-0.8513,-0.8356,-0.8392,-0.8251,-0.7986,-0.7664,-0.7404,-0.7207,-0.6872,-0.672,0.0,0.0,0.0,0.0,0.0,-0.4897,-0.4564,0.0,0.0,0.0,0.0,0.0,0.0,0.2919,0.2632,0.1957,0.0581,0.0232,-0.0728,-0.2825,-0.3166,-0.3708,-0.4864,-0.5241,-0.5402,-0.5377,-0.6059,-0.706,-0.8391,-0.8648,-0.9008,-0.955,-0.9575,-0.9599,-0.9599,-1.0542,-1.1155,-1.1375,-1.1619,-1.1804,-1.1974,-1.1311,-1.1027,-1.1027,-1.1027,-1.1051,-1.1119,-1.1353,-1.2033,-1.2865,-1.2314,-1.2088,-1.1977,-1.1316,-1.0918,-1.0732,-1.075,0.0,0.0,0.0,0.0,0.0,0.0,0.0,0.0,0.0,0.0,0.0,0.0,0.0,0.0,0.0,0.0,0.0,0.0,0.0,0.0,0.0,0.0,0.0,0.0,-0.7982,-0.8644,-0.8984,-0.89,-0.8767,-0.8666,-0.8731,-0.9302,-1.0574,-1.0836,-1.1504,-1.2919,-1.3215,-1.3231,-1.303,-1.3083,0.0,0.0,0.0,-1.0505,-1.0472,-0.9217,-0.859,-0.8556,-0.8556,-0.8523,-0.8456,-0.8156,-0.7962,-0.7822,-0.743,-0.7149,-0.6925,-0.658,-0.6394,-0.6329,-0.6337,-0.6306,-0.6039,-0.4477,-0.378,-0.3441,0.0,0.0,0.0,0.0,0.0,0.0,0.3557,0.3035,0.2324,0.1183,0.0812,0.0079,-0.1429,-0.2416,-0.3132,-0.3559,-0.4424,-0.4833,-0.4639,-0.5693,-0.6493,-0.6821,-0.8287,-0.9148,-0.9286,-0.9484,-0.9599,-0.9599,-0.9797,-0.9945,-0.9994,-1.0043,-1.0093,-1.0117,-0.9969,-0.992,-0.992,-0.992,-1.0167,-1.0587,-1.0943,-1.1381,-1.1826,-1.2035,-1.1976,-1.1819,-1.2028,-1.2069,-1.1935,-1.1306,-1.0594,-0.9753,-0.8611,-0.7606,0.0,0.0,0.0,0.0,0.0,0.0,0.0,0.0,0.0,0.0,0.0,0.0,0.0,0.0,0.0,0.0,0.0,0.0,0.0,-0.649,-0.7465,-0.8306,-0.8561,-0.875,-0.8909,-0.8981,-0.8924,-0.9023,-0.9403,-0.9557,-1.0263,-1.1782,-1.2036,-1.2057,-1.1931,-1.1924,-1.1235,-0.9745,-0.9406,-0.916,-0.9023,-0.8751,-0.8456,-0.8189,-0.8189,0.0,-0.7727,-0.766,-0.7536,-0.7397,-0.7107,-0.6831,-0.658,-0.624,-0.6015,-0.5935,-0.598,-0.5875,-0.5693,-0.5364,-0.4535,-0.358,0.0,0.0,0.0,0.0,0.0,0.0,0.4885,0.4358,0.3625,0.2529,0.2061,0.1334,0.013,-0.0544,-0.1024,-0.137,-0.2533,-0.3409,-0.3778,-0.4781,-0.555,-0.5977,-0.6899,-0.7403,-0.7403,-0.7521,-0.7918,-0.8595,-0.8595,-0.8949,-0.9599,-0.9599,-0.9599,-0.9599,-0.9599,-0.9599,-0.9599,-0.9599,-0.9822,-1.0179,-1.0484,-1.0733,-1.1028,-1.1923,-1.2222,-1.2223,-1.2457,-1.2302,-1.194,-1.1507,-1.0661,-0.9662,-0.8841,-0.7915,-0.6922,0.0,0.0,0.0,0.0,0.0,0.0,0.0,0.0,0.0,0.0,0.0,0.0,0.0,0.0,-0.505,-0.5548,0.0,-0.657,-0.706,-0.7655,-0.8124,-0.8353,-0.8528,-0.8758,-0.917,-0.9184,-0.9242,-0.9307,-0.9362,-0.9649,-1.022,-1.0256,-1.0118,-0.9873,-0.981,-0.9404,-0.8479,-0.8367,-0.825,-0.8137,-0.8081,-0.7956,-0.7794,-0.7794,-0.7694,-0.7493,-0.7321,-0.7227,-0.7143,-0.6817,-0.6577,-0.6267,-0.5327,-0.4536,-0.3894,-0.3924,-0.424,-0.4582,-0.3943,-0.2895,-0.1707,0.0,0.0,0.0,0.0,0.0,0.0,0.0,0.5712,0.501,0.4049,0.344,0.2717,0.171,0.1483,0.1231,0.0762,-0.0566,-0.171,-0.2532,-0.3531,-0.44,-0.5097,-0.5372,-0.5522,-0.5522,-0.5572,-0.6121,-0.7217,-0.7217,-0.777,-0.8825,-0.8825,-0.8825,-0.8825,-0.8962,-0.9026,-0.9026,-0.9139,-0.9274,-0.9463,-0.9641,-0.9795,-1.0023,-1.1147,-1.1787,-1.2069,-1.1892,-1.1457,-1.0956,-1.0941,-1.0148,-0.9088,-0.8921,-0.8129,-0.7095,-0.6037,-0.5512,0.0,0.0,0.0,0.0,0.0,0.0,0.0,0.0,-0.4191,-0.4328,-0.5218,-0.5394,-0.5629,-0.6461,-0.6598,-0.6877,-0.7678,-0.7872,-0.7956,-0.8192,-0.8267,-0.8513,-0.9124,-0.9266,-0.9292,-0.9266,-0.9287,-0.9134,-0.8761,-0.8654,-0.8459,-0.8119,-0.8033,-0.8012,-0.7993,-0.7807,-0.7707,-0.7707,-0.7588,-0.7469,-0.7421,-0.7402,-0.7359,-0.7292,-0.6715,-0.6481,-0.6443,-0.5878,-0.5559,-0.5298,-0.4049,-0.2917,-0.1959,-0.1963,-0.2365,-0.2875,-0.2093,-0.1039,0.014,0.0,0.0,0.0,0.0,0.0,0.0,0.0,0.0,0.57,0.5107,0.4553,0.3904,0.3076,0.2764,0.2392,0.1868,0.0598,-0.025,-0.0343,-0.1992,-0.312,-0.345,-0.4601,-0.5252,-0.5252,-0.5477,-0.5672,-0.5822,-0.5822,-0.5897,-0.6046,-0.6046,-0.6046,-0.6077,-0.6661,-0.6941,-0.6978,-0.7509,-0.7753,-0.7777,-0.8001,-0.807,-0.8135,-0.8534,-0.9152,-0.9765,-0.8967,-0.873,-0.8767,-0.8881,-0.8283,-0.748,-0.7584,-0.6957,-0.5887,-0.4483,-0.4084,-0.3766,-0.2274,-0.2488,-0.3271,-0.3906,-0.4108,-0.4549,0.0,-0.59,-0.5712,-0.6587,-0.6784,-0.6797,-0.6905,-0.6982,-0.7084,-0.7199,-0.734,-0.7604,-0.7973,-0.813,-0.8372,-0.8789,-0.8664,-0.8519,-0.846,-0.8537,-0.848,-0.822,-0.8277,-0.8282,-0.8119,-0.8104,-0.8057,-0.7998,-0.7879,-0.7782,-0.7782,-0.7588,-0.7372,-0.7149,-0.7094,-0.6886,-0.6556,-0.5208,-0.4602,-0.4529,-0.3173,-0.2583,-0.2537,-0.2306,-0.2045,-0.1808,-0.1835,-0.122,-0.0439,-0.1497,-0.1078,0.0028,0.0,0.0,0.0,0.0,0.0,0.0,0.0,0.0,0.0,0.6673,0.6128,0.5546,0.4909,0.4462,0.4037,0.3617,0.2746,0.2133,0.1992,0.1022,0.0415,0.0285,-0.1078,-0.1837,-0.1837,-0.2782,-0.3648,-0.4447,-0.4447,-0.4851,-0.5667,-0.5667,-0.5649,-0.5679,-0.5959,-0.6083,-0.6088,-0.6343,-0.6514,-0.6638,-0.6717,-0.7071,-0.746,-0.7073,-0.7417,-0.8073,-0.7864,-0.7564,0.0,-0.726,-0.6649,-0.6004,-0.6403,-0.6029,-0.5203,-0.4117,-0.3915,-0.3982,-0.3831,-0.3744,-0.3921,-0.4772,-0.5037,-0.5281,-0.5999,-0.5959,-0.6003,-0.6865,-0.7068,-0.7084,-0.7174,-0.7178,-0.7207,-0.7207,-0.7306,-0.7409,-0.7612,-0.7693,-0.7795,-0.795,-0.7928,-0.8051,-0.8545,-0.845,-0.8285,-0.8002,-0.7925,-0.7756,-0.7462,-0.7462,-0.7444,-0.7401,-0.734,-0.7231,-0.7178,-0.7043,-0.6453,-0.5454,-0.5457,-0.4903,-0.3928,-0.3289,-0.3043,-0.3051,-0.2371,-0.1666,-0.0921,-0.087,-0.0338,0.0397,0.0363,0.069,0.0981,-0.0319,0.0,0.1052,0.0,0.0,0.0,0.0,0.0,0.0,0.0,0.0,0.0,0.0,0.7683,0.7141,0.6617,0.601,0.5533,0.5292,0.4552,0.3956,0.3644,0.3221,0.2904,0.2812,0.1783,0.1197,0.1197,0.0155,-0.0944,-0.2102,-0.2087,-0.269,-0.3872,-0.3865,-0.3992,-0.4249,-0.4409,-0.4621,-0.4882,-0.5044,-0.5213,-0.5378,-0.5378,-0.5745,-0.6248,-0.5639,-0.5634,-0.6004,-0.6527,-0.6397,-0.589,-0.5677,-0.5158,-0.4712,-0.5175,-0.5031,-0.4531,-0.3753,-0.3423,-0.3512,-0.4327,-0.4359,-0.44,-0.5382,-0.5841,-0.6096,-0.62,-0.6241,-0.6423,-0.7078,-0.7198,-0.7264,-0.7396,-0.7392,-0.7384,-0.7408,-0.7392,-0.7213,-0.679,-0.6761,-0.6596,-0.6097,-0.6094,-0.634,-0.7006,-0.7663,-0.795,-0.7706,-0.7543,-0.7132,-0.644,-0.6381,-0.6152,-0.5713,-0.5639,-0.555,-0.5489,-0.5393,-0.4803,-0.3736,-0.3688,-0.3133,-0.208,-0.1705,-0.1328,-0.1019,-0.0968,-0.035,0.0598,0.0558,0.1172,0.2128,0.1983,0.1974,0.1936,0.1,0.1161,0.182,0.0,0.0,0.0,0.0,0.0,0.0,0.0,0.0,0.0,0.0,0.0,0.0,0.0,0.7229,0.675,0.6744,0.5522,0.4607,0.42,0.3669,0.3205,0.281,0.2759,0.2731,0.2731,0.2678,0.2339,0.1628,0.171,0.1368,0.0699,0.0765,0.0322,-0.0573,-0.1173,-0.1944,-0.2836,-0.341,-0.3706,-0.3763,-0.3763,-0.3795,-0.3827,-0.3857,-0.3527,-0.3191,-0.4364,-0.4768,-0.4675,-0.4064,-0.3778,-0.3655,-0.3804,-0.3896,-0.3788,-0.3045,-0.2133,-0.1563,-0.2445,-0.3237,-0.4122,-0.5376,-0.6321,-0.7023,-0.7207,-0.7309,-0.7395,-0.7454,-0.7474,-0.7542,-0.7671,-0.7578,-0.7546,-0.7675,-0.7574,-0.6919,-0.5289,-0.5114,-0.4541,-0.286,-0.2589,-0.2596,-0.2697,-0.5575,-0.7351,-0.7141,-0.7125,-0.6452,-0.4932,-0.4799,-0.4039,-0.2474,-0.2372,-0.2369,-0.2435,-0.2303,-0.2237,-0.2271,-0.2206,-0.2142,-0.2047,-0.0695,0.0691,0.1975,0.1917,0.2082,0.2394,0.2081,0.216,0.2467,0.213,0.219,0.246,0.2361,0.2147,0.188,0.0,0.0,0.0,0.0,0.0,0.0,0.0,0.0,0.0,0.0,0.0,0.0,0.0,0.0,0.0,0.0,0.8106,0.7452,0.7143,0.6621,0.6248,0.6122,0.4913,0.4266,0.4266,0.331,0.27,0.2474,0.2488,0.2411,0.2208,0.1783,0.1481,0.1233,0.0574,0.0115,-0.0233,-0.1109,-0.1512,-0.1637,-0.2252,-0.2788,-0.3198,-0.283,-0.2784,-0.2898,0.0,-0.2541,-0.2866,-0.3013,-0.2808,-0.2619,-0.3528,-0.3263,-0.254,-0.1965,-0.1935,-0.2283,-0.3158,-0.4214,-0.5309,-0.6354,-0.6909,-0.7256,-0.7395,-0.7411,-0.7126,-0.6109,-0.5768,-0.5318,-0.4244,-0.4028,-0.3969,-0.3986,-0.4087,-0.3969,-0.3427,-0.3332,-0.3088,-0.2449,-0.2434,-0.2445,-0.2387,-0.3336,-0.3951,-0.3989,-0.3884,-0.364,-0.3115,-0.3079,-0.2876,-0.2323,-0.2293,-0.2264,-0.2233,-0.2178,-0.1698,-0.0715,0.0271,0.0878,0.1109,0.1573,0.215,0.2761,0.2734,0.2755,0.2828,0.2721,0.2716,0.2806,0.2716,0.2746,0.2835,0.2821,0.2714,0.2633,0.0,0.0,0.0,0.0,0.0,0.0,0.0,0.0,0.0,0.0,0.0,0.0,0.0,0.0,0.0,0.0,0.0,0.9685,0.947,0.9135,0.8897,0.8847,0.7689,0.6968,0.6786,0.5775,0.4962,0.4437,0.4335,0.4105,0.3817,0.3364,0.3046,0.2846,0.2393,0.1912,0.1374,0.0709,0.0298,0.0061,-0.0567,-0.1076,-0.1387,-0.0959,-0.0941,0.0,-0.0351,-0.0185,-0.0448,-0.1414,-0.1496,-0.1352,-0.2194,-0.176,-0.0974,-0.107,-0.107,-0.1532,-0.3687,-0.409,-0.4274,-0.5863,-0.5917,-0.5584,-0.5736,-0.5706,-0.5382,-0.4374,-0.3971,-0.344,-0.2434,-0.2201,-0.212,-0.19,-0.2036,-0.1943,-0.1344,-0.1196,-0.1002,-0.0563,-0.06,-0.0631,-0.0574,-0.0535,-0.1033,-0.2293,-0.2323,-0.2014,-0.1445,-0.1428,-0.1193,-0.0631,-0.0626,-0.0617,-0.0603,-0.0601,-0.007,0.0982,0.1923,0.2559,0.2894,0.2865,0.2923,0.3095,0.3062,0.311,0.3178,0.3055,0.3086,0.3178,0.3055,0.3086,0.3178,0.3178,0.324,0.329,0.0,0.0,0.0,0.0,0.0,0.0,0.0,0.0,0.0,0.0,0.0,0.0,0.0,0.0,0.0,0.0,0.0,0.0,1.1086,1.1029,1.0933,1.075,1.0716,1.0491,1.0058,0.9771,0.8942,0.7539,0.7163,0.6529,0.5669,0.553,0.5087,0.4331,0.4322,0.3523,0.2201,0.2077,0.1759,0.1319,0.1211,0.125,0.1429,0.1511,0.1864,0.2265,0.1914,0.2155,0.2379,0.0662,0.0103,0.0078,0.0104,0.0481,0.0747,-0.0285,0.0383,0.0523,-0.3661,-0.2753,-0.1289,-0.3955,-0.348,-0.2386,-0.2494,-0.2484,-0.2384,-0.2304,-0.2046,-0.1888,-0.1907,-0.1896,-0.1711,-0.1175,-0.1265,-0.0818,0.0858,0.1079,0.1481,0.2583,0.2653,0.2599,0.2636,0.2568,0.1243,-0.1856,-0.214,-0.1501,0.0039,0.019,0.0903,0.2382,0.2416,0.2399,0.2368,0.2373,0.2468,0.2712,0.2711,0.2894,0.3226,0.3173,0.3132,0.3158,0.3068,0.3244,0.3491,0.318,0.3242,0.3491,0.3178,0.324,0.3517,0.3517,0.3671,0.382,0.0,0.0,0.0,0.0,0.0,0.0,0.0,0.0,0.0,0.0,0.0,0.0,0.0,0.0,0.0,0.0,0.0,0.0,1.2061,1.1581,1.1283,1.1228,1.0878,1.0647,1.0517,1.0102,0.9722,0.9338,0.8643,0.8143,0.7791,0.7073,0.6571,0.6252,0.5775,0.5326,0.4925,0.417,0.3532,0.2994,0.2238,0.1739,0.1532,0.2052,0.2359,0.2563,0.2927,0.313,0.3089,0.184,0.1312,0.1214,0.1416,0.1504,0.1447,0.1174,0.0967,0.0583,-0.06,-0.0971,-0.1224,-0.1989,-0.1833,-0.1515,-0.1611,-0.157,-0.1099,0.0446,0.0934,0.1593,0.3203,0.2996,0.2645,0.2813,0.212,0.1673,0.2116,0.2249,0.2336,0.2583,0.2626,0.2701,0.2966,0.2951,0.2705,0.2186,0.1577,0.1431,0.1836,0.1894,0.2176,0.2827,0.2839,0.2941,0.3199,0.309,0.3063,0.3078,0.3066,0.3264,0.3631,0.3567,0.3649,0.3836,0.3837,0.3833,0.3857,0.3792,0.3792,0.3852,0.3717,0.3735,0.3797,0.3797,0.3828,0.3887,0.0,0.0,0.0,0.0,0.0,0.0,0.0,0.0,0.0,0.0,0.0,0.0,0.0,0.0,0.0,0.0,0.0,0.0,0.0,1.3053,1.2801,1.2671,1.2428,1.2164,1.1922,1.1561,1.1208,1.0889,1.0135,0.9613,0.9294,0.8461,0.7956,0.7676,0.7183,0.6769,0.6394,0.5817,0.5301,0.0,0.0,0.3898,0.3673,0.3926,0.3989,0.3935,0.4162,0.4235,0.4101,0.3395,0.2737,0.2244,0.2705,0.2748,0.2569,0.1982,0.201,0.1837,0.0274,0.0354,0.0693,0.0,0.0374,0.0943,0.1165,0.1237,0.1708,0.3058,0.353,0.4073,0.5317,0.4936,0.4552,0.4895,0.4168,0.3601,0.3635,0.3715,0.3649,0.3283,0.3198,0.3219,0.3377,0.3393,0.3498,0.3729,0.3343,0.3081,0.3062,0.3029,0.3105,0.3257,0.3218,0.3295,0.3439,0.3367,0.3341,0.3463,0.3463,0.3667,0.4003,0.3945,0.3987,0.4093,0.4066,0.4034,0.4001,0.3977,0.398,0.3999,0.3942,0.3889,0.3889,0.3889,0.3889,0.3889,0.0,0.0,0.0,0.0,0.0,0.0,0.0,0.0,0.0,0.0,0.0,0.0,0.0,0.0,0.0,0.0,0.0,0.0,0.0,0.0,1.4606,1.4364,1.4316,1.4088,1.3606,1.3305,1.2834,1.2204,1.1458,1.0826,1.0323,0.9638,0.9089,0.8728,0.8481,0.796,0.7265,0.7203,0.6948,0.6565,0.6574,0.6542,0.6447,0.0,0.5984,0.571,0.5448,0.5254,0.5134,0.495,0.4112,0.3245,0.3782,0.3977,0.376,0.2655,0.3251,0.3589,0.0566,0.1659,0.3366,0.2076,0.2772,0.3902,0.4431,0.4588,0.4785,0.5356,0.5658,0.5831,0.5917,0.5388,0.5149,0.5735,0.5248,0.4817,0.4869,0.4938,0.4738,0.4157,0.3967,0.3882,0.3883,0.3873,0.3892,0.3983,0.3972,0.3922,0.3799,0.3721,0.3676,0.3662,0.3656,0.3609,0.3551,0.3508,0.3597,0.3878,0.3878,0.4011,0.4305,0.4245,0.415,0.4091,0.4039,0.4009,0.3999,0.395,0.3958,0.3999,0.3942,0.3889,0.3889,0.3889,0.3889,0.3889,0.0,0.0,0.0,0.0,0.0,0.0,0.0,0.0,0.0,0.0,1.5576,1.5535,0.0,0.0,0.0,0.0,0.0,0.0,0.0,0.0,0.0,1.4617,1.4425,1.4256,1.416,1.3678,1.3364,1.3244,1.206,1.1319,1.0999,1.0219,0.9705,0.9419,0.933,0.9072,0.8721,0.8603,0.8144,0.7484,0.7487,0.7248,0.6888,0.6835,0.6708,0.0,0.6209,0.5829,0.5408,0.5329,0.4899,0.4388,0.4314,0.4352,0.4361,0.4149,0.4302,0.4403,0.3864,0.4109,0.4436,0.4239,0.4387,0.4712,0.5262,0.5391,0.5669,0.6656,0.6842,0.7015,0.7564,0.6955,0.6277,0.6073,0.5333,0.4683,0.429,0.4215,0.4135,0.4034,0.3956,0.4014,0.4359,0.431,0.4473,0.4922,0.4839,0.4493,0.3753,0.3704,0.3814,0.3989,0.4344,0.4459,0.4381,0.437,0.4348,0.4279,0.4279,0.4289,0.4305,0.4245,0.415,0.4093,0.4082,0.405,0.4001,0.3993,0.3993,0.3999,0.3942,0.3889,0.3889,0.3889,0.3889,0.3889,0.0,0.0,0.0,0.0,0.0,0.0,0.0,1.5626,1.5808,1.6062,1.6134,1.6163,1.6299,1.6311,0.0,0.0,0.0,0.0,0.0,0.0,0.0,1.4895,1.4787,1.4714,1.4714,1.4454,1.433,1.433,0.0,1.3,1.259,1.1913,1.1242,1.0594,1.0399,1.0004,0.9445,0.9261,0.8895,0.8461,0.8275,0.8043,0.7752,0.7588,0.7298,0.0,0.6826,0.6574,0.6298,0.6145,0.571,0.5185,0.4609,0.4461,0.4523,0.4556,0.4608,0.4671,0.4732,0.4736,0.4779,0.4831,0.481,0.502,0.5822,0.6004,0.6324,0.7345,0.7596,0.7691,0.795,0.7495,0.7007,0.6794,0.5995,0.5347,0.5294,0.4956,0.4684,0.4713,0.4622,0.4615,0.4757,0.4724,0.481,0.5064,0.5055,0.4826,0.4437,0.4321,0.4316,0.4461,0.4592,0.4624,0.4561,0.4496,0.4439,0.4352,0.4384,0.4365,0.4308,0.4311,0.4262,0.4139,0.4107,0.4077,0.4045,0.3985,0.3977,0.3999,0.3942,0.3889,0.3889,0.3889,0.3889,0.3889,0.0,0.0,0.0,0.0,0.0,0.0,0.0,1.6017,1.6176,1.6459,1.6715,1.6895,1.6895,1.6789,1.663,0.0,0.0,0.0,0.0,0.0,0.0,0.0,0.0,0.0,1.5113,0.0,0.0,1.5113,1.4771,0.0,0.0,0.0,0.0,0.0,1.1453,1.0897,1.0164,0.9828,0.9549,0.0,0.0,0.8743,0.8546,0.0,0.0,0.0,0.0,0.741,0.7259,0.7022,0.6633,0.6129,0.5327,0.4913,0.4736,0.4787,0.4856,0.4903,0.4846,0.4828,0.4848,0.4934,0.488,0.5083,0.6182,0.6406,0.6669,0.7681,0.8001,0.8066,0.7995,0.7765,0.7612,0.7609,0.6937,0.6427,0.6489,0.5959,0.5534,0.5415,0.5289,0.5185,0.5087,0.5068,0.5066,0.5079,0.5055,0.5044,0.5055,0.4872,0.4798,0.4775,0.4679,0.4605,0.4556,0.4463,0.4406,0.4346,0.4382,0.4365,0.4308,0.4357,0.4319,0.418,0.4134,0.4099,0.4066,0.3974,0.3955,0.398,0.3905,0.3889,0.3889,0.3903,0.39,0.3889,0.0,0.0,0.0,0.0,0.0,0.0,0.0,1.6464,1.6731,1.7063,1.7356,1.7529,1.7529,1.7028,1.6697,0.0,0.0,0.0,0.0,0.0,0.0,0.0,0.0,0.0,0.0,0.0,0.0,1.5113,1.4593,0.0,0.0,0.0,0.0,0.0,0.0,1.1841,1.1496,1.0845,0.0,0.0,0.0,0.0,0.0,0.0,0.0,0.0,0.0,0.8171,0.7907,0.7829,0.7749,0.7621,0.7115,0.6275,0.5496,0.5432,0.5499,0.5507,0.5024,0.4885,0.4931,0.5136,0.4972,0.5095,0.622,0.6402,0.6621,0.7691,0.8001,0.8115,0.815,0.8232,0.8279,0.8208,0.814,0.7763,0.6876,0.6646,0.628,0.5488,0.5324,0.5281,0.527,0.5218,0.521,0.5264,0.5166,0.4996,0.4839,0.4804,0.4773,0.4712,0.4699,0.469,0.4685,0.4624,0.4561,0.4466,0.442,0.4365,0.4308,0.4313,0.4281,0.4182,0.4177,0.4112,0.4009,0.3999,0.3969,0.3895,0.3892,0.3889,0.3895,0.3977,0.3963,0.3895,0.0,0.0,0.0,0.0,0.0,0.0,1.6779,1.6926,1.71,1.7394,1.7541,1.7608,1.7608,1.7397,1.7186,0.0,0.0,0.0,0.0,0.0,0.0,0.0,0.0,0.0,0.0,0.0,1.574,1.5572,1.5217,0.0,0.0,0.0,0.0,0.0,0.0,1.2619,1.1855,1.142,0.0,0.0,0.0,0.0,0.0,0.0,0.0,0.0,0.0,0.0,0.8982,0.9172,0.8909,0.8557,0.8947,0.8441,0.7464,0.6168,0.5883,0.5857,0.5088,0.4975,0.5115,0.5185,0.5267,0.553,0.6327,0.666,0.6993,0.7752,0.8024,0.8218,0.8411,0.8663,0.8856,0.9007,0.8744,0.8429,0.8107,0.7165,0.6446,0.6203,0.5602,0.5185,0.5185,0.5161,0.5128,0.5082,0.5855,0.6312,0.6175,0.5327,0.4837,0.4774,0.4703,0.4666,0.4591,0.5369,0.5712,0.5665,0.657,0.6499,0.5577,0.5592,0.5369,0.4933,0.4892,0.507,0.5429,0.5415,0.5375,0.535,0.535,0.535,0.5354,0.5382,0.5315,0.5219,0.0,0.0,0.0,0.0,0.0,1.6939,1.728,1.7309,1.7391,1.7568,1.7608,1.7608,1.7608,1.7608,1.7529,1.7331,0.0,0.0,0.0,0.0,0.0,0.0,0.0,0.0,0.0,0.0,1.6297,1.6031,1.5737,1.5416,0.0,0.0,1.4342,1.384,0.0,0.0,0.0,0.0,0.0,0.0,0.0,0.0,0.0,0.0,0.0,0.0,0.0,0.0,0.0,0.0,0.0,0.9889,1.0549,1.0419,0.9621,0.7636,0.6817,0.6455,0.5777,0.5404,0.5332,0.5897,0.5952,0.6189,0.7464,0.753,0.7621,0.856,0.8781,0.8935,0.9312,0.9657,0.9976,1.028,1.0,0.9759,0.9686,0.8657,0.7859,0.7756,0.7056,0.6609,0.6619,0.6662,0.6566,0.6323,0.7376,0.7968,0.7821,0.6936,0.6308,0.6134,0.6096,0.6022,0.5909,0.6944,0.7429,0.7328,0.8488,0.8451,0.7336,0.7377,0.7136,0.664,0.6605,0.6859,0.7318,0.7274,0.7226,0.723,0.723,0.723,0.7235,0.7231,0.7179,0.7088,0.0,0.0,0.0,0.0,0.0,0.0,1.7534,1.7604,1.7597,1.7594,1.7608,1.7608,1.7608,1.7608,1.7608,1.7608,0.0,0.0,0.0,0.0,0.0,0.0,0.0,0.0,0.0,0.0,1.6551,1.6297,1.6031,1.5592,1.4987,1.4734,1.445,1.4191,0.0,0.0,0.0,0.0,0.0,0.0,0.0,0.0,0.0,0.0,0.0,0.0,0.0,0.0,0.0,0.0,0.0,0.0,0.0,1.1971,1.1795,0.9986,0.8577,0.7545,0.7319,0.6264,0.5637,0.7504,0.7132,0.7049,0.998,0.9273,0.8508,1.0395,1.0519,1.0485,1.1143,1.1538,1.1894,1.2223,1.2256,1.2067,1.1545,1.1467,1.1132,1.0259,1.0151,1.0141,1.0169,1.0264,1.0136,0.96,0.9817,0.982,0.9489,0.9788,0.9715,0.9266,0.9255,0.9255,0.9249,0.9592,0.9672,0.9469,0.9751,0.978,0.9579,0.9585,0.9552,0.9546,0.9546,0.9506,0.9461,0.9455,0.944,0.938,0.938,0.938,0.9367,0.9438,0.9434,0.9367,0.0,0.0,0.0,0.0,0.0,0.0,0.0,1.7898,1.809,1.7898,1.7885,1.7806,1.7608,1.7608,1.7608,1.7608,0.0,0.0,0.0,0.0,0.0,0.0,0.0,0.0,0.0,0.0,1.6895,1.6577,1.5939,1.5538,1.5324,1.4638,1.4272,1.4191,1.4083,1.3813,0.0,0.0,0.0,0.0,0.0,0.0,1.2188,0.0,0.0,0.0,0.0,0.0,0.0,0.0,0.0,0.0,0.0,0.0,0.0,1.2804,1.1726,1.0404,0.9572,0.9202,0.9175,0.978,0.9761,0.9865,1.1008,1.0864,1.0743,1.1532,1.1682,1.187,1.2474,1.2726,1.2947,1.3317,1.3383,1.3343,1.3144,1.2445,1.1888,1.1853,1.1308,1.0916,1.0761,1.0717,1.0558,1.0248,1.1218,1.1794,1.1685,1.2779,1.2272,0.9801,0.9932,1.0024,0.9971,1.0902,1.1336,1.1287,1.2326,1.2245,1.1113,1.1259,1.0945,1.0353,1.0353,1.063,1.1082,1.1082,1.1054,1.1044,1.1044,1.1044,1.1051,1.1068,1.0983,1.092,0.0,0.0,0.0,0.0,0.0,0.0,0.0,1.8362,1.8463,1.8043,1.799,1.7911,1.7635,1.7608,1.7608,1.7608,0.0,0.0,0.0,0.0,0.0,0.0,0.0,0.0,0.0,1.7252,1.704,1.671,1.5992,1.5538,1.5298,1.4638,1.4299,1.4191,1.4191,1.4002,0.0,0.0,0.0,0.0,0.0,0.0,1.3337,0.0,0.0,0.0,0.0,0.0,0.0,0.0,0.0,0.0,0.0,0.0,0.0,0.0,1.4051,1.3175,1.1579,1.0918,1.0834,1.1633,1.1643,1.174,1.2881,1.2748,1.2523,1.3208,1.326,1.3395,1.4039,1.423,1.4399,1.466,1.4693,1.4655,1.4607,1.4042,1.3688,1.3913,1.3491,1.3061,1.2873,1.2842,1.2698,1.2357,1.3259,1.3737,1.3559,1.4608,1.4258,1.2106,1.2037,1.2045,1.208,1.29,1.3321,1.3321,1.4351,1.4202,1.3071,1.3335,1.3042,1.24,1.24,1.2673,0.0,1.3013,1.298,1.2988,1.3054,1.3038,1.2997,1.317,1.3062,1.2856,0.0,0.0,0.0,0.0,0.0,0.0,0.0,0.0,1.8686,1.8095,1.8016,1.7911,1.7635,1.7608,1.7608,1.7608,0.0,0.0,0.0,0.0,0.0,0.0,0.0,0.0,0.0,1.7305,1.7014,1.6683,1.6125,1.5565,1.4987,1.4719,1.445,1.4191,1.4191,1.4202,0.0,0.0,0.0,0.0,0.0,0.0,0.0,0.0,0.0,0.0,0.0,0.0,0.0,0.0,0.0,0.0,0.0,0.0,0.0,0.0,0.0,0.0,0.0,1.1846,1.1279,1.321,1.2997,1.2943,1.5398,1.4735,0.0,1.5233,1.5142,1.5035,1.5671,1.5961,1.6071,1.6071,1.6071,1.6022,1.5879,1.6044,1.6186,1.6266,1.6285,1.6205,1.6031,1.6141,1.6012,1.5523,1.5578,1.547,1.5123,1.5434,1.5638,1.5638,1.5096,1.4885,1.5079,1.528,1.5355,1.5345,1.5728,1.5649,1.5228,1.5513,1.5451,1.52,1.5219,1.521,1.5191,1.5012,1.4946,1.4964,1.5134,1.5087,1.4964,1.5428,1.5281,1.4927,0.0,0.0,0.0,0.0,0.0,0.0,0.0,0.0,0.0,0.0,1.8122,1.7911,1.7635,1.7608,1.7608,0.0,0.0,0.0,0.0,0.0,0.0,0.0,0.0,0.0,0.0,1.6975,1.6683,1.6404,1.5859,1.5378,1.4987,1.4504,1.4272,1.4191,1.4191,1.4288,0.0,0.0,0.0,0.0,0.0,0.0,0.0,0.0,0.0,0.0,1.45,1.456,0.0,0.0,0.0,0.0,0.0,0.0,0.0,0.0,1.5574,1.5632,1.5289,0.0,1.5019,1.5522,1.5457,1.5495,0.0,1.6055,1.5763,1.6286,1.6308,1.6329,1.6636,1.6743,1.6742,1.6742,1.6742,1.6729,1.6565,1.6703,1.681,1.6871,1.6999,1.7095,1.7048,1.6811,1.6534,1.6247,1.6114,1.6001,1.5931,1.6001,1.6072,1.6072,1.5761,1.5717,1.5931,1.5796,1.5762,1.5762,1.5857,1.5759,1.5523,1.5731,1.5583,1.521,1.5413,1.5385,1.521,1.5366,1.5447,1.5437,1.5247,1.5172,1.5144,1.5238,1.5115,1.4955,0.0,0.0,0.0,0.0,0.0,0.0,0.0,0.0,0.0,0.0,0.0,0.0,0.0,0.0,0.0,0.0,0.0,0.0,0.0,0.0,0.0,0.0,0.0,1.7199,1.7199,1.6749,1.6457,1.6297,1.5764,1.5394,1.5174,1.4762,1.4554,1.4514,1.4514,1.4579,0.0,0.0,0.0,0.0,1.499,0.0,0.0,0.0,0.0,0.0,1.5067,1.5067,0.0,1.5264,1.5324,1.5353,0.0,0.0,0.0,0.0,1.5793,1.5836,1.6084,1.616,1.6204,1.642,1.6474,1.6538,1.6764,1.6721,1.6699,1.702,1.7085,1.715,1.7399,1.7195,1.7109,1.738,1.701,1.6765,1.7032,1.7395,1.7561,1.7438,1.7642,1.7679,1.7432,1.7112,1.6859,1.6642,1.6434,1.6318,1.6188,1.6178,1.6178,1.6178,1.61,1.61,1.6178,1.6006,1.5949,1.6043,1.6043,1.593,1.574,1.5949,1.5863,1.5526,1.5684,1.5665,1.5526,1.5579,1.5598,1.5589,1.5526,1.546,1.5404,1.5602,1.5479,1.5262,0.0,0.0,0.0,0.0,0.0,0.0,0.0,0.0,0.0,0.0,0.0,0.0,0.0,0.0,0.0,0.0,0.0,0.0,0.0,0.0,0.0,0.0,0.0,1.7067,1.7067,1.651,1.6217,1.6164,1.5722,1.5452,1.5322,1.5104,1.4943,1.4891,1.4923,1.4945,0.0,0.0,0.0,0.0,1.5271,0.0,0.0,0.0,0.0,0.0,0.0,0.0,0.0,1.5601,1.5601,1.5601,1.5601,0.0,0.0,0.0,0.0,0.0,1.6301,1.6217,1.6174,1.6602,1.6752,1.686,1.7023,1.713,1.7227,1.7529,1.7594,1.7637,1.7864,1.7487,1.7315,1.7752,1.7035,1.6621,1.7196,1.7728,1.7969,1.7779,1.7929,1.7923,1.7474,1.7246,1.7038,1.6859,1.6623,1.6441,1.6235,1.6261,1.6216,1.6178,1.6216,1.6216,1.6178,1.6034,1.6034,1.6178,1.6178,1.6119,1.5949,1.6129,1.61,1.5901,1.593,0.0,1.5882,1.575,1.5693,1.5702,1.5845,1.5788,1.5684,1.6034,1.592,1.5617,0.0,0.0,0.0,0.0,0.0,0.0,0.0,0.0,0.0,0.0,0.0,0.0,0.0,0.0,0.0,0.0,0.0,0.0,0.0,0.0,0.0,1.6842,1.659,1.643,1.643,1.6137,1.5844,1.5615,1.5535,1.5332,1.5071,1.5026,1.4943,1.4919,1.5077,1.5135,1.5185,0.0,0.0,0.0,1.5548,0.0,0.0,0.0,0.0,0.0,0.0,0.0,0.0,1.5601,1.5601,1.5601,1.5601,0.0,0.0,0.0,0.0,0.0,1.658,1.6541,1.6466,1.6657,1.7042,1.7388,1.7432,1.7658,1.7872,1.7905,1.7905,1.7811,1.7467,1.7662,1.7769,1.7423,1.7172,1.6957,1.6812,1.693,1.7129,1.7443,1.7517,1.7549,1.7668,1.732,1.7095,1.7057,1.6698,1.6507,1.647,1.6434,1.6394,1.6223,1.6384,1.6358,1.6188,1.6185,1.6185,1.6178,1.6178,1.6169,1.6131,1.6204,1.61,1.5901,0.0,1.6062,1.5911,1.6062,1.6119,1.6075,1.5958,1.5873,1.5854,1.592,1.5797,1.5598,0.0,0.0,0.0,0.0,0.0,0.0,0.0,0.0,0.0,0.0,0.0,0.0,0.0,0.0,0.0,0.0,0.0,0.0,0.0,0.0,0.0,1.6471,1.6244,1.6164,1.6297,1.6192,1.6049,1.5925,1.5756,1.5659,1.5602,1.5397,1.5315,1.5278,1.5357,1.5411,1.5411,1.5548,0.0,0.0,0.0,0.0,0.0,0.0,0.0,0.0,0.0,0.0,0.0,0.0,1.5601,1.5623,1.5782,0.0,0.0,0.0,0.0,0.0,1.7073,1.7215,1.7271,1.7066,1.6935,1.6814,1.672,1.6881,1.7195,1.7648,1.7924,1.8071,1.7939,1.784,1.7574,1.6827,1.7311,1.7637,1.7186,1.7518,1.7725,1.7626,1.7738,1.7746,1.7549,1.735,1.7227,1.7114,1.6925,1.6774,1.666,1.6547,1.6479,1.6384,1.6365,1.6273,1.6178,1.6178,1.6178,1.6178,1.6178,1.6178,1.6178,1.6178,1.6167,1.6072,0.0,1.6157,1.6072,1.6176,1.6178,1.6169,1.611,1.6072,1.6072,1.6072,1.6015,1.593,0.0,0.0,0.0,0.0,0.0,0.0,0.0,0.0,0.0,0.0,0.0,0.0,0.0,0.0,0.0,0.0,0.0,0.0,0.0,0.0,1.6369,1.6304,1.615,1.6126,1.6191,1.6259,1.6311,1.6311,1.6104,1.6079,1.6201,1.5869,1.5725,1.572,1.5631,1.5601,1.5601,1.5601,1.5601,0.0,0.0,0.0,0.0,0.0,0.0,0.0,0.0,0.0,0.0,0.0,0.0,0.0,0.0,0.0,0.0,1.6706,1.7101,1.7412,1.757,1.7789,1.7867,1.7446,1.7094,1.6755,1.6404,1.6596,1.7034,1.7554,1.7917,1.8171,1.8273,1.7982,1.7473,1.6712,1.7484,1.8,1.7458,1.7882,1.8119,1.7765,1.7897,1.7849,1.7445,1.7388,1.736,1.719,1.7133,1.702,1.6812,1.6689,1.6585,1.6481,1.6556,1.6586,1.6538,1.6658,1.6532,1.6178,1.6178,1.6178,1.6178,1.6178,1.6178,1.6178,1.6178,1.6178,1.6178,1.6178,1.6178,1.6178,1.6178,1.6178,1.6178,1.6178,1.6178,1.6178,0.0,0.0,0.0,0.0,0.0,0.0,0.0,0.0,0.0,0.0,0.0,0.0,0.0,0.0,0.0,0.0,0.0,0.0,0.0,0.0,1.656,1.6302,1.6529,1.6404,1.5924,1.6178,1.6311,1.6311,1.6534,1.6601,1.6563,1.6212,1.6058,1.6057,1.575,1.5601,1.5601,1.5601,1.5601,1.5601,0.0,0.0,0.0,0.0,0.0,0.0,0.0,0.0,0.0,0.0,0.0,0.0,0.0,0.0,1.7107,1.7141,1.7541,1.7946,1.7969,1.788,1.7741,1.7542,1.795,1.8229,1.7478,1.7932,1.8451,1.8274,1.806,1.7921,1.7934,1.7898,1.785,1.7803,1.7667,1.7458,1.7149,1.7169,1.7255,1.7388,1.7436,1.7445,1.7388,1.7388,1.7378,1.7369,1.7218,1.702,1.6812,1.6963,1.6878,1.649,1.7316,1.7679,1.7504,1.799,1.7534,1.6178,1.6178,1.6178,1.6178,1.6178,1.6178,1.6178,1.6178,1.6178,1.6178,1.6178,1.6178,1.6178,1.6178,1.6178,1.6178,1.6178,1.6178,1.6178,0.0,0.0,0.0,0.0,0.0,0.0,0.0,0.0,0.0,0.0,0.0,0.0,0.0,0.0,0.0,0.0,0.0,0.0,0.0,1.6223,1.615,1.6069,1.5912,1.5932,1.6139,1.6561,1.6807,1.6807,1.6655,1.6483,1.6294,1.5961,1.5781,1.5779,1.5661,1.5601,1.5601,1.5601,1.5601,1.5601,1.5601,0.0,0.0,0.0,0.0,0.0,0.0,0.0,0.0,0.0,1.6473,1.6638,1.6951,1.7269,1.7544,1.7659,1.8029,1.8366,1.8366,1.8146,1.7933,1.8045,1.8285,1.8178,1.6992,1.7247,1.7811,1.791,1.7924,1.7982,1.8235,1.7799,1.7523,1.7916,1.7683,1.7386,1.7284,1.7303,1.7293,1.7378,1.7835,1.8139,1.8139,1.8595,1.8898,1.8898,1.8693,1.858,1.8679,1.8287,1.8083,1.8124,1.818,1.8176,1.8092,1.8314,1.8131,1.757,1.757,1.757,1.757,1.757,1.757,1.757,1.757,1.757,1.757,1.757,1.757,1.757,1.757,1.757,1.757,1.757,1.7263,1.6885,0.0,0.0,0.0,0.0,0.0,0.0,0.0,0.0,0.0,0.0,0.0,0.0,0.0,0.0,0.0,0.0,0.0,0.0,1.6191,1.6077,1.5973,1.5829,1.5648,1.582,1.635,1.6705,1.6975,1.7092,1.6909,1.6714,1.6519,1.6105,1.5898,1.5898,1.569,1.5661,1.575,1.575,1.575,1.575,1.575,1.569,0.0,0.0,0.0,0.0,0.0,0.0,0.0,0.0,1.7017,1.7211,1.7596,1.782,1.8019,1.816,1.8302,1.841,1.841,1.8206,1.7982,1.7968,1.8168,1.8104,1.6988,1.72,1.7647,1.7697,1.7919,1.83,1.8857,1.8363,1.8014,1.8534,1.8346,1.8139,1.8139,1.8139,1.8139,1.8139,1.8633,1.8964,1.8964,1.9493,1.9806,1.9806,1.9618,1.9564,1.9714,1.9226,1.8996,1.923,1.8992,1.8915,1.8992,1.9084,1.9111,1.9111,1.9111,1.8866,1.8412,1.8412,1.8412,1.8412,1.8412,1.8412,1.8412,1.8412,1.8412,1.8412,1.8412,1.8412,1.8412,1.8412,1.8061,1.765,0.0,0.0,0.0,0.0,0.0,0.0,0.0,0.0,0.0,0.0,0.0,0.0,0.0,0.0,0.0,0.0,0.0,0.0,1.5885,1.6127,1.6089,1.5704,1.5938,1.6216,1.6467,1.6508,1.6704,1.7092,1.7358,1.7508,1.7479,1.6803,1.6508,1.6478,1.5857,1.5779,1.6087,1.6087,1.6087,1.6087,1.6087,1.5898,1.5661,0.0,0.0,0.0,0.0,0.0,0.0,0.0,1.7288,1.7711,1.7711,1.8105,1.8603,1.8603,1.8334,1.8001,1.8001,1.8001,1.784,1.7195,1.7718,1.827,1.7814,1.8167,1.842,1.7856,1.8212,1.8874,1.9764,1.9688,1.9585,1.9859,1.9859,1.9795,1.9806,1.9806,1.9806,1.9806,1.9806,1.9806,1.9806,1.9844,1.9844,1.9833,1.9833,1.9736,1.9525,1.9441,1.9441,1.9504,1.9784,2.0043,2.0295,2.0579,2.07,2.07,2.07,1.9889,1.8412,1.8412,1.8412,1.8412,1.8412,1.8412,1.8412,1.8412,1.8412,1.8447,1.8412,1.8412,1.8447,1.8412,1.8412,1.8412,0.0,0.0,0.0,0.0,0.0,0.0,0.0,0.0,0.0,0.0,0.0,0.0,0.0,0.0,0.0,0.0,0.0,0.0,1.4708,1.4775,1.4838,1.4844,1.4661,1.4866,1.5555,1.6182,1.6797,1.7399,1.722,1.7138,1.7138,1.6519,1.6224,1.6194,1.6016,1.6028,1.6087,1.6087,1.6194,1.6371,1.6164,1.6135,1.6264,0.0,0.0,0.0,0.0,0.0,0.0,0.0,0.0,0.0,1.8649,1.882,1.8956,1.8956,1.904,1.9124,1.9124,1.8407,1.7874,1.888,1.8672,1.8414,1.9112,1.891,1.8661,1.8866,1.9541,2.0123,2.0307,1.9858,1.9715,2.0408,1.9999,1.9639,1.9774,1.9806,1.9806,1.9806,2.0285,2.0624,2.0624,2.1199,2.1466,2.1291,2.1279,2.1244,2.1199,2.0987,2.0893,2.093,2.0816,2.0686,2.0591,2.068,2.07,2.07,2.07,2.0457,2.0028,2.0028,2.0028,2.0028,2.0028,2.0028,2.0028,2.0028,2.0134,2.0286,2.0099,2.0134,2.0274,2.0099,1.9784,1.9474,0.0,0.0,0.0,0.0,0.0,0.0,0.0,0.0,0.0,0.0,1.4777,0.0,0.0,0.0,0.0,0.0,0.0,0.0,0.0,1.4256,1.4307,1.4246,1.4106,1.4446,1.5335,1.6369,1.7097,1.7508,1.7315,1.7197,1.7197,1.6696,1.6471,1.6442,1.6312,1.6253,1.6253,1.6401,1.646,1.6508,1.646,1.6547,1.6697,0.0,0.0,0.0,0.0,0.0,0.0,0.0,0.0,0.0,1.9088,1.92,1.9264,1.9136,1.9232,1.9328,1.9028,1.8451,1.8146,1.894,1.8765,1.8639,1.955,1.9473,1.9391,1.992,2.037,2.075,2.1136,2.071,2.05,2.111,2.087,2.0642,2.0763,2.0785,2.0785,2.0785,2.1236,2.1524,2.1524,2.1985,2.2236,2.2079,2.2066,2.2018,2.1909,2.1655,2.151,2.151,2.1244,2.1075,2.1027,2.0918,2.0857,2.0857,2.0749,2.07,2.07,2.07,2.07,2.07,2.07,2.07,2.07,2.07,2.0797,2.093,2.0761,2.0857,2.1075,2.0918,2.0709,2.0519,0.0,0.0,0.0,0.0,0.0,0.0,0.0,0.0,0.0,0.0,1.4035,1.3819,0.0,0.0,0.0,0.0,0.0,0.0,0.0,0.0,1.4169,1.383,1.4089,1.4662,1.5561,1.6803,1.7449,1.7508,1.7508,1.7508,1.7479,1.7168,1.6991,1.6991,1.6685,1.6549,1.6601,1.6908,1.689,1.6695,1.7002,1.7101,1.7099,1.7455,0.0,0.0,0.0,0.0,0.0,0.0,0.0,0.0,1.9296,1.9392,1.9584,1.9264,1.92,1.9052,1.839,1.8422,1.855,1.8195,1.853,1.9084,1.9576,2.0035,2.0478,2.0939,2.0894,2.1071,2.2099,2.1909,2.1667,2.1909,2.2139,2.2296,2.2296,2.2296,2.2296,2.2296,2.2296,2.2296,2.2296,2.2296,2.2284,2.2272,2.226,2.2151,2.1885,2.1643,2.1498,2.1474,2.1232,2.1208,2.1402,2.1184,2.1063,2.1051,2.0821,2.07,2.07,2.07,2.07,2.07,2.07,2.07,2.07,2.07,2.0712,2.0736,2.0712,2.0857,2.1087,2.1063,2.1232,2.1438,0.0,0.0,0.0,0.0,0.0,0.0,0.0,0.0,0.0,0.0,0.0,0.0,0.0,0.0,0.0,0.0,0.0,0.0,0.0,0.0,1.2908,1.326,1.4054,1.4856,1.5572,1.6331,1.6979,1.7508,1.7508,1.7508,1.7479,1.7168,1.6991,1.6991,1.6932,1.7008,1.7194,1.7296,1.7564,1.7936,1.7985,1.8173,1.8459,1.9007,1.9274,0.0,0.0,0.0,0.0,0.0,0.0,0.0,1.9915,1.9947,1.9979,1.9915,1.9883,1.9902,1.9941,1.9418,1.9095,2.0201,2.0705,2.0947,2.1019,2.1315,2.1514,2.14,2.1663,2.2,2.2247,2.2212,2.2151,2.2199,2.226,2.2296,2.2296,2.2296,2.2296,2.2296,2.2296,2.2296,2.2296,2.2296,2.2212,2.2006,2.1994,2.1873,2.1619,2.1547,2.1414,2.1196,2.1123,2.1027,2.0882,2.0821,2.0785,2.0785,2.0724,2.07,2.07,2.07,2.07,2.07,2.07,2.07,2.07,2.07,2.0821,2.099,2.0785,2.0857,2.1063,2.0857,2.0954,2.1172,0.0,0.0,0.0,0.0,0.0,0.0,0.0,0.0,0.0,0.0,0.0,0.0,0.0,0.0,0.0,0.0,0.0,0.0,0.0,0.0,1.2982,1.3382,1.4489,1.5235,1.5601,1.6508,1.7156,1.7508,1.7508,1.7508,1.7508,1.7315,1.7256,1.7226,1.7387,1.7428,1.7438,1.7871,1.8155,1.8337,1.8643,1.8963,1.9254,1.9579,1.9875,2.0142,2.0106,0.0,0.0,0.0,0.0,0.0,0.0,0.0,2.0297,2.0138,2.0451,2.0728,2.0213,1.996,1.9996,2.0612,2.1217,2.1631,2.1377,2.1619,2.1873,2.1728,2.2018,2.2296,2.2296,2.2296,2.2296,2.2296,2.2296,2.2296,2.2296,2.2296,2.2296,2.2296,2.2296,2.2296,2.2296,2.2296,2.2248,2.2103,2.2091,2.1921,2.1534,2.151,2.1329,2.0918,2.1027,2.1027,2.0894,2.0894,2.0894,2.0894,2.0761,2.07,2.07,2.07,2.07,2.07,2.07,2.07,2.07,2.07,2.0785,2.0894,2.0761,2.0857,2.1099,2.1099,2.1256,2.1486,0.0,0.0,0.0,0.0,0.0,0.0,0.0,0.0,0.0,0.0,0.0,0.0,0.0,0.0,0.0,0.0,0.0,0.0,0.0,0.0,0.0,1.3614,1.4888,1.5542,1.5413,1.6803,1.7449,1.7332,1.7449,1.7508,1.7508,1.7508,1.7532,1.7593,1.787,1.7865,1.7761,1.8588,1.8834,1.8655,1.9271,1.9658,1.9863,1.9925,2.0268,2.0666,2.0602,2.0824,2.1046,2.0697,0.0,0.0,0.0,0.0,2.0647,2.0361,2.0804,2.1218,2.0207,2.0487,2.0981,2.0486,2.1148,2.1776,2.1281,2.1547,2.1921,2.197,2.2151,2.2296,2.2296,2.2296,2.2296,2.2296,2.2296,2.2296,2.2296,2.2296,2.2296,2.2296,2.2296,2.2296,2.2296,2.2296,2.2296,2.2296,2.2212,2.197,2.1534,2.1426,2.1172,2.0712,2.0918,2.1027,2.1027,2.1027,2.1027,2.1027,2.0809,2.07,2.07,2.07,2.07,2.07,2.07,2.07,2.07,2.07,2.07,2.07,2.0749,2.0906,2.1135,2.1414,2.1655,2.1837,0.0,0.0,0.0,0.0,0.0,0.0,0.0,0.0,0.0,0.0,1.2409,1.2409,0.0,0.0,0.0,0.0,0.0,0.0,1.2128,0.0,0.0,1.3246,1.4759,1.5324,1.4748,1.6567,1.7214,1.6626,1.7214,1.7508,1.7508,1.7508,1.7629,1.7847,1.8195,1.8568,1.8982,1.9411,1.97,1.9897,2.0277,2.0448,2.0518,2.079,2.0943,2.1014,2.0697,2.0824,2.1046,2.0697,2.0792,0.0,0.0,0.0,2.1014,2.0982,2.085,2.0791,2.1084,2.1479,2.1645,2.0865,2.1281,2.1825,2.1534,2.1692,2.197,2.2199,2.2272,2.2296,2.2296,2.2296,2.2296,2.2296,2.2296,2.2296,2.2296,2.2296,2.2296,2.2296,2.2296,2.2296,2.2296,2.2296,2.2296,2.2296,2.1873,2.1595,2.1486,2.1063,2.0773,2.07,2.0736,2.0761,2.0761,2.0761,2.0761,2.0761,2.0724,2.07,2.07,2.07,2.07,2.07,2.07,2.07,2.07,2.07,2.07,2.0724,2.0954,2.1063,2.1135,2.1414,2.1534,2.1571,0.0,0.0,0.0,0.0,0.0,0.0,0.0,0.0,0.0,0.0,0.0,1.2409,0.0,0.0,0.0,1.2219,1.2467,1.2664,1.2786,1.3088,1.3489,1.3963,1.4669,1.5224,1.5669,1.6508,1.6979,1.7067,1.7361,1.7593,1.7726,1.7916,1.8079,1.8201,1.8661,1.9075,1.9518,1.9996,2.0264,2.0425,2.0761,2.0761,2.0647,2.0982,2.0982,2.0824,2.0856,2.0982,2.1077,2.0919,2.0982,2.1109,2.1109,0.0,0.0,0.0,2.1373,2.1411,2.1574,2.1587,2.1449,2.1012,2.1414,2.1873,2.1764,2.1933,2.2163,2.2272,2.2296,2.2296,2.2296,2.2296,2.2296,2.2296,2.2296,2.2296,2.2296,2.2296,2.2296,2.2296,2.2296,2.2296,2.2296,2.2296,2.2296,2.2296,2.1946,2.1667,2.1522,2.1135,2.0857,2.07,2.07,2.07,2.07,2.07,2.07,2.07,2.07,2.07,2.07,2.07,2.07,2.07,2.07,2.07,2.07,2.07,2.07,2.0724,2.099,2.1002,2.093,2.1353,2.1414,2.1329,0.0,0.0,0.0,0.0,0.0,0.0,0.0,0.0,0.0,0.0,0.0,0.0,0.0,0.0,0.0,0.0,1.2692,1.3032,1.3392,1.3391,1.3682,1.4321,1.451,1.5046,1.5994,1.6331,1.6778,1.7339,1.7617,1.7869,1.8124,1.8542,1.8791,1.8865,1.928,1.9618,1.9945,2.0511,2.0729,2.0729,2.0919,2.0824,2.0602,2.0761,2.0697,2.052,2.0856,2.0982,2.0982,2.1077,2.1109,2.1109,2.1109,2.1162,0.0,0.0,0.0,2.2191,2.2021,2.1897,2.1773,2.1461,2.1786,2.2129,2.1946,2.2115,2.2296,2.2296,2.2296,2.2296,2.2296,2.2296,2.2296,2.2296,2.2296,2.2296,2.2296,2.2296,2.2296,2.2296,2.2296,2.2296,2.2296,2.2296,2.2272,2.2199,2.1958,2.1692,2.1426,2.1148,2.0906,2.0712,2.07,2.07,2.07,2.07,2.07,2.07,2.07,2.07,2.07,2.07,2.07,2.07,2.07,2.07,2.07,2.07,2.07,2.0724,2.099,2.0978,2.0857,2.1341,2.1426,2.1353,0.0,0.0,0.0,0.0,0.0,0.0,0.0,0.0,0.0,0.0,0.0,0.0,1.2409,1.2625,1.2637,1.2329,1.2796,1.3174,1.3401,1.3391,1.3505,1.3744,1.4301,0.0,1.4689,1.5876,1.6651,1.6921,1.7895,1.8493,1.8753,1.9354,1.9791,2.0115,2.0141,2.031,2.0589,2.0919,2.1077,2.1046,2.0761,2.0602,2.057,2.0265,2.0138,2.017,2.052,2.0647,2.0666,2.0982,2.1109,2.1109,2.1109,2.1328,2.1569,0.0,0.0,0.0,2.2465,2.3017,2.3413,2.2412,2.254,2.2739,2.2056,2.2115,2.2296,2.2296,2.2296,2.2296,2.2296,2.2296,2.2296,2.2296,2.2296,2.2296,2.2296,2.2296,2.2296,2.2296,2.2296,2.2296,2.2296,2.2296,2.2199,2.1946,2.168,2.1414,2.1135,2.0869,2.0712,2.07,2.07,2.07,2.07,2.07,2.07,2.07,2.07,2.07,2.07,2.07,2.07,2.07,2.07,2.07,2.07,2.07,2.07,2.0724,2.099,2.1087,2.1111,2.1401,2.1667,2.1873,0.0,0.0,0.0,0.0,0.0,0.0,0.0,0.0,0.0,0.0,0.0,0.0,0.0,1.2861,1.2928,1.2814,1.2794,1.2867,1.3079,1.3088,1.3358,1.3993,1.4391,1.4986,1.5787,1.6656,1.732,1.7847,1.8603,1.9102,1.9398,1.9809,2.0182,2.0459,2.0459,2.0637,2.0919,2.1046,2.1109,2.1077,2.0729,2.0488,2.0297,2.0393,2.0157,1.9839,2.0412,2.0729,2.0951,2.1046,2.1515,2.2029,2.1806,2.2107,2.259,2.2783,2.3028,2.3242,2.3073,2.3304,2.3439,2.3003,2.2827,2.2707,2.2629,2.2436,2.2296,2.2296,2.2296,2.2296,2.2296,2.2296,2.2296,2.2296,2.2296,2.2296,2.2296,2.2296,2.2296,2.2296,2.2296,2.2296,2.2296,2.2296,2.226,2.2163,2.1764,2.1474,2.1365,2.0942,2.07,2.07,2.07,2.07,2.07,2.07,2.07,2.07,2.07,2.07,2.07,2.07,2.07,2.07,2.07,2.07,2.07,2.07,2.07,2.0724,2.099,2.099,2.0894,2.1353,2.1462,2.1438,0.0,0.0,0.0,0.0,0.0,0.0,0.0,0.0,0.0,0.0,0.0,0.0,0.0,0.0,1.3231,1.3297,1.3103,1.3042,1.3151,1.316,1.3512,1.4292,1.47,1.5489,1.677,1.7291,1.798,1.8854,1.9247,1.963,2.0002,2.036,2.0621,2.0761,2.0761,2.0887,2.1109,2.1109,2.1109,2.1046,2.0615,2.0361,2.0278,2.0355,2.0138,1.9851,2.0368,2.0661,2.0761,2.0761,2.1211,2.1769,2.191,2.2535,2.3285,2.3593,2.373,2.3782,2.3782,2.3884,2.3919,2.3706,2.3412,2.318,2.3015,2.2767,2.2485,2.2321,2.2296,2.2296,2.2296,2.2296,2.2296,2.2296,2.2296,2.2296,2.2296,2.2296,2.2296,2.2296,2.2296,2.2296,2.2296,2.2296,2.226,2.2175,2.1849,2.1607,2.1486,2.1172,2.0978,2.0978,2.0882,2.0833,2.0833,2.0749,2.07,2.07,2.07,2.07,2.07,2.07,2.07,2.07,2.07,2.07,2.07,2.07,2.0761,2.0857,2.1027,2.1051,2.1015,2.1377,2.145,2.1414,0.0,0.0,0.0,0.0,0.0,0.0,0.0,0.0,0.0,1.2804,0.0,0.0,0.0,0.0,0.0,1.3674,1.3684,1.3684,1.3684,1.3723,1.3983,1.455,1.5214,1.6147,1.7354,1.7769,1.855,1.9692,1.9788,2.0098,2.0602,2.0951,2.1109,2.1109,2.1109,2.1109,2.1109,2.1109,2.1109,2.1046,2.0361,2.0297,2.0546,2.0128,2.0,2.0113,2.0379,2.0335,2.0138,2.0106,2.0151,2.0406,2.14,2.2536,2.3574,2.3936,2.4258,2.4495,0.0,0.0,0.0,2.4537,2.4434,2.4183,2.3277,2.3019,2.2875,2.241,2.2284,2.2284,2.2296,2.2296,2.2296,2.2296,2.2296,2.2296,2.2296,2.2296,2.2296,2.2296,2.2296,2.2296,2.2296,2.2296,2.2199,2.1933,2.1909,2.18,2.1547,2.1486,2.151,2.151,2.1244,2.1099,2.1099,2.0833,2.07,2.07,2.07,2.07,2.07,2.07,2.07,2.07,2.07,2.07,2.07,2.07,2.0857,2.1087,2.1087,2.1256,2.1498,2.1498,2.1667,2.1897,0.0,0.0,0.0,0.0,0.0,0.0,0.0,0.0,1.2852,0.0,0.0,0.0,1.3325,1.3515,1.3627,1.3714,1.3474,1.3354,1.3354,1.3973,1.4311,1.4165,1.6134,1.7255,1.7318,1.8809,1.9738,2.006,2.0521,2.0823,2.0951,2.1046,2.1109,2.1109,2.1109,2.1235,2.1457,2.1204,2.1109,2.1046,2.0361,2.017,2.0202,1.9863,1.9582,1.9404,1.9734,2.0253,2.0761,2.0253,2.139,2.3134,2.3885,2.4003,2.3975,2.4617,2.4679,2.4563,2.4849,0.0,0.0,0.0,0.0,0.0,2.4484,2.3701,2.3006,2.2826,2.2387,2.2079,2.226,2.2296,2.2296,2.2296,2.2296,2.2296,2.2296,2.2296,2.2296,2.2296,2.2296,2.2296,2.2296,2.2296,2.2272,2.2199,2.2018,2.1873,2.18,2.1619,2.151,2.151,2.1244,2.1099,2.1099,2.0833,2.07,2.07,2.07,2.07,2.07,2.07,2.07,2.07,2.07,2.07,2.07,2.07,2.0749,2.0809,2.0809,2.0978,2.1208,2.1208,2.1389,2.1619,0.0,0.0,0.0,0.0,0.0,0.0,1.2776,1.2946,1.3098,0.0,0.0,0.0,1.3543,1.3618,1.3693,1.3693,1.3654,1.3633,1.3633,1.451,1.5008,1.5032,1.7118,1.8289,1.8325,1.9689,2.0455,2.0587,2.0815,2.0989,2.1109,2.1109,2.1109,2.1109,2.1109,2.1299,2.1583,2.1393,2.1393,2.1457,2.0647,2.0393,2.0456,1.9964,1.9651,1.9544,1.9708,2.0131,2.0548,1.9908,2.1271,2.3327,2.3742,2.4127,2.4578,2.5153,2.5153,2.5052,2.5423,2.5674,2.5809,2.5809,0.0,0.0,2.4493,2.372,2.3025,2.2373,2.1945,2.1825,2.2091,2.2224,2.2296,2.2296,2.2296,2.2296,2.2296,2.2296,2.2296,2.2296,2.2296,2.2296,2.2296,2.2296,2.2296,2.2296,2.2163,2.2066,2.2066,2.1921,2.1837,2.1837,2.1353,2.1099,2.1099,2.0863,2.0737,2.0749,2.1032,2.1151,2.1151,2.1151,2.1151,2.1151,2.1151,2.1151,2.1151,2.1151,2.1039,2.0869,2.0869,2.1027,2.1268,2.1268,2.1377,2.151,0.0,0.0,0.0,1.2447,1.2616,1.2785,1.2852,1.3155,1.3372,0.0,1.358,1.3693,1.3693,1.3693,1.3723,1.3753,1.4022,1.4232,1.4351,1.5224,1.6005,1.6571,1.8119,1.9193,1.9776,2.042,2.0855,2.1109,2.0855,2.0855,2.1109,2.1109,2.1109,2.1172,2.1172,2.1362,2.1709,2.1709,2.1866,2.2024,2.1149,2.0882,2.0977,2.0334,2.0045,1.9972,1.9921,1.9943,1.9963,1.9515,2.0508,2.1951,2.2196,2.3415,2.4897,2.5442,2.551,2.5513,2.5996,2.613,2.6179,2.6179,2.6228,0.0,2.4156,2.3769,2.333,2.1921,2.1782,2.2029,2.23,2.2534,2.2694,2.2694,2.2595,2.252,2.2334,2.2296,2.2296,2.2296,2.2296,2.2296,2.2296,2.2296,2.2296,2.2296,2.2334,2.2371,2.2408,2.2408,2.2408,2.2408,2.1715,2.1326,2.1326,2.1067,2.0966,2.0966,2.1521,2.1794,2.1794,2.1794,2.1794,2.1794,2.1794,2.1794,2.1794,2.1794,2.153,2.1121,2.1121,2.128,2.151,2.1486,2.151,2.1559,0.0,1.2409,1.2466,1.2673,1.2597,1.2645,1.3192,1.3221,1.3278,1.3589,1.3695,1.3693,1.3693,1.3693,1.3813,1.4082,1.4172,1.453,1.5283,1.6201,1.6884,1.7194,1.8955,1.9846,1.9634,2.0555,2.1056,2.1109,2.1056,2.1056,2.1109,2.1109,2.1235,2.152,2.152,2.1821,2.2386,2.2386,2.2292,2.2069,2.1874,2.1355,2.0673,2.0528,1.9981,1.9308,1.9293,1.9626,2.0195,2.0889,2.1019,2.1189,2.2789,2.3023,2.3057,2.504,2.5044,2.4648,2.5801,2.6331,2.6566,2.6566,2.697,0.0,2.6243,2.6015,2.5792,2.5171,2.4838,2.4711,2.4998,2.507,2.5111,2.5111,2.4559,2.3722,2.2483,2.2296,2.2296,2.2296,2.2296,2.2296,2.2296,2.2296,2.2296,2.2296,2.2595,2.2893,2.3178,2.3191,2.3191,2.3191,2.2814,2.2612,2.2612,2.2152,2.1944,2.1944,2.1849,2.1794,2.1794,2.1794,2.1794,2.1794,2.1794,2.1794,2.1794,2.1794,2.1556,2.119,2.119,2.1322,2.1486,2.1256,2.145,2.1837,1.2409,1.2409,1.2447,1.2587,1.2682,1.2862,1.3212,1.3344,1.3486,1.3665,1.3693,1.3693,1.3693,1.3693,1.3843,1.4172,1.4639,0.0,0.0,1.6997,1.7774,1.7879,1.9387,2.0111,1.9919,2.0694,2.1109,2.1109,2.1109,2.1109,2.1109,2.1267,2.1267,2.1109,2.1646,2.1947,2.2118,2.2651,2.2849,2.2786,2.1929,2.1115,2.0329,1.9989,1.9535,1.9104,1.9104,1.9328,1.9717,2.0521,2.1072,2.1496,2.2345,2.2825,2.3402,2.4915,2.5,2.4908,2.6273,2.68,2.6967,2.6967,2.7194,0.0,0.0,2.6182,2.6254,2.5702,2.5531,2.5576,2.6049,2.5951,2.5794,2.5794,2.5111,2.4462,2.4092,2.3364,2.2781,2.2632,2.2744,2.2781,2.2632,2.2744,2.2856,2.2856,2.3042,2.3228,2.3401,2.3401,2.3401,2.3401,2.2995,2.2815,2.2815,2.2608,2.2431,2.2289,2.2462,2.2501,2.2345,2.2345,2.2345,2.2345,2.2345,2.2345,2.2345,2.2345,2.2104,2.1738,2.1704,2.168,2.1689,2.1813,2.195,2.2074,1.2409,1.2409,1.2428,1.2466,1.2748,1.3013,1.3136,1.3411,1.3599,1.3674,1.3534,1.3444,1.3504,1.3564,1.3744,1.4172,1.5105,1.5906,1.6408,1.7613,1.8357,1.8502,1.9591,2.0167,2.0119,2.0833,2.1204,2.1204,2.1267,2.1299,2.1299,2.1583,2.1484,2.1094,2.1736,2.2016,2.211,2.2751,2.3092,2.3096,2.1729,2.0993,2.0599,1.9938,1.9547,1.9369,1.916,1.9104,1.9217,1.9873,2.0895,2.193,2.2111,2.2826,2.3875,2.5226,2.5281,2.5303,2.693,2.7391,2.7391,2.7391,2.7492,2.7312,0.0,0.0,0.0,2.6448,2.6516,2.6807,2.7175,2.693,2.6619,2.6416,2.5766,2.5465,2.6052,2.4974,2.3957,2.3513,2.3401,2.3327,2.3228,2.3475,2.3587,2.3513,2.3661,2.3698,2.3624,2.3624,2.3611,2.3547,2.3186,2.2942,2.2927,2.3027,2.2968,2.2745,2.3187,2.3247,2.2987,2.2987,2.296,2.2893,2.2893,2.2893,2.2893,2.2893,2.2728,2.2484,2.237,2.2182,2.2023,2.2485,2.2574,2.2495,1.2409,1.2409,1.2475,1.2701,1.2606,1.2673,1.3268,1.3259,1.3297,1.3646,1.2934,1.2475,1.2784,1.3075,1.3515,1.4152,1.5343,1.6496,1.7613,1.7877,1.8227,1.8823,1.9711,2.0089,1.9846,2.0971,2.1551,2.1551,2.1821,2.1992,2.1992,2.201,2.2321,2.2798,2.2009,2.2444,2.376,2.3,2.2355,2.1808,2.162,2.2046,2.2669,2.2015,2.1202,2.0327,1.9414,1.9104,1.9249,2.0217,2.0851,2.158,2.3632,2.3167,2.2604,2.6307,2.5907,2.4845,2.7392,2.8072,2.8072,2.8072,2.8587,2.9016,2.8949,0.0,3.0359,3.0358,0.0,3.0703,3.0061,0.0,0.0,2.8621,2.8039,2.7626,2.7432,2.6923,2.6334,2.5552,2.424,2.3661,2.4351,2.4425,2.4314,2.397,2.4586,2.4844,2.4488,2.4451,2.4332,2.4117,2.4289,2.4263,2.401,2.4043,2.4052,2.3976,2.3821,2.3567,2.3238,2.3238,2.3126,2.2893,2.2893,2.2893,2.2893,2.2893,2.302,2.3169,2.2846,2.2637,2.2561,2.283,2.3084,2.3311,1.2409,1.2409,1.2447,1.2559,1.2701,1.289,1.3193,1.3363,1.3515,1.3665,1.3324,1.3114,1.3264,1.4019,1.458,1.4699,1.6216,1.744,1.8124,1.8538,1.9076,1.9913,2.048,2.0832,2.0893,2.1551,2.1884,2.1884,2.201,2.2104,2.2118,2.249,2.2613,2.2502,2.228,2.2332,2.2632,2.2217,2.2194,2.2423,2.2032,2.2484,2.3186,2.1117,2.0115,1.9668,1.9237,1.9232,1.9468,2.0105,2.12,2.2293,2.2516,2.3051,2.3952,2.5511,2.5665,2.5771,2.7723,2.7652,2.7248,2.8019,2.8173,2.8352,2.9202,0.0,3.1371,3.165,0.0,0.0,0.0,0.0,0.0,0.0,2.8828,2.8192,2.8556,2.7476,2.6532,2.6182,2.5772,2.5456,2.5309,2.4881,2.4482,2.414,2.4566,2.4703,2.4396,2.4506,2.4466,2.4209,2.4452,2.4452,2.4209,2.4332,2.4332,2.4195,2.395,2.3621,2.3278,2.314,2.3027,2.2893,2.2893,2.2893,2.2893,2.2893,2.3046,2.3305,2.3373,2.3341,2.3356,2.3778,2.3909,2.3896,1.2494,1.2456,1.2428,1.2494,1.2776,1.3051,1.3164,1.3486,1.3693,1.3693,1.3444,1.3414,1.3773,1.465,1.5286,1.5429,1.695,1.8027,1.8369,1.8984,1.9552,2.0033,2.0866,2.1317,2.1286,2.1919,2.223,2.223,2.2324,2.2429,2.2528,2.301,2.3082,2.2799,2.2748,2.2521,2.2117,2.184,2.2011,2.238,2.1871,2.1951,2.2169,2.025,1.9389,1.9232,1.9232,1.9456,1.9819,2.0355,2.1555,0.0,2.2098,2.3073,2.4469,2.4746,2.5102,2.5762,2.7532,2.7282,2.6861,2.8427,2.8547,2.8675,0.0,0.0,0.0,3.2566,3.2621,0.0,0.0,0.0,3.0943,3.063,0.0,2.8891,2.9421,2.8064,2.7105,2.7164,2.7245,2.699,2.6188,2.5616,2.5052,2.4585,2.4724,2.4642,2.4222,2.4359,2.4386,2.4209,2.4452,2.4452,2.4209,2.4452,2.4492,2.4315,2.4115,2.3848,2.3532,2.3327,2.3215,2.3134,2.3054,2.3067,2.3134,2.3054,2.3166,2.3474,2.3768,2.3924,2.3991,2.4412,2.4466,2.4356,1.2738,1.2587,1.2475,1.2748,1.2795,1.2946,1.3315,1.3561,1.3693,1.3693,1.2844,1.2715,1.3963,1.4368,1.5034,1.6246,1.7283,1.8027,1.8369,1.9013,1.9103,1.8501,2.0544,2.1225,2.0283,2.1794,2.2574,2.2574,2.2918,2.3235,2.3542,2.3557,2.394,2.4492,2.3515,2.3262,2.3462,2.2495,2.1555,2.0676,2.0643,2.007,1.9325,2.0237,2.0161,1.9584,1.9584,1.9807,0.0,2.1218,2.1808,0.0,0.0,0.0,2.3002,2.4696,2.4285,2.3907,0.0,0.0,0.0,2.9804,0.0,0.0,0.0,0.0,3.3253,0.0,0.0,3.3521,3.2841,3.2666,3.2263,3.1167,3.06,0.0,0.0,2.9196,2.883,2.9178,2.8542,2.7768,2.7027,2.6954,2.6496,2.5438,2.5352,2.5027,2.4231,2.4209,2.4209,2.4209,2.4452,2.4452,2.4209,2.4452,2.4599,2.4586,2.4572,2.4412,2.4168,2.4168,2.4008,2.3763,2.3434,2.3474,2.375,2.3434,2.3487,2.3817,2.4075,2.4195,2.4222,2.4492,2.4586,2.4586,1.2956,1.2937,1.288,1.2984,1.3117,1.3306,1.3551,1.3646,1.3833,1.4242,1.4003,1.4201,1.5224,1.6154,1.6775,1.699,1.8072,1.8809,1.8933,1.9566,1.9902,1.9848,2.1417,2.2012,2.1481,2.2423,2.302,2.3269,2.3364,2.3603,2.3925,2.4177,2.4397,2.4569,2.379,2.3128,2.2555,2.1523,2.0915,2.0598,2.0598,2.0534,2.038,2.0066,1.9786,1.9635,1.9839,2.017,0.0,2.0815,2.1614,2.2387,2.2162,2.2817,2.3681,2.3815,2.4036,0.0,0.0,0.0,2.5241,2.799,0.0,0.0,0.0,0.0,0.0,0.0,0.0,0.0,3.3451,3.3033,3.2561,3.2175,3.1597,3.0978,0.0,2.9605,2.898,2.863,2.8284,2.7985,2.7768,2.643,2.5463,2.5115,2.4402,2.3904,2.3621,2.3995,2.4115,2.3928,2.4382,2.4409,2.3928,2.4396,2.4506,2.4356,2.4356,2.4302,2.4195,2.4008,2.3897,2.3803,2.3661,2.371,2.3803,2.3661,2.3794,2.4062,2.4168,2.4329,2.4466,2.4559,2.4599,2.4599,1.3174,1.3212,1.3212,1.3212,1.3382,1.3542,1.3665,1.3693,1.3923,1.451,1.467,1.5203,1.6389,1.7253,1.7754,1.7815,1.8548,1.9075,1.9224,1.9735,2.0094,2.0288,2.142,2.1853,2.1411,2.2405,2.3036,2.3238,2.3609,2.394,2.4294,2.4499,2.4661,2.4778,2.4343,2.3367,2.2043,2.1431,2.0734,2.007,2.0187,2.038,2.0516,2.0125,2.0176,2.0477,0.0,2.0488,2.0761,2.0761,2.1356,2.197,2.1289,2.2002,2.3,2.2582,2.2903,2.3569,2.4304,2.4187,0.0,2.7482,2.8263,0.0,3.135,0.0,3.2991,0.0,0.0,0.0,0.0,3.3108,3.2887,3.2887,3.2262,3.1372,0.0,2.9835,2.9331,2.8313,2.8393,2.8326,2.7845,2.6706,2.5576,2.4532,2.4093,2.366,2.3166,2.3621,2.3901,2.3928,2.4289,2.4356,2.4075,2.4412,2.4506,2.4356,2.4356,2.4356,2.4356,2.4168,2.4075,2.4075,2.3968,2.3981,2.4075,2.3968,2.4035,2.4209,2.4315,2.4372,2.4452,2.4559,2.4599,2.4599,1.3392,1.34,1.34,1.34,1.3561,1.3693,1.3693,1.3673,1.3852,1.4471,1.4791,1.5603,1.716,1.7568,1.8015,1.8674,1.8709,1.887,1.9287,1.9565,1.9687,1.9655,2.0585,2.0779,2.0113,2.1742,2.2612,2.2626,2.3631,2.4309,2.4631,2.4631,2.4793,2.5086,2.5086,2.3985,2.209,2.209,2.0941,1.9136,1.9488,1.9647,1.9788,2.0393,2.1232,2.1993,2.0993,2.0824,2.1109,2.1109,2.1109,2.1109,2.1109,2.1109,2.1109,2.1109,2.1109,2.1384,2.2741,2.3989,2.5533,2.8128,0.0,0.0,0.0,0.0,3.257,0.0,0.0,0.0,0.0,0.0,3.3196,3.3214,3.258,3.1477,2.9727,2.9963,2.9827,2.8398,2.8802,2.8711,2.7419,2.7702,2.6782,2.3893,2.4399,2.4274,2.2941,2.3215,2.3656,2.4168,2.4209,2.4356,2.4572,2.4586,2.4586,2.4572,2.4586,2.4599,2.4599,2.4599,2.4599,2.4586,2.4342,2.4346,2.4572,2.4342,2.4222,2.4249,2.4492,2.4426,2.4262,2.4492,2.4599,2.4599,1.357,1.3608,1.3608,1.3608,1.3685,1.3693,1.3693,1.315,1.2965,1.3627,1.4317,1.5194,1.6295,1.7639,1.8577,1.895,1.9003,1.9047,1.9132,1.9688,1.9789,1.9281,2.0436,2.0779,2.0113,2.1742,2.2724,2.2981,2.3995,2.4646,2.4968,2.4968,2.5012,2.5086,2.5086,2.3985,2.209,2.209,2.1091,1.9488,1.9571,2.0336,2.1403,0.0,2.1392,2.2346,2.1343,2.1014,2.1109,2.1109,2.1109,2.1109,2.1109,2.1109,2.1109,2.1109,2.1109,2.1186,2.1538,2.1882,2.2924,2.6168,2.7227,2.8229,0.0,0.0,0.0,0.0,0.0,0.0,0.0,0.0,3.3287,3.3615,3.2577,3.146,3.0684,3.0022,2.9337,2.8713,2.8131,2.7998,2.8711,2.7052,2.5702,2.5149,2.4388,2.3513,2.2572,2.4008,2.4586,2.3924,2.4302,2.4412,2.4315,2.4492,2.4492,2.4315,2.4492,2.4599,2.4599,2.4599,2.4599,2.4599,2.4519,2.4532,2.4586,2.4519,2.4492,2.4492,2.4572,2.4559,2.4492,2.4572,2.4599,2.4599,1.3646,1.3693,1.3693,1.3693,1.3368,1.3129,1.3129,1.3096,1.3167,1.3364,1.4589,1.5732,1.6546,1.7975,1.8899,1.8935,1.9044,1.9183,1.9347,1.9541,1.9635,1.9539,1.9998,2.0062,1.9667,2.1037,2.2041,2.2649,2.3681,2.4463,2.5086,2.5086,2.5086,2.5086,2.5086,2.4238,2.2709,2.1812,2.0987,2.024,1.9953,2.047,0.0,2.0985,2.1279,2.1879,2.1289,2.1109,2.1109,2.1109,2.1109,2.1109,2.1109,2.1109,2.1109,2.1109,2.1109,2.1109,2.1109,2.1538,2.2528,2.4766,2.5768,2.6953,2.9839,3.0158,3.0052,0.0,3.1129,3.1432,0.0,0.0,3.2981,3.3021,3.2368,3.1528,3.0628,3.0088,2.9547,2.8876,2.8393,2.8428,2.9214,2.6805,2.5246,2.5422,2.4824,2.4269,2.3814,2.4554,2.4846,2.4528,2.4336,2.4302,2.4359,2.4519,2.4519,2.4396,2.4519,2.4599,2.4599,2.4599,2.4599,2.4599,2.4599,2.4599,2.4599,2.4599,2.4599,2.4599,2.4599,2.4599,2.4599,2.4599,2.4599,2.4599,1.3685,1.3693,1.3693,1.3693,1.2991,1.2401,1.2246,1.2921,1.3402,1.3168,1.4863,1.6314,1.6968,1.8277,1.9019,1.8758,1.8983,1.9262,1.9612,1.9289,1.936,1.9954,1.9424,1.9104,1.9104,2.0102,2.1098,2.209,2.3117,2.4094,2.5086,2.5086,2.5086,2.5086,2.5086,2.4477,2.3339,2.145,2.0812,2.0999,2.04,2.0361,2.0697,2.0982,2.1109,2.1109,2.1109,2.1109,2.1109,2.1109,2.1109,2.1109,2.1109,2.1109,2.1109,2.1109,2.1109,2.1109,2.1109,2.1933,2.3034,2.3837,2.495,2.6392,2.8472,2.7982,2.7453,2.8773,2.929,2.9426,0.0,0.0,3.2009,3.1925,3.167,3.1005,2.9724,2.971,2.9525,2.8754,2.8751,0.0,2.9282,2.695,2.5459,2.5459,2.5692,2.5707,2.5427,2.499,2.4869,2.5196,2.4322,2.4088,2.4599,2.4599,2.4599,2.4599,2.4599,2.4599,2.4599,2.4599,2.4599,2.4599,2.4599,2.4599,2.4599,2.4599,2.4599,2.4599,2.4599,2.4599,2.4599,2.4599,2.4599,2.4599,1.3684,1.3693,1.3693,1.3693,1.3106,1.2365,1.1445,1.093,1.092,1.1722,1.3242,1.4641,1.5619,1.774,1.9092,1.9044,1.908,1.9124,1.9191,1.9144,1.9136,1.9264,1.9168,1.9104,1.9104,2.0102,2.1098,2.209,2.3117,2.4094,2.5086,2.5086,2.5086,2.5086,2.5086,2.4228,2.2704,2.1502,2.0902,2.068,2.0565,2.0697,2.1014,2.1077,2.1109,2.1109,2.1109,2.1109,2.1109,2.1109,2.1109,2.1109,2.1109,2.1109,2.1109,2.1109,2.1109,2.1109,2.1109,2.1267,2.1809,2.3368,2.4109,2.491,2.6727,2.7145,2.7172,2.742,2.7534,2.768,2.7922,0.0,0.0,3.058,2.9267,2.7978,2.7722,2.7209,2.712,2.7823,2.6904,2.7074,2.9111,2.7834,2.6855,2.6855,2.6931,2.6215,2.4371,2.5452,2.5506,0.0,2.4107,2.4289,0.0,0.0,2.4599,2.4599,2.4599,2.4599,2.4599,2.4599,2.4599,2.4599,2.4599,2.4599,2.4599,2.4599,2.4599,2.4599,2.4599,2.4599,2.4599,2.4599,2.4599,2.4599,1.3835,1.3769,1.3609,1.3233,1.2447,1.1553,1.0621,1.0247,1.0535,1.1854,1.3936,1.5643,1.6487,1.8081,1.9104,1.9104,1.9104,1.9104,1.9104,1.9104,1.9104,1.9104,1.9104,1.9104,1.9104,1.9579,2.0566,2.209,2.2568,2.3604,2.5086,2.5086,2.5086,2.5086,2.454,2.3961,2.3285,2.175,2.1212,2.1323,2.0826,2.0792,2.1109,2.1109,2.1109,2.1109,2.1109,2.1109,2.1109,2.1109,2.1109,2.1109,2.1109,2.1109,2.1109,2.1109,2.1109,2.1109,2.1109,2.1109,2.1334,2.2368,2.271,2.3292,2.5197,2.5125,2.4922,2.5822,2.6002,2.6362,2.7496,2.8357,0.0,0.0,0.0,0.0,2.6753,2.6304,2.6308,2.6823,2.6738,2.716,2.834,2.8373,2.806,2.7502,2.7334,2.6638,2.5169,2.5868,2.5776,0.0,0.0,0.0,2.4599,0.0,2.4599,2.4599,2.4599,2.4599,2.4599,2.4599,2.4599,2.4599,2.4599,2.4599,2.4599,2.4599,2.4599,2.4599,2.4599,2.4599,2.4599,2.4599,2.4599,2.4599,1.3661,1.3539,1.3195,1.2482,1.1521,1.0632,0.9987,1.0254,1.1019,1.2386,1.4827,1.6764,1.7653,1.8569,1.9104,1.9104,1.9104,1.9104,1.9104,1.9104,1.9104,1.9104,1.9104,1.9104,1.9104,1.9104,1.9993,2.1766,2.1997,0.0,0.0,2.4989,2.4989,2.4733,2.3951,2.36,2.3478,0.0,2.1459,2.1815,2.1012,2.0856,2.1109,2.1109,2.1109,2.1109,2.1109,2.1109,2.1109,2.1109,2.1109,2.1109,2.1109,2.1109,2.1109,2.1109,2.1109,2.1109,2.1109,2.1109,2.1162,2.1435,2.1582,2.2089,2.3695,2.3256,2.2917,2.4255,2.4535,2.5076,2.6818,2.7631,0.0,0.0,0.0,0.0,0.0,2.5472,2.5585,2.5761,2.6546,2.715,2.7251,2.8073,2.8242,2.7302,2.729,2.6939,2.6143,2.6108,0.0,0.0,0.0,2.4354,2.4844,0.0,2.4599,2.4599,2.4599,2.4599,2.4599,2.4599,2.4599,2.4599,2.4599,2.4599,2.4599,2.4599,2.4599,2.4599,2.4599,2.4599,2.4599,2.4599,2.4599,2.4599,1.2694,1.2535,1.2246,1.1397,1.0564,0.9987,0.9902,1.0904,1.1919,1.2677,1.4377,1.614,1.7806,1.8644,1.9104,1.9104,1.9104,1.9104,1.9104,1.9104,1.9104,1.9104,1.9104,1.9104,1.9104,1.9104,1.9636,2.0734,2.1661,2.2662,0.0,2.4684,2.4588,2.3746,2.3651,0.0,0.0,2.1641,2.139,2.1181,2.1091,2.1077,2.1109,2.1109,2.1109,2.1109,2.1109,2.1109,2.1109,2.1109,2.1109,2.1109,2.1109,2.1109,2.1109,2.1109,2.1109,2.1109,2.1109,2.1109,2.1122,2.1149,2.155,2.203,2.2215,2.2566,2.2901,2.3051,2.3099,2.3523,2.4985,2.4293,2.388,0.0,0.0,0.0,0.0,2.3388,2.3821,2.4574,2.4946,2.5334,2.5775,2.618,2.6239,2.583,2.6944,2.7211,2.6158,0.0,0.0,2.4953,2.5134,2.5391,2.569,2.4968,2.4599,2.4599,2.4599,2.4599,2.4599,2.4599,2.4599,2.4599,2.4599,2.4599,2.4599,2.4599,2.4599,2.4599,2.4599,2.4599,2.4599,2.4599,2.4599,2.4599,1.1893,1.172,1.1413,1.0674,1.0182,0.9739,0.9195,1.0993,1.2635,1.3316,1.5121,1.6958,1.8483,1.8912,1.9104,1.9104,1.9104,1.9104,1.9104,1.9104,1.9104,1.9104,1.9104,1.9104,1.9104,1.9104,1.9591,2.0598,2.1615,2.2615,0.0,0.0,0.0,0.0,0.0,2.1731,2.1569,2.0959,2.0834,2.1109,2.1109,2.1109,2.1109,2.1109,2.1109,2.1109,2.1109,2.1109,2.1109,2.1109,2.1109,2.1109,2.1109,2.1109,2.1109,2.1109,2.1109,2.1109,2.1109,2.1109,2.1109,2.1109,2.1416,2.181,2.1951,2.2298,2.2645,2.2853,2.2893,2.3071,2.3626,2.397,2.4052,0.0,0.0,0.0,0.0,2.3,2.3184,2.3495,2.4205,2.4728,2.4913,2.5638,2.6123,2.6146,2.6502,2.6557,2.6108,0.0,0.0,2.5177,0.0,2.4661,2.5065,2.4747,2.4599,2.4599,2.4599,2.4599,2.4599,2.4599,2.4599,2.4599,2.4599,2.4599,2.4599,2.4599,2.4599,2.4599,2.4599,2.4599,2.4599,2.4599,2.4599,2.4599,1.1041,1.0881,1.0534,0.9838,0.9602,0.9407,0.9105,1.1186,1.3152,1.4125,1.6041,1.7744,1.8976,1.9104,1.9104,1.9104,1.9104,1.9104,1.9104,1.9104,1.9104,1.9104,1.9104,1.9104,1.9104,1.9104,1.9458,2.0147,2.1156,0.0,0.0,0.0,0.0,0.0,2.1026,2.0883,2.1127,2.0502,2.0583,2.1109,2.1109,2.1109,2.1109,2.1109,2.1109,2.1109,2.1109,2.1109,2.1109,2.1109,2.1109,2.1109,2.1109,2.1109,2.1109,2.1109,2.1109,2.1109,2.1109,2.1109,2.1109,2.1109,2.1368,2.1662,2.1957,2.2205,2.2498,2.284,2.2893,2.2893,2.2893,2.3708,2.4052,2.3071,0.0,0.0,0.0,2.2974,2.3096,2.3337,2.4129,2.4553,2.4371,2.5111,2.567,2.5751,2.5388,2.5345,2.5743,0.0,0.0,0.0,0.0,0.0,2.4954,2.471,2.4599,2.4599,2.4599,2.4599,2.4599,2.4599,2.4599,2.4599,2.4599,2.4599,2.4599,2.4599,2.4599,2.4599,2.4599,2.4599,2.4599,2.4599,2.4599,2.4599,1.0071,0.9902,0.9653,0.8767,0.8617,0.8984,1.0008,1.1681,1.3414,1.5154,1.6883,1.8258,1.9008,1.9104,1.9104,1.9104,1.9104,1.9104,1.9104,1.9104,1.9104,1.9104,1.9104,1.9104,1.9104,1.9104,1.9104,1.9116,2.0115,0.0,2.0643,0.0,2.1569,2.063,2.0935,2.0728,2.0138,2.0456,2.0792,2.1109,2.1109,2.1109,2.1109,2.1109,2.1109,2.1109,2.1109,2.1109,2.1109,2.1109,2.1109,2.1109,2.1109,2.1109,2.1109,2.1109,2.1109,2.1109,2.1109,2.1109,2.1109,2.1109,2.1368,2.1662,2.1957,2.2205,2.2498,2.284,2.2893,2.2893,2.2893,2.2893,2.2928,2.2893,0.0,0.0,0.0,2.3126,2.3593,2.4379,2.4729,2.4673,2.4056,2.4315,2.4371,2.4028,2.3352,2.3507,0.0,0.0,0.0,2.4911,2.5219,0.0,2.58,2.4991,2.4599,2.4599,2.4599,2.4599,2.4599,2.4599,2.4599,2.4599,2.4599,2.4599,2.4599,2.4599,2.4599,2.4599,2.4599,2.4599,2.4599,2.4599,2.4599,2.4599,0.9053,0.9026,0.8938,0.8645,0.9217,0.9809,1.014,1.2701,1.4763,1.5316,1.7378,1.8848,1.9072,1.9104,1.9104,1.9104,1.9104,1.9104,1.9104,1.9104,1.9104,1.9104,1.9104,1.9104,1.9104,1.9104,1.9104,1.9104,0.0,0.0,0.0,2.0928,2.0553,1.9579,1.9932,2.0087,2.0106,2.0456,2.0792,2.1109,2.1109,2.1109,2.1109,2.1109,2.1109,2.1109,2.1109,2.1109,2.1109,2.1109,2.1109,2.1109,2.1109,2.1109,2.1109,2.1109,2.1109,2.1109,2.1109,2.1109,2.1109,2.1109,2.1483,2.1903,2.1964,2.2365,2.2786,2.288,2.2893,2.2893,2.2893,2.2893,2.2893,2.2893,2.2893,0.0,2.2893,0.0,2.311,2.3385,2.3466,2.3453,2.3263,2.3365,2.3749,2.4568,2.4226,2.4476,0.0,0.0,0.0,0.0,2.4635,0.0,2.4991,2.4747,2.4599,2.4599,2.4599,2.4599,2.4599,2.4599,2.4599,2.4599,2.4599,2.4599,2.4599,2.4599,2.4599,2.4599,2.4599,2.4599,2.4599,2.4599,2.4599,2.4599,0.859,0.8917,0.9217,0.9217,1.0074,1.1035,1.1688,1.3849,1.5641,1.63,1.7958,1.9104,1.9104,1.9104,0.0,1.9104,1.9104,1.9104,1.9104,1.9104,1.9104,1.9104,1.9104,1.9104,1.9104,1.9104,0.0,1.9104,1.9725,2.0025,2.0025,2.0025,1.9713,1.9104,1.9584,1.9903,2.0138,2.057,2.0919,2.1109,2.1109,2.1109,2.1109,2.1109,2.1109,2.1109,2.1109,2.1109,2.1109,2.1109,2.1109,2.1109,2.1109,2.1109,2.1109,2.1109,2.1109,2.1109,2.1109,2.1109,2.1109,2.1109,2.147,2.1917,2.2098,2.2546,2.2893,2.2893,2.2893,2.2893,2.2893,2.2893,2.2893,2.2893,2.2893,2.2893,2.2893,0.0,2.3036,2.3467,2.3515,2.3515,0.0,2.3515,2.3694,2.4128,2.4087,0.0,0.0,0.0,0.0,2.4762,2.4255,0.0,2.4599,2.4599,2.4599,2.4599,2.4599,2.4599,2.4599,2.4599,2.4599,2.4599,2.4599,2.4599,2.4599,2.4599,2.4599,2.4599,2.4599,2.4599,2.4599,2.4599,2.4599,2.4599,0.8584,0.9449,1.0207,1.0207,1.12,1.2512,1.4152,1.5066,1.616,1.7808,1.8655,1.9104,1.9104,1.9104,1.9104,1.9104,0.0,0.0,1.9104,1.9104,1.9104,1.9104,1.9104,1.9104,1.9104,1.9104,1.9104,1.9104,1.9104,1.9104,1.9104,1.9104,1.9104,1.9168,1.9819,2.0106,2.017,2.0824,2.1109,2.1109,2.1109,2.1109,2.1109,2.1109,2.1109,2.1109,2.1109,2.1109,2.1109,2.1109,2.1109,2.1109,2.1109,2.1109,2.1109,2.1109,2.1109,2.1109,2.1109,2.1109,2.1109,2.1136,2.1408,2.1796,2.2325,2.2659,2.2893,2.2893,2.2893,2.2893,2.2893,2.2893,2.2907,2.292,2.2907,2.2907,2.292,2.2907,2.3276,2.4254,0.0,0.0,2.44,2.4414,2.4039,0.0,2.3249,0.0,0.0,0.0,2.4599,2.383,2.4048,2.4329,2.4599,2.4572,2.4572,2.4599,2.4599,2.4599,2.4599,2.4599,2.4599,2.4599,2.4599,2.4599,2.4599,2.4599,2.4599,2.4599,2.4599,2.4599,2.4599,2.4599,2.4599,2.4599,0.0,0.9449,1.0207,1.0207,1.2183,1.3923,1.4348,1.6106,1.7539,1.7937,1.8655,1.9104,1.9104,1.9104,1.9104,1.9104,1.9104,1.9104,1.9104,1.9104,1.9104,1.9104,1.9104,1.9104,1.9104,1.9104,1.9104,1.9104,1.9104,1.9104,1.9104,1.9104,1.9232,1.952,1.9915,2.0234,2.052,2.0919,2.1109,2.1109,2.1109,2.1109,2.1109,2.1109,2.1109,2.1109,2.1109,2.1109,2.1109,2.1109,2.1109,2.1109,2.1109,2.1109,2.1109,2.1109,2.1109,2.1109,2.1109,2.1109,2.1162,2.1422,2.1863,2.2311,2.2672,2.284,2.2893,2.2893,2.2893,2.2893,2.2893,2.2893,2.2974,2.318,2.302,2.2974,2.318,2.3041,2.2989,0.0,2.3457,2.3512,2.3303,2.3457,2.3835,0.0,0.0,2.4428,2.4886,2.5126,2.4917,2.4138,2.3991,2.4115,2.4599,2.4422,2.4422,2.4599,2.4599,2.4599,2.4599,2.4599,2.4599,2.4599,2.4599,2.4599,2.4599,2.4599,2.4599,2.4599,2.4599,2.4599,2.4599,2.4599,2.4599,2.4599,0.9123,1.0168,1.1167,1.1985,1.3792,1.5336,1.5944,1.7152,1.813,1.8451,1.8848,1.9104,1.9104,1.9104,1.9104,1.9104,1.9104,1.9104,1.9104,1.9104,1.9104,1.9104,1.9104,1.9104,1.9104,1.9104,1.9104,1.9104,1.9104,1.9104,1.9104,1.9104,1.9264,1.9616,1.9947,2.0297,2.0602,2.0951,2.1109,2.1109,2.1109,2.1109,2.1109,2.1109,2.1109,2.1109,2.1109,2.1109,2.1109,2.1109,2.1109,2.1109,2.1109,2.1109,2.1109,2.1109,2.1109,2.1109,2.1109,2.1109,2.1216,2.1676,2.1991,2.2338,2.28,2.2893,2.2893,2.2893,2.3014,2.3067,2.292,2.3121,2.3281,2.3126,2.3506,2.3651,2.3161,2.3397,2.3487,2.3142,2.322,2.3313,2.3308,2.3434,2.3771,2.4345,2.4366,0.0,2.4833,2.4847,2.4666,2.4195,2.4182,2.4315,2.4599,2.4439,2.4439,2.4599,2.4599,2.4599,2.4599,2.4599,2.4599,2.4599,2.4599,2.4599,2.4599,2.4599,2.4599,2.4599,2.4599,2.4599,2.4599,2.4599,2.4599,2.4599,0.9837,1.1257,1.2775,1.4152,1.5434,1.6678,1.784,1.8098,1.8387,1.9008,1.9104,1.9104,1.9104,1.9104,1.9104,1.9104,1.9104,1.9104,1.9104,1.9104,1.9104,1.9104,1.9104,1.9104,1.9104,1.9104,1.9104,1.9104,1.9104,1.9104,1.9104,1.9104,1.9296,1.9679,1.9979,2.0329,2.0697,2.0982,2.1109,2.1109,2.1109,2.1109,2.1109,2.1109,2.1109,2.1109,2.1109,2.1109,2.1109,2.1109,2.1109,2.1109,2.1109,2.1109,2.1109,2.1109,2.1109,2.1109,2.1109,2.1176,2.1363,2.1857,2.2091,2.2278,2.2786,2.2893,2.2907,2.296,2.314,2.326,2.3081,2.3415,2.3638,2.3334,2.4031,2.4267,2.3322,0.0,2.4025,2.3397,2.3332,2.3487,2.3777,2.3803,2.3803,2.3803,2.3915,2.4035,2.4128,2.4088,2.4115,2.4195,2.4396,2.4492,2.4532,2.4572,2.4599,2.4599,2.4599,2.4626,2.4666,2.4666,2.4666,2.4666,2.4666,2.4639,2.4599,2.4599,2.4599,2.4599,2.4599,2.4599,2.4599,2.4599,2.4599,2.4599,1.0078,1.2621,1.4763,1.4446,1.6213,1.7744,1.7969,1.8527,1.8976,1.9072,1.9104,1.9104,1.9104,1.9104,1.9104,1.9104,1.9104,1.9104,1.9104,1.9104,1.9104,1.9104,1.9104,1.9104,1.9104,1.9104,1.9104,1.9104,1.9104,1.9104,1.9104,1.9104,1.9424,2.0011,2.0074,2.0456,2.1014,2.1077,2.1109,2.1109,2.1109,2.1109,2.1109,2.1109,2.1109,2.1109,2.1109,2.1109,2.1109,2.1109,2.1109,2.1109,2.1109,2.1109,2.1109,2.1109,2.1109,2.1109,2.1109,2.147,2.1871,2.1964,2.2385,2.2786,2.288,2.2893,2.2974,2.3207,2.3265,2.3359,2.3629,2.35,2.3739,2.4844,2.3995,2.3521,2.4469,0.0,2.3205,2.33,2.3554,2.375,2.3803,2.3803,2.3803,2.3803,2.3375,2.3335,2.3843,2.3594,2.3652,2.4182,2.4008,2.4022,2.4262,2.4479,2.4599,2.4599,2.4599,2.4733,2.501,2.501,2.501,2.501,2.501,2.4863,2.4599,2.4599,2.4599,2.4599,2.4599,2.4599,2.4599,2.4599,2.4599,2.4599,1.2472,1.3975,1.5438,1.6183,1.715,1.7935,1.8316,1.8784,1.9056,1.8911,1.9019,1.9104,1.9104,1.9104,1.9104,1.9104,1.9104,1.9104,1.9104,1.9104,1.9104,1.9104,1.9104,1.9104,1.9104,1.9104,1.9104,1.9104,1.9104,1.9104,1.9104,1.9104,1.9456,2.0106,2.0106,2.0488,2.1109,2.1109,2.1109,2.1109,2.1109,2.1109,2.1109,2.1109,2.1109,2.1109,2.1109,2.1109,2.1109,2.1109,2.1109,2.1109,2.1109,2.1109,2.1109,2.1109,2.1109,2.1109,2.1109,2.143,2.1823,2.1951,2.2311,2.2672,2.2853,2.3027,2.3153,2.3265,2.3545,2.3794,2.3803,2.3915,2.4129,2.447,2.438,0.0,0.0,2.4002,2.3815,2.3362,2.3594,2.3803,2.3803,2.395,2.4008,2.4008,2.3888,2.3875,2.3995,2.4445,2.4557,2.4231,2.4419,2.4462,2.4436,2.4839,2.4999,2.4877,2.5037,2.5184,2.5304,2.5157,2.5115,2.5077,2.4917,2.4719,2.4599,2.4599,2.4599,2.4599,2.4599,2.4599,2.4599,2.4599,2.4693,2.4877,1.4483,1.5324,1.6308,1.7652,1.7889,1.8069,1.8695,1.8983,1.9032,1.8838,1.8983,1.9104,1.9104,1.9104,1.9104,1.9104,1.9104,1.9104,1.9104,1.9104,1.9104,1.9104,1.9104,1.9104,1.9104,1.9104,1.9104,1.9104,1.9104,1.9104,1.9104,1.9168,1.952,2.0106,2.017,2.0552,2.1109,2.1109,2.1109,2.1109,2.1109,2.1109,2.1109,2.1109,2.1109,2.1109,2.1109,2.1109,2.1109,2.1109,2.1109,2.1109,2.1109,2.1109,2.1109,2.1109,2.1162,2.1216,2.1216,2.1462,2.1756,2.2017,2.2365,2.2686,2.2913,2.3207,2.3412,2.3514,2.3888,2.4155,2.3995,2.4275,2.4419,2.4192,0.0,0.0,0.0,2.4243,2.4361,2.3589,2.3674,2.383,2.3897,2.4008,2.4246,2.4593,2.4484,2.4475,2.4593,2.513,2.5051,2.4231,2.4703,2.4903,2.4706,2.5184,2.5331,2.5184,2.5411,2.5545,2.5611,2.5317,2.5184,2.5157,2.4863,2.4666,2.4599,2.4599,2.4599,2.4599,2.4599,2.4599,2.4599,2.4599,2.4746,2.497,1.4575,1.6602,1.8278,1.7722,1.8183,1.8739,1.9012,1.9092,1.9104,1.908,1.9092,1.9104,1.9104,1.9104,1.9104,1.9104,1.9104,1.9104,1.9104,1.9104,1.9104,1.9104,1.9104,1.9104,1.9104,1.9104,1.9104,1.9104,1.9104,1.9104,1.9104,1.9424,1.9775,2.0106,2.0425,2.0761,2.1109,2.1109,2.1109,2.1109,2.1109,2.1109,2.1109,2.1109,2.1109,2.1109,2.1109,2.1109,2.1109,2.1109,2.1109,2.1109,2.1109,2.1109,2.1109,2.1109,2.1309,2.1555,2.1555,2.177,2.2017,2.2311,2.2832,2.3225,2.3252,2.3527,2.3808,2.4088,2.4168,2.4275,2.4492,2.4382,2.4476,2.518,0.0,0.0,2.472,2.4238,2.3933,2.4115,2.3928,2.391,2.4142,2.3941,2.4386,2.5743,2.4613,2.4435,2.5813,2.4628,2.4044,2.4195,2.4466,2.4759,2.5037,2.5128,2.5237,2.5478,2.5504,2.5651,2.5957,2.5611,2.5478,2.5464,2.517,2.489,2.4599,2.4599,2.4599,2.4599,2.4599,2.4599,2.4599,2.4599,2.4613,2.4639,1.654,1.7458,1.8226,1.8281,1.8397,1.8529,1.8826,1.9007,1.9044,1.8886,1.9007,1.9104,1.9104,1.9104,1.9104,1.9104,1.9104,1.9104,1.9104,1.9104,1.9104,1.9104,1.9104,1.9104,1.9104,1.9104,1.9104,1.9104,1.9104,1.92,1.9424,1.9539,1.9903,2.0425,2.0539,2.0792,2.1109,2.1109,2.1109,2.1109,2.1109,2.1109,2.1109,2.1109,2.1109,2.1109,2.1109,2.1109,2.1109,2.1109,2.1109,2.1109,2.1109,2.1229,2.1448,2.1603,2.177,2.189,2.2044,2.2164,2.2285,2.2358,2.2838,2.3292,2.3292,2.3701,2.4075,2.4182,2.4342,2.4466,2.4572,2.4506,2.4549,2.4865,0.0,2.4143,2.4431,2.4089,2.3741,2.3661,2.3567,2.3541,2.3612,2.3728,2.4616,2.653,2.6085,2.6013,2.6631,2.5016,2.5256,2.7889,2.696,2.5987,2.5115,2.5663,2.5852,2.5824,2.5972,2.6119,2.6252,2.5919,2.5692,2.5504,2.5211,2.4917,2.4599,2.4599,2.4599,2.4599,2.4599,2.4599,2.4599,2.4599,2.4599,2.4626,1.7709,1.7847,1.8052,1.8512,1.8336,1.8312,1.8778,1.8923,1.8947,1.885,1.8995,1.9104,1.9104,1.9104,1.9104,1.9104,1.9104,1.9104,1.9104,1.9104,1.9104,1.9104,1.9104,1.9104,1.9104,1.9104,1.9104,1.9104,1.92,1.936,1.9603,1.9839,2.0157,2.0602,2.0697,2.0887,2.1109,2.1109,2.1109,2.1109,2.1109,2.1109,2.1109,2.1109,2.1109,2.1109,2.1109,2.1109,2.1109,2.1109,2.1176,2.1256,2.1256,2.1489,2.1783,2.2031,2.2124,2.2191,2.2485,2.2565,2.2565,2.2565,2.2953,2.3292,2.3292,2.3781,2.4209,2.4209,2.4399,2.4599,2.4599,2.4599,2.4572,2.4479,2.4372,2.4275,2.4088,2.3981,2.3794,2.35,2.3345,2.3359,2.3545,2.4279,2.559,2.7792,2.7852,2.7762,2.7572,2.62,2.6732,2.9692,2.8509,2.7482,2.6725,2.7462,2.776,2.766,2.7326,2.7201,2.7148,2.6352,2.5877,2.5638,2.5251,2.497,2.4733,2.4639,2.4599,2.4599,2.4599,2.4599,2.4613,2.4706,2.4783,2.4759,1.7569,1.7726,1.7992,1.8239,1.8088,1.8173,1.8983,1.8886,1.8814,1.908,1.9104,1.9104,1.9104,1.9104,1.9104,1.9104,1.9104,1.9104,1.9104,1.9104,1.9104,1.9104,1.9104,1.9104,1.9104,1.9104,1.9104,1.9104,1.9456,1.9603,1.9603,2.0284,2.0602,2.0602,2.0951,2.1109,2.1109,2.1109,2.1109,2.1109,2.1109,2.1109,2.1109,2.1109,2.1109,2.1109,2.1109,2.1109,2.1109,2.1109,2.1309,2.1582,2.1582,2.1796,2.2044,2.2338,2.2385,2.2485,2.2813,2.2893,2.2893,2.2893,2.31,2.3292,2.3292,2.3781,2.4209,2.4209,2.4399,2.4599,2.4586,2.4599,2.4506,2.4249,2.4412,2.4399,2.3884,2.4022,2.4088,2.3843,2.3514,2.3554,2.4142,2.5733,2.7547,2.9674,2.9831,2.9477,2.8671,2.8237,2.8205,2.8608,2.8569,2.9111,3.0341,3.0691,3.1026,3.1261,2.9696,2.8895,2.8842,2.6898,2.5998,2.5957,2.5382,2.5077,2.5064,2.4756,2.4599,2.4599,2.4599,2.4599,2.4639,2.497,2.5115,2.5037,1.7532,1.7569,1.7744,1.8215,1.8227,1.8403,1.9007,1.9044,1.9019,1.9092,1.9104,1.9104,1.9104,1.9104,1.9104,1.9104,1.9104,1.9104,1.9104,1.9104,1.9104,1.9104,1.9104,1.9104,1.9104,1.9104,1.9104,1.9104,1.9456,1.9711,1.9979,2.038,2.0729,2.0951,2.1046,2.1109,2.1109,2.1109,2.1109,2.1109,2.1109,2.1109,2.1109,2.1109,2.1109,2.1109,2.1109,2.1109,2.1149,2.1381,2.1515,2.1662,2.2031,2.2218,2.2352,2.2645,2.276,2.2786,2.2867,2.302,2.314,2.2947,2.3295,2.3634,2.3634,2.4088,2.4412,2.4249,2.4275,2.4275,2.4062,2.4195,2.4302,2.4222,2.4275,2.4275,2.4102,2.3794,2.3634,2.379,2.3514,2.408,2.6033,2.6685,2.8458,3.2003,3.1731,3.1517,3.1806,2.9662,2.9357,3.135,3.0889,3.1296,3.2755,3.117,3.0652,3.13,3.08,3.0006,2.8895,2.8302,2.729,2.5971,2.5558,2.5264,2.5064,2.4756,2.4599,2.4599,2.4599,2.4599,2.4639,2.497,2.4823,2.4516,1.7508,1.7508,1.7689,1.8203,1.8203,1.8367,1.9007,1.9019,1.8995,1.9092,1.9104,1.9104,1.9104,1.9104,1.9104,1.9104,1.9104,1.9104,1.9104,1.9104,1.9104,1.9104,1.9104,1.9104,1.9104,1.9104,1.9168,1.9296,1.9616,1.9966,2.0297,2.0634,2.0919,2.1109,2.1109,2.1109,2.1109,2.1109,2.1109,2.1109,2.1109,2.1109,2.1109,2.1109,2.1109,2.1109,2.1109,2.1189,2.1341,2.1529,2.1743,2.201,2.2445,2.2592,2.2632,2.284,2.2987,2.3046,2.3046,2.318,2.3278,2.3268,2.3536,2.3803,2.3803,2.4128,2.4422,2.4235,2.4289,2.4329,2.4142,2.4262,2.4369,2.4369,2.4275,2.4209,2.4209,2.3701,2.3434,2.3763,2.4194,2.5194,2.7064,2.8535,3.0669,3.3754,3.309,3.2645,3.2942,3.0888,3.0511,3.2301,3.193,3.2306,3.3544,3.2222,3.2053,3.3003,3.2361,3.1287,2.9797,2.9058,2.7728,2.5971,2.5518,2.5237,2.5064,2.4756,2.4599,2.4599,2.4599,2.4532,2.4516,2.493,2.4783,2.4409,1.7508,1.7532,1.7702,1.8167,1.8113,1.8221,1.8959,1.8886,1.8807,1.908,1.9104,1.9104,1.9104,1.9104,1.9104,1.9104,1.9104,1.9104,1.9104,1.9104,1.9104,1.9104,1.9104,1.9104,1.9136,1.9136,1.9296,1.9603,1.9979,2.0297,2.0615,2.0951,2.1109,2.1109,2.1109,2.1109,2.1109,2.1109,2.1109,2.1109,2.1109,2.1109,2.1109,2.1109,2.1109,2.1109,2.1136,2.1355,2.1628,2.1649,2.2037,2.2512,2.2813,2.2893,2.2893,2.2893,2.3086,2.3278,2.3252,2.3292,2.3434,2.3701,2.383,2.3843,2.3843,2.4035,2.4235,2.4209,2.4372,2.4559,2.4532,2.4519,2.4519,2.4519,2.4342,2.4168,2.4168,2.3807,2.3685,2.4017,2.5469,2.681,2.782,3.1084,3.3619,3.4809,3.3855,3.3049,3.2625,3.1854,3.1616,3.2001,3.2001,3.2368,3.3067,3.3541,3.4331,3.5522,3.4091,3.2755,3.1437,2.9503,2.7707,2.615,2.5393,2.5088,2.4983,2.4743,2.4586,2.4559,2.4559,2.4436,2.4275,2.481,2.4836,2.4519,1.7508,1.7677,1.7859,1.798,1.8294,1.8596,1.8778,1.8923,1.9044,1.9104,1.9104,1.9104,1.9104,1.9104,1.9104,1.9104,1.9104,1.9104,1.9104,1.9104,1.9104,1.9104,1.9104,1.9232,1.9488,1.9475,1.952,1.9603,2.0189,2.052,2.0615,2.0951,2.1109,2.1109,2.1109,2.1109,2.1109,2.1109,2.1109,2.1109,2.1109,2.1109,2.1109,2.1109,2.1109,2.1136,2.1408,2.1529,2.1649,2.2071,2.2472,2.2813,2.288,2.2893,2.2893,2.2893,2.3086,2.3238,2.3033,2.3348,2.3723,2.379,2.3977,2.4115,2.4115,2.4329,2.4439,2.4249,2.4249,2.4222,2.3995,2.3955,2.3955,2.3955,2.3901,2.3897,2.3897,2.4777,2.5517,2.5883,2.7281,2.8991,3.0929,3.3491,3.4758,3.4112,3.3835,3.3376,3.2625,3.2129,3.1909,3.2001,3.2001,3.2093,3.2276,3.2957,3.3928,3.5119,3.5103,3.4431,3.3167,3.1253,2.9329,2.7463,2.5828,2.4823,2.4409,2.4532,2.4466,2.4302,2.4302,2.4262,2.4222,2.4342,2.4356,2.4289,1.7508,1.7617,1.7762,1.7883,1.8246,1.8541,1.8662,1.8935,1.9104,1.9104,1.9104,1.9104,1.9104,1.9104,1.9104,1.9104,1.9104,1.9104,1.9104,1.9104,1.9104,1.9104,1.9264,1.9424,1.9603,1.9903,2.0094,2.0094,2.0412,2.0666,2.0824,2.1014,2.1109,2.1109,2.1109,2.1109,2.1109,2.1109,2.1109,2.1109,2.1109,2.1109,2.1109,2.1109,2.1109,2.1149,2.1475,2.1756,2.2064,2.2485,2.2773,2.2893,2.2893,2.2893,2.2893,2.2893,2.3086,2.3292,2.3335,2.3562,2.387,2.4115,2.4195,2.4235,2.4382,2.4492,2.4559,2.4399,2.4302,2.4155,2.4008,2.3981,2.3981,2.3981,2.3981,2.4219,2.4907,2.5568,2.6378,2.7378,2.9084,3.1032,3.3267,3.4595,3.4954,3.4147,3.3743,3.3266,3.2625,3.2038,3.1708,3.1708,3.2093,3.2203,3.2001,3.301,3.3782,3.4423,3.5211,3.486,3.3477,3.2321,3.0288,2.7656,2.6461,2.5341,2.4372,2.4386,2.4342,2.4195,2.4048,2.3915,2.3808,2.3941,2.3901,2.3781,1.7508,1.7544,1.7653,1.7859,1.8173,1.8432,1.8681,1.8935,1.9104,1.9104,1.9104,1.9104,1.9104,1.9104,1.9104,1.9104,1.9104,1.9104,1.9104,1.9136,1.92,1.92,1.952,1.9711,1.9775,2.0316,2.0602,2.0602,2.0679,2.0824,2.1109,2.1109,2.1109,2.1109,2.1109,2.1109,2.1109,2.1109,2.1109,2.1109,2.1109,2.1109,2.1109,2.1109,2.1109,2.1149,2.1542,2.2037,2.2539,2.2813,2.2893,2.2893,2.2893,2.2893,2.2893,2.2893,2.3086,2.3345,2.3621,2.3763,2.3924,2.4332,2.4302,2.4195,2.4399,2.4492,2.4519,2.4466,2.4302,2.4128,2.4128,2.4088,2.4048,2.4048,2.4264,2.4839,2.6069,2.6587,2.7415,2.8918,3.0863,3.2773,3.4609,3.4918,3.4734,3.4147,3.3688,3.312,3.2423,3.1873,3.1561,3.1488,3.2203,3.2441,3.2111,3.3248,3.3853,3.3927,3.5009,3.481,3.3487,3.287,3.084,2.7688,2.7166,2.5957,2.4372,2.4315,2.4222,2.4102,2.3897,2.3621,2.342,2.3621,2.3541,2.3305,1.7508,1.7689,1.7859,1.7895,1.833,1.8669,1.8674,1.8935,1.9104,1.9104,1.9104,1.9104,1.9104,1.9104,1.9104,1.9104,1.9104,1.9104,1.9104,1.936,1.952,1.952,1.9839,2.017,2.0443,2.0539,2.0602,2.0602,2.0887,2.1046,2.1109,2.1109,2.1109,2.1109,2.1109,2.1109,2.1109,2.1109,2.1109,2.1109,2.1109,2.1109,2.1109,2.1109,2.1109,2.1176,2.1737,2.2331,2.284,2.288,2.2893,2.2893,2.2893,2.2893,2.2893,2.2893,2.3086,2.3305,2.338,2.3581,2.383,2.391,2.3897,2.387,2.391,2.4075,2.4195,2.3977,2.3897,2.387,2.387,2.3621,2.3412,2.3412,2.4421,2.5432,2.5974,2.8456,3.0455,3.1037,3.2508,3.3645,3.3928,3.4588,3.4386,3.2955,3.3707,3.345,3.1667,3.2111,3.2276,3.1928,3.2368,3.257,3.2514,3.3376,3.3982,3.433,3.4826,3.4956,3.4685,3.2979,3.1076,2.9062,2.7535,2.5589,2.3519,2.4239,2.4289,2.3857,2.3817,2.3777,2.3688,2.3474,2.3332,2.3359,1.7508,1.7605,1.7726,1.7883,1.8234,1.8517,1.8693,1.8935,1.9104,1.9104,1.9104,1.9104,1.9104,1.9104,1.9104,1.9104,1.9104,1.9168,1.936,1.9507,1.9679,1.9871,2.0189,2.0456,2.0602,2.0761,2.0887,2.0887,2.1014,2.1109,2.1109,2.1109,2.1109,2.1109,2.1109,2.1109,2.1109,2.1109,2.1109,2.1109,2.1109,2.1109,2.1109,2.1109,2.1109,2.1189,2.1777,2.2398,2.2893,2.2893,2.2893,2.2893,2.2893,2.2893,2.2893,2.2893,2.3086,2.3332,2.3527,2.3794,2.4008,2.4008,2.4008,2.3928,2.3594,2.3621,2.3728,2.3803,2.3634,2.3581,2.3777,2.3661,2.3904,2.4925,2.5718,2.6812,2.8506,3.0176,3.1617,3.2683,3.3182,3.3544,3.3798,3.4295,3.4202,3.3028,3.3651,3.3486,3.2129,3.2184,3.2294,3.2331,3.2496,3.2716,3.2955,3.3303,3.3798,3.4403,3.4112,3.435,3.4973,3.3893,3.1903,2.9254,2.8501,2.6583,2.4039,2.4266,2.4155,2.379,2.3594,2.342,2.3281,2.3113,2.318,2.3332]},{"header":{"parameterUnit":"m.s-1","parameterCategory":1,"la1":30.6,"la2":28.766,"lo1":-90.7593,"lo2":-88.6598,"dy":0.0162,"dx":0.0183,"nx":116,"ny":114,"refTime":"2023-05-30T12:00:00:Z","depth":0,"parameterNumber":3,"parameterNumberName":"V-component_of_WINDS"},"data":[0.0,0.0,0.0,0.0,0.0,0.0,0.0,0.0,0.0,0.0,0.0,0.0,0.0,0.0,0.0,0.0,0.0,0.0,0.0,0.0,0.0,0.0,0.0,0.0,0.0,0.0,0.0,0.0,0.0,0.0,0.0,0.0,0.0,0.0,0.0,0.0,0.0,0.0,0.0,0.0,0.0,0.0,0.0,0.0,0.0,0.0,0.0,0.0,0.0,0.0,0.0,0.0,0.0,0.0,0.0,0.0,0.0,0.0,0.0,0.0,0.0,0.0,0.0,0.0,0.0,0.0,0.0,0.0,0.0,0.0,0.0,0.0,0.0,0.0,0.0,0.0,0.0,0.0,0.0,0.0,0.0,0.0,0.0,0.0,0.0,0.0,0.0,0.0,0.0,0.0,0.0,0.0,0.0,0.0,0.0,0.0,0.0,0.0,0.0,0.0,0.0,0.0,0.0,0.0,0.0,0.0,0.0,0.0,0.0,0.0,0.0,0.0,0.0,0.0,0.0,0.0,0.0,0.0,0.0,0.0,0.0,0.0,0.0,0.0,0.0,0.0,0.0,0.0,0.0,0.0,0.0,0.0,0.0,0.0,0.0,0.0,0.0,0.0,0.0,0.0,0.0,0.0,0.0,0.0,0.0,0.0,0.0,0.0,0.0,0.0,0.0,0.0,0.0,0.0,0.0,0.0,0.0,0.0,0.0,0.0,0.0,0.0,0.0,0.0,0.0,0.0,0.0,0.0,0.0,0.0,0.0,0.0,0.0,0.0,0.0,0.0,0.0,0.0,0.0,0.0,0.0,0.0,0.0,0.0,0.0,0.0,0.0,0.0,0.0,0.0,0.0,0.0,0.0,0.0,0.0,0.0,0.0,0.0,0.0,0.0,0.0,0.0,0.0,0.0,0.0,0.0,0.0,0.0,0.0,0.0,0.0,0.0,0.0,0.0,0.0,0.0,0.0,0.0,0.0,0.0,0.0,0.0,0.0,0.0,0.0,0.0,0.0,0.0,0.0,0.0,0.0,0.0,0.0,0.0,0.0,0.0,0.0,0.0,0.0,0.0,0.0,0.0,0.0,0.0,0.0,0.0,0.0,0.0,0.0,0.0,0.0,0.0,0.0,0.0,0.0,0.0,0.0,0.0,0.0,0.0,0.0,0.0,0.0,0.0,0.0,0.0,0.0,0.0,0.0,0.0,0.0,0.0,0.0,0.0,0.0,0.0,0.0,0.0,0.0,0.0,0.0,0.0,0.0,0.0,0.0,0.0,0.0,0.0,0.0,0.0,0.0,0.0,0.0,0.0,0.0,0.0,0.0,0.0,0.0,0.0,0.0,0.0,0.0,0.0,0.0,0.0,0.0,0.0,0.0,0.0,0.0,0.0,0.0,0.0,0.0,0.0,0.0,0.0,0.0,0.0,0.0,0.0,0.0,0.0,0.0,0.0,0.0,0.0,0.0,0.0,0.0,0.0,0.0,0.0,0.0,0.0,0.0,0.0,0.0,0.0,0.0,0.0,0.0,0.0,0.0,0.0,0.0,0.0,0.0,0.0,0.0,0.0,0.0,0.0,0.0,0.0,0.0,0.0,0.0,0.0,0.0,0.0,0.0,0.0,0.0,0.0,0.0,0.0,0.0,0.0,0.0,0.0,0.0,0.0,0.0,0.0,0.0,0.0,0.0,0.0,0.0,0.0,0.0,0.0,0.0,0.0,0.0,0.0,0.0,0.0,0.0,0.0,0.0,0.0,0.0,0.0,0.0,0.0,0.0,0.0,0.0,0.0,0.0,0.0,0.0,0.0,0.0,0.0,0.0,0.0,0.0,0.0,0.0,0.0,0.0,0.0,0.0,0.0,0.0,0.0,0.0,0.0,0.0,0.0,0.0,0.0,0.0,0.0,0.0,0.0,0.0,0.0,0.0,0.0,0.0,0.0,0.0,0.0,0.0,0.0,0.0,0.0,0.0,0.0,0.0,0.0,0.0,0.0,0.0,0.0,0.0,0.0,0.0,0.0,0.0,0.0,0.0,0.0,0.0,0.0,0.0,0.0,0.0,0.0,0.0,0.0,0.0,0.0,0.0,0.0,0.0,0.0,0.0,0.0,0.0,0.0,0.0,0.0,0.0,0.0,0.0,0.0,0.0,0.0,0.0,0.0,0.0,0.0,0.0,0.0,0.0,0.0,0.0,0.0,0.0,0.0,0.0,0.0,0.0,0.0,0.0,0.0,0.0,0.0,0.0,0.0,0.0,0.0,0.0,0.0,0.0,0.0,0.0,0.0,0.0,0.0,0.0,0.0,0.0,0.0,0.0,0.0,0.0,0.0,0.0,0.0,0.0,0.0,0.0,0.0,0.0,0.0,0.0,0.0,0.0,0.0,0.0,0.0,0.0,0.0,0.0,0.0,0.0,0.0,0.0,0.0,0.0,0.0,0.0,0.0,0.0,0.0,0.0,0.0,0.0,0.0,0.0,0.0,0.0,0.0,0.0,0.0,0.0,0.0,0.0,0.0,0.0,0.0,0.0,0.0,0.0,0.0,0.0,0.0,0.0,0.0,0.0,0.0,0.0,0.0,0.0,0.0,0.0,0.0,0.0,0.0,0.0,0.0,0.0,0.0,0.0,0.0,0.0,0.0,0.0,0.0,0.0,0.0,0.0,0.0,0.0,0.0,0.0,0.0,0.0,0.0,0.0,0.0,0.0,0.0,0.0,0.0,0.0,0.0,0.0,0.0,0.0,0.0,0.0,0.0,0.0,0.0,0.0,0.0,0.0,0.0,0.0,0.0,0.0,0.0,0.0,0.0,0.0,0.0,0.0,0.0,0.0,0.0,0.0,0.0,0.0,0.0,0.0,0.0,0.0,0.0,0.0,0.0,0.0,0.0,0.0,0.0,0.0,0.0,0.0,0.0,0.0,0.0,0.0,0.0,0.0,0.0,0.0,0.0,0.0,0.0,0.0,0.0,0.0,0.0,0.0,0.0,0.0,0.0,0.0,0.0,0.0,0.0,0.0,0.0,0.0,0.0,0.0,0.0,0.0,0.0,0.0,0.0,0.0,0.0,0.0,0.0,0.0,0.0,0.0,0.0,0.0,0.0,0.0,0.0,0.0,0.0,0.0,0.0,0.0,0.0,0.0,0.0,0.0,0.0,0.0,0.0,0.0,0.0,0.0,0.0,0.0,0.0,0.0,0.0,0.0,0.0,0.0,0.0,0.0,0.0,0.0,0.0,0.0,0.0,0.0,0.0,0.0,0.0,0.0,0.0,0.0,0.0,0.0,0.0,0.0,0.0,0.0,0.0,0.0,0.0,0.0,0.0,0.0,0.0,0.0,0.0,0.0,0.0,0.0,0.0,0.0,0.0,0.0,0.0,0.0,0.0,0.0,0.0,0.0,0.0,0.0,0.0,0.0,0.0,0.0,0.0,0.0,0.0,0.0,0.0,0.0,0.0,0.0,0.0,0.0,0.0,0.0,0.0,0.0,0.0,0.0,0.0,0.0,0.0,0.0,0.0,0.0,0.0,0.0,0.0,0.0,0.0,0.0,0.0,0.0,0.0,0.0,0.0,0.0,0.0,0.0,0.0,0.0,0.0,0.0,0.0,0.0,0.0,0.0,0.0,0.0,0.0,0.0,0.0,0.0,0.0,0.0,0.0,0.0,0.0,0.0,0.0,0.0,0.0,0.0,0.0,0.0,0.0,0.0,0.0,0.0,0.0,0.0,0.0,0.0,0.0,0.0,0.0,0.0,0.0,0.0,0.0,0.0,0.0,0.0,0.0,0.0,0.0,0.0,0.0,0.0,0.0,0.0,0.0,0.0,0.0,0.0,0.0,0.0,0.0,0.0,0.0,0.0,0.0,0.0,0.0,0.0,0.0,0.0,0.0,0.0,0.0,0.0,0.0,0.0,0.0,0.0,0.0,0.0,0.0,0.0,0.0,0.0,0.0,0.0,0.0,0.0,0.0,0.0,0.0,0.0,0.0,0.0,0.0,0.0,0.0,0.0,0.0,0.0,0.0,0.0,0.0,0.0,0.0,0.0,0.0,0.0,0.0,0.0,0.0,0.0,0.0,0.0,0.0,0.0,0.0,0.0,0.0,0.0,0.0,0.0,0.0,0.0,0.0,0.0,0.0,0.0,0.0,0.0,0.0,0.0,0.0,0.0,0.0,0.0,0.0,0.0,0.0,0.0,0.0,0.0,0.0,0.0,0.0,0.0,0.0,0.0,0.0,0.0,0.0,0.0,0.0,0.0,0.0,0.0,0.0,0.0,0.0,0.0,0.0,0.0,0.0,0.0,0.0,0.0,0.0,0.0,0.0,0.0,0.0,0.0,0.0,0.0,0.0,0.0,0.0,0.0,0.0,0.0,0.0,0.0,0.0,0.0,0.0,0.0,0.0,0.0,0.0,0.0,0.0,0.0,0.0,0.0,0.0,0.0,0.0,0.0,0.0,0.0,0.0,0.0,0.0,0.0,0.0,0.0,0.0,0.0,0.0,0.0,0.0,0.0,0.0,0.0,0.0,0.0,0.0,0.0,0.0,0.0,0.0,0.0,0.0,0.0,0.0,0.0,0.0,0.0,0.0,0.0,0.0,0.0,0.0,0.0,0.0,0.0,0.0,0.0,0.0,0.0,0.0,0.0,0.0,0.0,0.0,0.0,0.0,0.0,0.0,0.0,0.0,0.0,0.0,0.0,0.0,0.0,0.0,0.0,0.0,0.0,0.0,0.0,0.0,0.0,0.0,0.0,0.0,0.0,0.0,0.0,0.0,0.0,0.0,0.0,0.0,0.0,0.0,0.0,0.0,0.0,0.0,0.0,0.0,0.0,0.0,0.0,0.0,0.0,0.0,0.0,0.0,0.0,0.0,0.0,0.0,0.0,0.0,0.0,0.0,0.0,0.0,0.0,0.0,0.0,0.0,0.0,0.0,0.0,0.0,0.0,0.0,0.0,0.0,0.0,0.0,0.0,0.0,0.0,0.0,0.0,0.0,0.0,0.0,0.0,0.0,0.0,0.0,0.0,0.0,0.0,0.0,0.0,0.0,0.0,0.0,0.0,0.0,0.0,0.0,0.0,0.0,0.0,0.0,0.0,0.0,0.0,0.0,0.0,0.0,0.0,0.0,0.0,0.0,0.0,0.0,0.0,0.0,0.0,0.0,0.0,0.0,0.0,0.0,0.0,0.0,0.0,0.0,0.0,0.0,0.0,0.0,0.0,0.0,0.0,0.0,0.0,0.0,0.0,0.0,0.0,0.0,0.0,0.0,0.0,0.0,0.0,0.0,0.0,0.0,0.0,0.0,0.0,0.0,0.0,0.0,0.0,0.0,0.0,0.0,0.0,0.0,0.0,0.0,0.0,0.0,0.0,0.0,0.0,0.0,0.0,0.0,0.0,0.0,0.0,0.0,0.0,0.0,0.0,0.0,0.0,0.0,0.0,0.0,0.0,0.0,0.0,0.0,0.0,0.0,0.0,0.0,0.0,0.0,0.0,0.0,0.0,0.0,0.0,0.0,0.0,0.0,0.0,0.0,0.0,0.0,0.0,0.0,0.0,0.0,0.0,0.0,0.0,0.0,0.0,0.0,0.0,0.0,0.0,0.0,0.0,0.0,0.0,0.0,0.0,0.0,0.0,0.0,0.0,0.0,0.0,0.0,0.0,0.0,0.0,0.0,0.0,0.0,0.0,0.0,0.0,0.0,0.0,0.0,0.0,0.0,0.0,0.0,0.0,0.0,0.0,0.0,0.0,0.0,0.0,0.0,0.0,0.0,0.0,0.0,0.0,0.0,0.0,0.0,0.0,0.0,0.0,0.0,0.0,0.0,0.0,0.0,0.0,0.0,0.0,0.0,0.0,0.0,0.0,0.0,0.0,0.0,0.0,0.0,0.0,0.0,0.0,0.0,0.0,0.0,0.0,0.0,0.0,0.0,0.0,0.0,0.0,0.0,0.0,0.0,0.0,0.0,0.0,0.0,0.0,0.0,0.0,0.0,0.0,0.0,0.0,0.0,0.0,0.0,0.0,0.0,0.0,0.0,0.0,0.0,0.0,0.0,0.0,0.0,0.0,0.0,0.0,0.0,0.0,0.0,0.0,0.0,0.0,0.0,0.0,0.0,4.9058,4.7905,0.0,0.0,0.0,0.0,0.0,0.0,0.0,0.0,0.0,0.0,0.0,0.0,0.0,0.0,0.0,0.0,0.0,0.0,0.0,0.0,0.0,0.0,0.0,0.0,0.0,0.0,0.0,0.0,0.0,0.0,0.0,0.0,0.0,0.0,0.0,0.0,0.0,3.8367,3.8661,3.914,3.9725,3.8548,3.7855,3.7589,0.0,0.0,0.0,0.0,0.0,0.0,0.0,0.0,0.0,0.0,0.0,0.0,0.0,0.0,0.0,0.0,0.0,0.0,0.0,0.0,0.0,0.0,0.0,0.0,0.0,0.0,0.0,0.0,0.0,0.0,0.0,0.0,0.0,0.0,0.0,0.0,0.0,0.0,0.0,0.0,0.0,0.0,0.0,0.0,0.0,0.0,0.0,0.0,0.0,0.0,0.0,0.0,0.0,0.0,0.0,0.0,0.0,0.0,0.0,0.0,0.0,0.0,0.0,0.0,0.0,0.0,0.0,0.0,0.0,0.0,5.078,4.9854,0.0,0.0,0.0,0.0,0.0,0.0,0.0,0.0,0.0,0.0,0.0,0.0,0.0,0.0,0.0,0.0,0.0,0.0,0.0,0.0,0.0,0.0,0.0,4.0652,4.1127,4.1172,4.1171,4.1131,0.0,0.0,0.0,0.0,0.0,0.0,3.9824,3.9844,3.9552,3.8898,3.965,4.0288,4.0789,4.0789,4.0521,4.0026,3.9125,0.0,0.0,0.0,0.0,0.0,0.0,0.0,0.0,0.0,0.0,0.0,0.0,0.0,0.0,0.0,0.0,0.0,0.0,0.0,0.0,0.0,0.0,0.0,0.0,0.0,0.0,0.0,0.0,0.0,0.0,0.0,0.0,0.0,0.0,0.0,0.0,0.0,0.0,0.0,0.0,0.0,0.0,0.0,0.0,0.0,0.0,0.0,0.0,0.0,0.0,0.0,0.0,0.0,0.0,0.0,0.0,0.0,0.0,0.0,0.0,0.0,0.0,0.0,5.3346,5.3844,5.4538,5.3649,5.3602,5.4174,5.2683,5.2139,5.2158,5.0328,0.0,0.0,0.0,0.0,0.0,0.0,0.0,0.0,0.0,0.0,0.0,0.0,0.0,0.0,0.0,0.0,0.0,0.0,0.0,0.0,4.0922,4.1048,4.1094,4.1123,4.1121,4.1074,4.1008,0.0,0.0,0.0,0.0,0.0,4.0649,4.0649,4.0845,4.1239,4.2443,4.3062,4.3141,4.3141,4.3126,4.2922,4.0892,3.9942,3.9918,0.0,0.0,0.0,0.0,0.0,0.0,0.0,0.0,0.0,0.0,0.0,0.0,0.0,0.0,0.0,0.0,0.0,0.0,0.0,0.0,0.0,0.0,0.0,0.0,0.0,0.0,0.0,0.0,0.0,0.0,0.0,0.0,0.0,0.0,0.0,0.0,0.0,0.0,0.0,0.0,0.0,4.8848,4.8726,0.0,0.0,0.0,0.0,0.0,0.0,0.0,0.0,0.0,0.0,0.0,0.0,0.0,5.2082,5.3208,5.4686,5.5497,5.5613,5.7083,5.7852,5.7929,5.7034,5.6712,5.6773,5.5787,0.0,5.2311,5.2789,0.0,0.0,0.0,0.0,0.0,0.0,0.0,0.0,0.0,0.0,0.0,0.0,0.0,0.0,0.0,0.0,0.0,0.0,0.0,0.0,0.0,4.1557,4.1836,4.1826,4.2287,4.2308,4.1755,4.1697,0.0,0.0,4.0847,4.0785,4.0754,4.1075,4.1767,4.2756,4.3316,4.3787,4.41,4.41,4.41,4.4069,4.3045,4.224,4.1579,4.1338,0.0,0.0,0.0,0.0,0.0,0.0,0.0,0.0,0.0,0.0,0.0,0.0,0.0,0.0,0.0,0.0,0.0,0.0,0.0,0.0,0.0,0.0,0.0,0.0,0.0,0.0,0.0,0.0,0.0,0.0,0.0,0.0,0.0,0.0,0.0,0.0,0.0,0.0,0.0,4.8302,4.9167,4.8344,4.8621,4.8072,0.0,0.0,0.0,0.0,0.0,0.0,0.0,0.0,0.0,5.2443,5.349,5.4494,5.5483,5.6828,5.7748,5.8247,5.8979,5.9343,5.9304,5.841,5.7748,5.7245,5.6394,5.5379,5.4347,5.3801,5.2986,5.1937,0.0,0.0,0.0,0.0,5.0118,5.0155,0.0,0.0,0.0,0.0,0.0,0.0,0.0,0.0,0.0,0.0,0.0,0.0,4.1434,4.2225,4.2692,4.2666,4.3269,4.3232,4.2268,4.2194,4.1776,4.0937,4.0804,4.0745,4.0745,4.1474,4.2435,4.3595,4.3756,4.4044,4.4482,4.4482,4.4482,4.4482,4.4482,4.4014,4.3145,4.3016,4.267,4.2231,0.0,0.0,0.0,0.0,0.0,0.0,0.0,0.0,0.0,0.0,0.0,0.0,0.0,0.0,0.0,0.0,0.0,0.0,0.0,0.0,0.0,0.0,0.0,0.0,0.0,0.0,0.0,0.0,0.0,0.0,0.0,0.0,0.0,0.0,0.0,0.0,0.0,4.9001,4.9804,4.8614,4.9633,4.9398,0.0,0.0,0.0,0.0,0.0,0.0,5.1023,5.208,5.3309,5.4719,5.5889,5.6923,5.7873,5.8771,5.9575,6.019,5.9996,5.9996,6.0151,5.9072,5.8255,5.7593,5.6704,5.6201,5.59,5.4704,5.4097,5.3818,5.261,5.2028,5.1852,5.183,5.1667,5.1556,0.0,0.0,0.0,0.0,0.0,0.0,0.0,0.0,0.0,0.0,0.0,4.2339,4.2342,4.3121,4.3552,4.3366,4.3388,4.3014,4.2074,4.2026,4.1662,4.0941,4.0848,4.0775,4.0775,4.1967,4.2889,4.3595,4.418,4.4458,4.4482,4.4482,4.4482,4.4482,4.4482,4.4465,4.4356,4.3781,4.3555,4.343,4.2245,0.0,0.0,0.0,0.0,0.0,0.0,0.0,0.0,0.0,0.0,0.0,0.0,0.0,0.0,0.0,0.0,0.0,0.0,0.0,0.0,0.0,0.0,0.0,0.0,0.0,0.0,0.0,0.0,0.0,0.0,0.0,0.0,0.0,0.0,0.0,0.0,0.0,0.0,5.1735,5.2638,0.0,0.0,0.0,0.0,5.114,5.202,5.2768,5.3303,5.4941,5.6269,5.7081,5.8241,5.9358,6.0506,6.0817,6.1002,6.1041,6.0267,6.0306,6.0963,5.9343,5.8569,5.8492,5.7593,5.6743,5.6008,5.59,5.5463,5.4823,5.4752,5.4232,5.3566,5.3514,5.2977,5.223,0.0,0.0,0.0,0.0,0.0,0.0,0.0,0.0,4.1955,4.1922,4.2682,4.3201,4.3123,4.3839,4.4273,4.4129,4.4596,4.4518,4.3613,4.3117,4.2457,4.1624,4.107,4.1173,4.2061,4.2883,4.3652,4.4317,4.4252,4.4236,4.4229,4.4071,4.4079,4.4236,4.4236,4.4354,4.4496,4.4291,4.3976,4.3576,4.3134,4.2441,0.0,0.0,0.0,0.0,0.0,0.0,0.0,0.0,0.0,0.0,0.0,0.0,0.0,0.0,0.0,0.0,0.0,0.0,0.0,0.0,0.0,0.0,0.0,0.0,0.0,0.0,0.0,0.0,0.0,0.0,0.0,0.0,0.0,0.0,0.0,0.0,0.0,5.36,5.4659,0.0,5.326,5.2628,5.246,5.2758,5.3897,5.4887,5.5655,5.6786,5.7765,5.8557,5.9345,5.9966,6.0366,6.0866,6.0847,6.0344,6.0576,5.9957,5.8676,5.9184,5.8526,5.694,5.7207,5.682,5.6008,5.6008,5.584,5.561,5.561,5.544,5.5129,5.4568,5.4173,5.3824,0.0,0.0,0.0,0.0,0.0,0.0,0.0,0.0,4.2392,4.2403,4.3391,4.4101,4.3965,4.4655,4.5058,4.4902,4.535,4.5163,4.4033,4.3504,4.2749,4.1644,4.1271,4.1736,4.3153,4.3591,4.4113,4.4776,4.4409,4.4222,4.4155,4.3994,4.3978,4.4117,4.4192,4.4347,4.4482,4.4482,4.4291,4.3888,4.3673,4.308,4.2216,0.0,0.0,0.0,0.0,0.0,0.0,0.0,0.0,0.0,0.0,0.0,0.0,0.0,0.0,0.0,0.0,0.0,0.0,0.0,0.0,0.0,0.0,0.0,0.0,0.0,0.0,0.0,0.0,0.0,0.0,0.0,0.0,0.0,0.0,5.3764,5.5787,5.5059,5.6366,5.6703,5.502,5.4801,5.4845,5.5024,5.6191,5.7103,5.7676,5.8492,5.9056,5.929,5.9885,6.0217,6.0217,6.0784,6.0847,6.0306,6.0576,5.9957,5.8599,5.9493,5.8797,5.6902,5.7482,5.7091,5.6008,5.6025,5.6033,5.6033,5.6033,5.6033,5.596,5.5145,5.4657,5.4235,0.0,0.0,0.0,0.0,0.0,0.0,4.2316,4.2473,4.2479,4.2493,4.3983,4.5034,4.4863,4.5537,4.5911,4.5638,4.5603,4.4906,4.3246,4.3134,4.2451,4.0931,4.1574,4.2597,4.3895,4.3975,4.4315,4.492,4.4615,4.4437,4.4322,4.4318,4.4237,4.4132,4.4397,4.4496,4.4496,4.4496,4.4496,4.4441,4.3863,4.3627,4.3448,0.0,0.0,0.0,0.0,0.0,0.0,0.0,0.0,0.0,0.0,0.0,0.0,0.0,0.0,0.0,0.0,0.0,0.0,0.0,0.0,0.0,0.0,0.0,0.0,0.0,0.0,0.0,0.0,0.0,0.0,0.0,0.0,0.0,5.2715,5.5107,5.6816,5.6323,5.7934,5.8437,5.6818,5.7137,5.7643,5.8209,5.8933,5.9384,5.9384,6.021,6.0248,5.9402,5.9946,6.0231,6.0231,6.079,6.1079,6.1041,6.0306,6.0306,6.1002,6.0267,5.942,5.8569,5.8569,5.7602,5.6012,5.6101,5.6117,5.6117,5.6117,5.6117,5.6005,5.5153,5.4315,5.3272,0.0,0.0,0.0,0.0,0.0,0.0,4.329,4.3879,4.4275,4.4289,4.5819,4.6597,4.5843,4.6357,4.6475,4.5749,4.5534,4.5002,4.3957,4.3953,4.3527,4.2567,4.3191,4.3741,4.4092,4.457,4.4891,4.5057,4.4675,4.4465,4.4438,4.4249,4.4234,4.4383,4.4476,4.4628,4.4802,4.4802,4.4744,4.4608,4.4349,4.3962,4.3535,0.0,0.0,0.0,0.0,0.0,0.0,0.0,0.0,0.0,0.0,0.0,0.0,0.0,0.0,0.0,0.0,0.0,0.0,0.0,0.0,0.0,0.0,0.0,0.0,0.0,0.0,0.0,0.0,0.0,0.0,0.0,5.4601,5.7399,5.6935,5.8135,5.9394,6.0271,6.0281,6.0188,6.0119,6.0244,6.0555,6.1119,6.1358,6.1472,6.1472,6.169,6.1545,6.0921,6.1304,6.1217,6.0558,6.0902,6.0809,6.0228,6.0615,6.0267,5.9304,6.0306,5.9648,5.7675,5.8334,5.765,5.6062,5.6145,5.6161,5.6161,5.6161,5.6161,5.6013,5.4576,5.3094,5.1793,0.0,0.0,0.0,0.0,0.0,0.0,4.4129,4.4644,4.5088,4.5502,4.6757,4.7378,4.6726,4.6997,4.6851,4.5854,4.5353,4.4884,4.4388,4.4056,4.375,4.3632,4.3984,4.4327,4.4632,4.5017,4.5181,4.5181,4.482,4.4612,4.4579,4.4418,4.4397,4.4506,4.463,4.4733,4.4914,4.4914,4.4865,4.4827,4.5082,4.4892,4.4477,4.5046,4.4726,4.411,4.5168,4.5232,4.5001,4.5993,0.0,0.0,0.0,0.0,0.0,0.0,0.0,0.0,0.0,0.0,0.0,0.0,0.0,0.0,0.0,0.0,0.0,0.0,0.0,0.0,0.0,0.0,0.0,0.0,5.7303,6.0032,6.1116,6.1093,6.1114,6.1565,6.1511,6.1493,6.1697,6.2022,6.2282,6.2474,6.2823,6.2861,6.2527,6.2481,6.2178,6.1523,6.146,6.1204,6.0704,6.0972,6.0886,6.0422,6.0886,6.0576,5.9691,6.0672,6.014,5.8441,5.8957,5.8203,5.6653,5.6734,5.6516,0.0,0.0,0.0,0.0,0.0,5.2349,5.1203,0.0,0.0,0.0,0.0,0.0,0.0,4.4905,4.504,4.5387,4.6324,4.7187,4.7651,4.7455,4.7512,4.712,4.6033,4.5126,4.4596,4.4599,4.3802,4.3651,4.433,4.436,4.4647,4.5293,4.5288,4.5283,4.5283,4.4992,4.4844,4.4789,4.4726,4.4637,4.4592,4.4845,4.4956,4.4956,4.4956,4.495,4.5014,4.5962,4.6112,4.5806,4.6159,4.6219,4.6207,4.6575,4.671,4.6833,4.763,0.0,0.0,0.0,0.0,0.0,0.0,0.0,0.0,0.0,0.0,0.0,0.0,0.0,0.0,0.0,0.0,0.0,0.0,0.0,0.0,0.0,0.0,0.0,0.0,6.0373,6.2491,6.4692,6.3835,6.2631,6.166,6.2124,6.2475,6.2352,6.306,6.3418,6.3145,6.3882,6.3958,6.3162,6.3071,0.0,0.0,0.0,6.0937,6.0744,6.0987,6.1118,6.1123,6.1123,6.1127,6.1137,6.1177,6.073,5.9921,5.9971,5.9022,5.7435,5.7476,5.6947,5.6089,5.6167,5.562,5.4589,5.3171,5.2011,5.1213,0.0,0.0,0.0,0.0,0.0,0.0,4.5839,4.5915,4.627,4.7133,4.804,4.832,4.7635,4.8103,4.7788,4.6191,4.5174,4.4582,4.4603,4.4363,4.4608,4.5468,4.5263,4.5217,4.5388,4.5347,4.5283,4.5283,4.524,4.5208,4.5197,4.5186,4.5175,4.517,4.5203,4.5213,4.5213,4.5213,4.5159,4.5182,4.6704,4.684,4.6246,4.7604,4.7699,4.7295,4.8693,4.9205,4.9238,4.9587,5.0382,5.1069,5.0442,5.0327,0.0,0.0,0.0,0.0,0.0,0.0,0.0,0.0,0.0,0.0,0.0,0.0,0.0,0.0,0.0,0.0,0.0,0.0,0.0,5.8665,6.2485,6.5294,6.5025,6.5906,6.6003,6.4416,6.3753,6.37,6.4356,6.5162,6.549,6.5154,6.5942,6.6057,6.5167,6.5128,6.4537,6.3317,6.3171,6.2457,6.1056,6.1056,6.1137,6.1173,6.1173,0.0,6.1272,6.1281,6.0824,5.9975,6.0049,5.9099,5.7476,5.7553,5.6634,5.5307,5.601,5.5314,5.388,5.356,5.25,5.1203,0.0,0.0,0.0,0.0,0.0,0.0,4.5991,4.6044,4.6382,4.7276,4.7807,4.795,4.7578,4.7497,4.6942,4.5643,4.5046,4.4557,4.4018,4.4784,4.5404,4.5783,4.5653,4.5614,4.5614,4.5555,4.5488,4.5405,4.5405,4.5376,4.5283,4.5283,4.5283,4.5283,4.5283,4.5283,4.5283,4.5283,4.5475,4.5916,4.7169,4.7674,4.7767,4.8839,4.9248,4.9369,5.0196,5.1119,5.1846,5.1504,5.2403,5.343,5.2305,5.2374,5.2357,0.0,0.0,0.0,0.0,0.0,0.0,0.0,0.0,0.0,0.0,0.0,0.0,0.0,0.0,5.4964,5.6643,0.0,5.9993,6.1667,6.4075,6.5868,6.6233,6.7038,6.7087,6.577,6.561,6.576,6.6224,6.6611,6.6807,6.6643,6.6637,6.6461,6.6063,6.5638,6.5105,6.4405,6.3553,6.2662,6.181,6.1384,6.1204,6.1264,6.1264,6.1277,6.1301,6.1283,6.1058,6.0635,6.0712,5.9756,5.81,5.7292,5.6459,5.5684,5.5682,5.464,5.3044,5.2665,5.199,5.13,0.0,0.0,0.0,0.0,0.0,0.0,0.0,4.5896,4.6213,4.717,4.7336,4.7383,4.7469,4.6851,4.6038,4.5072,4.5114,4.4772,4.3755,4.5175,4.5962,4.585,4.5819,4.5801,4.5801,4.5795,4.5725,4.5565,4.5565,4.5513,4.54,4.54,4.54,4.54,4.5572,4.5639,4.5639,4.5816,4.6227,4.6906,4.7787,4.8553,4.9264,5.0023,5.0678,5.1254,5.1256,5.2355,5.3698,5.3183,5.4095,5.5234,5.4034,5.4396,5.458,5.1247,5.1896,0.0,0.0,0.0,0.0,0.0,0.0,0.0,0.0,5.3625,5.4242,5.6792,5.7325,5.8126,6.083,6.1483,6.2474,6.5174,6.5898,6.6597,6.7945,6.8251,6.8103,6.7314,6.7531,6.7725,6.7531,6.7686,6.7667,6.7402,6.6864,6.6495,6.642,6.5722,6.5252,6.5097,6.3585,6.2771,6.2771,6.1801,6.1383,6.1546,6.1391,6.1318,6.1326,6.1313,6.1338,6.1303,6.1046,6.0134,5.8707,5.7005,5.6252,5.6098,5.5356,5.4167,5.2656,5.1833,5.1474,5.1406,0.0,0.0,0.0,0.0,0.0,0.0,0.0,0.0,4.6212,4.7107,4.7281,4.73,4.7322,4.7302,4.6618,4.5039,4.566,4.578,4.4881,4.562,4.6066,4.6082,4.5942,4.5872,4.5872,4.5846,4.5783,4.5764,4.5764,4.5754,4.5735,4.5735,4.5735,4.577,4.6478,4.6793,4.6866,4.7575,4.7932,4.8086,4.896,4.9384,4.9611,5.1168,5.1736,5.1743,5.1847,5.2521,5.3466,5.4159,5.461,5.4962,5.55,5.6408,5.6609,5.3249,5.3007,5.303,4.9596,5.0094,5.2085,5.4156,5.5277,5.7006,0.0,6.1985,6.216,6.4705,6.5234,6.535,6.5693,6.6431,6.7049,6.7429,6.875,6.9782,6.9977,7.0667,7.1071,7.0942,6.9619,6.8456,6.7676,6.8296,6.8146,6.6643,6.7109,6.7147,6.642,6.6303,6.5916,6.5136,6.4166,6.3667,6.3667,6.2077,6.171,6.2444,6.1663,6.1333,6.1409,6.1459,6.1468,6.1396,5.9916,5.9162,5.8851,5.7102,5.5939,5.5244,5.5126,5.4557,5.3631,5.2752,5.202,5.1406,0.0,0.0,0.0,0.0,0.0,0.0,0.0,0.0,0.0,4.62,4.6354,4.6428,4.646,4.6073,4.5289,4.411,4.5307,4.5966,4.562,4.6825,4.7537,4.7538,4.7058,4.6761,4.6761,4.6323,4.6027,4.5918,4.5918,4.6152,4.657,4.657,4.6848,4.7317,4.7676,4.7818,4.7856,4.8178,4.8864,4.9794,5.0177,5.0917,5.1849,5.2613,5.3196,5.3417,5.2421,5.2978,0.0,5.4006,5.44,5.5103,5.5924,5.6476,5.6283,5.3435,5.3881,5.5208,5.4788,5.4833,5.5643,5.8203,5.9435,6.0747,6.3388,6.3706,6.4173,6.6718,6.7247,6.7402,6.7903,6.8296,6.8567,6.8567,6.9146,6.9764,7.0213,7.0598,7.0822,7.0805,7.0611,7.0322,6.9909,6.8819,6.8091,6.7929,6.7269,6.6778,6.6457,6.6457,6.6302,6.5914,6.5056,6.44,6.3934,6.2731,6.2048,6.1948,6.1595,6.1445,6.1476,6.1474,6.1252,6.0744,5.9523,5.8726,5.8196,5.6985,5.6288,5.5936,5.5428,5.4996,5.4522,5.3124,5.2422,5.2099,0.0,0.0,0.0,0.0,0.0,0.0,0.0,0.0,0.0,0.0,4.5607,4.5735,4.5814,4.5267,4.4658,4.4097,4.5201,4.608,4.6302,4.7547,4.835,4.859,4.8053,4.7719,4.7719,4.7226,4.6748,4.6398,4.6633,4.6915,4.7224,4.746,4.8037,4.8878,4.8864,4.9119,4.9565,4.9549,5.0395,5.1713,5.1713,5.246,5.3543,5.365,5.3886,5.4003,5.2683,5.3053,5.4055,5.3174,5.3266,5.3857,5.4677,5.5083,5.4891,5.2836,5.3563,5.5436,5.7376,5.7804,5.835,6.1131,6.2815,6.4046,6.5135,6.5563,6.633,6.8424,6.8843,6.9111,7.0001,6.9962,6.9884,7.0117,6.9962,7.0098,7.0926,7.0614,7.0512,7.1028,7.0989,7.1124,7.1533,6.9618,6.8446,6.8631,6.7509,6.6808,6.6878,6.6648,6.6552,6.6552,6.5696,6.5076,6.4768,6.3639,6.2785,6.2192,6.1961,6.1717,6.1488,6.1265,6.0845,6.0265,5.9133,5.8358,5.7731,5.6872,5.655,5.6522,5.5902,5.5668,5.5435,5.3897,5.319,5.2937,0.0,0.0,0.0,0.0,0.0,0.0,0.0,0.0,0.0,0.0,0.0,0.0,0.0,4.5642,4.5676,4.5637,4.5801,4.6255,4.7118,4.728,4.7705,4.8551,4.8593,4.8556,4.8556,4.8559,4.8146,4.7355,4.8212,4.8223,4.7495,4.8353,4.9218,5.0036,4.9986,5.09,5.2462,5.2467,5.2995,5.3814,5.3814,5.3851,5.3888,5.3885,5.336,5.2638,5.2514,5.2518,5.2448,5.1637,5.0836,5.0297,5.1187,5.2042,5.252,5.1629,5.144,5.2086,5.4633,5.647,5.8488,6.1837,6.4535,6.6819,6.8567,6.9539,7.0354,7.1291,7.1485,7.1753,7.2604,7.2103,7.1792,7.2642,7.2064,7.1855,7.2777,7.1458,7.1066,7.2795,7.0812,6.9952,7.1629,7.0835,6.9574,6.7946,6.779,6.7779,6.7868,6.7055,6.6635,6.6673,6.5856,6.5778,6.6596,6.492,6.4062,6.4022,6.3164,6.2307,6.1489,6.0699,6.0347,6.0319,5.8562,5.7814,5.7724,5.6915,5.656,5.6509,5.6561,5.652,5.6352,5.5457,5.4645,5.3834,0.0,0.0,0.0,0.0,0.0,0.0,0.0,0.0,0.0,0.0,0.0,0.0,0.0,0.0,0.0,0.0,4.597,4.6556,4.692,4.8062,4.8899,4.9191,4.9326,4.9386,4.9386,4.8872,4.8479,4.8218,4.8491,4.9081,4.9951,5.0281,5.1228,5.2564,5.2575,5.289,5.3476,5.3504,5.4354,5.5562,5.5032,5.5516,5.6315,5.4575,5.3678,5.3085,0.0,5.0053,4.9996,4.9713,4.9451,4.9462,5.0854,5.1498,5.1695,5.1447,5.2151,5.3623,5.6161,5.8873,6.1843,6.5238,6.7145,6.868,7.0354,7.051,7.0382,7.0713,6.9879,6.9014,6.8775,6.8945,6.9222,6.9534,7.1289,7.2704,7.3005,7.3557,7.349,7.238,7.1951,7.113,6.9451,6.9451,6.9575,6.9573,6.907,6.8732,6.8757,6.7977,6.7556,6.7577,6.6718,6.5859,6.4961,6.4377,6.3532,6.2457,6.2187,6.1908,6.1631,6.1347,6.0626,5.9506,5.8921,5.802,5.6922,5.6653,5.6536,5.6493,5.6536,5.6535,5.6452,5.6179,5.5871,5.5445,0.0,0.0,0.0,0.0,0.0,0.0,0.0,0.0,0.0,0.0,0.0,0.0,0.0,0.0,0.0,0.0,0.0,4.6183,4.6546,4.7688,4.8447,4.8774,4.8891,4.8999,4.9064,4.8564,4.8222,4.7998,4.8635,4.94,5.0246,5.0904,5.2138,5.3753,5.3462,5.3911,5.4748,5.4175,5.4569,5.5508,5.4684,5.4794,5.5256,5.3272,5.2296,0.0,4.953,4.8554,4.8279,4.7987,4.8102,4.8575,4.9639,5.0399,5.1006,5.1629,5.3036,5.5057,5.8203,6.0878,6.3606,6.701,6.8495,6.9502,7.0901,7.1021,7.085,7.0881,6.9261,6.7764,6.7573,6.7229,6.6998,6.6965,6.911,7.1223,7.2448,7.3076,7.347,7.367,7.3396,7.2302,7.0115,7.0076,7.0148,7.004,6.9805,6.9658,6.9711,6.8891,6.8349,6.8044,6.7497,6.652,6.5075,6.4763,6.3789,6.2101,6.1845,6.1705,6.1651,6.1026,6.0163,5.9059,5.8435,5.7533,5.6512,5.6519,5.6517,5.6512,5.6519,5.6517,5.6512,5.6512,5.6509,5.631,0.0,0.0,0.0,0.0,0.0,0.0,0.0,0.0,0.0,0.0,0.0,0.0,0.0,0.0,0.0,0.0,0.0,0.0,4.6067,4.6162,4.6546,4.739,4.7477,4.7568,4.7701,4.7761,4.7525,4.6937,4.8655,4.9178,4.8576,5.0243,5.1939,5.3536,5.2714,5.3752,5.6011,5.4374,5.3721,5.3734,5.2877,5.2094,5.1347,5.0368,4.9496,4.8815,4.8712,4.8155,4.7362,4.6675,4.7031,4.7812,4.789,4.9021,5.0698,5.2304,5.4061,5.6365,6.0397,6.2283,6.3854,6.7071,6.8544,6.9412,7.0307,7.1128,7.164,7.1564,6.9462,6.7864,6.8528,6.6848,6.5329,6.5302,6.6277,6.8159,7.1518,7.0617,7.143,7.6362,7.4797,7.3274,7.3195,7.2415,7.12,6.9428,7.0045,7.057,7.0664,6.9843,6.9017,6.82,6.8121,6.7653,6.6755,6.5895,6.4601,6.291,6.2089,6.1651,6.1556,5.9916,5.9136,5.9017,5.734,5.6587,5.6572,5.6551,5.6548,5.6572,5.6512,5.6509,5.6492,5.6492,5.6482,5.6394,0.0,0.0,0.0,0.0,0.0,0.0,0.0,0.0,0.0,0.0,0.0,0.0,0.0,0.0,0.0,0.0,0.0,0.0,4.5014,4.5704,4.6221,4.6435,4.712,4.7533,4.7562,4.7652,4.7651,4.7489,4.8097,4.8659,4.9191,4.9734,5.0551,5.1615,5.1435,5.1758,5.2347,5.1903,5.2146,5.2727,5.1905,5.2237,5.2986,5.0818,5.0257,5.0482,4.9171,4.8571,4.8339,4.8168,4.9084,5.0571,5.1895,5.3025,5.4121,5.5183,5.7179,5.9372,6.1091,6.3586,6.6004,6.751,6.8569,6.9436,7.0294,7.0178,6.9483,6.8202,6.5853,6.3495,6.1753,6.3093,6.4633,6.5252,6.9382,7.3028,7.4579,7.4966,7.512,7.5151,7.4055,7.2801,7.1501,7.115,7.0808,7.0278,7.049,7.0923,7.1617,7.0834,6.9966,6.9083,6.8457,6.7358,6.586,6.434,6.305,6.1955,6.1721,6.1632,6.1573,6.0481,5.9654,5.9016,5.8546,5.7998,5.741,5.7375,5.7375,5.7332,5.6714,5.6517,5.6513,5.6513,5.6511,5.6468,0.0,0.0,0.0,0.0,0.0,0.0,0.0,0.0,0.0,0.0,0.0,0.0,0.0,0.0,0.0,0.0,0.0,0.0,0.0,4.5427,4.558,4.5211,4.5683,4.5997,4.61,4.6152,4.6239,4.6355,4.6926,4.7514,4.8094,4.8605,4.9363,5.0237,5.031,5.0564,5.0928,5.0565,5.07,0.0,0.0,5.0592,5.1314,4.9885,4.9645,5.0002,4.9434,4.9977,5.1046,5.1803,5.2233,5.2726,5.4464,5.5322,5.6035,5.7661,5.9419,6.1222,6.2812,6.4921,6.6871,6.7734,6.8593,6.9173,6.8896,6.8739,6.8064,6.5906,6.3378,6.1114,5.9646,6.1011,6.2647,6.3522,6.8154,7.2489,7.4833,7.5612,7.5967,7.614,7.5127,7.3719,7.1952,7.1443,7.1203,7.1152,7.121,7.1457,7.1927,7.1146,7.0244,6.9377,6.8557,6.7067,6.4948,6.3583,6.245,6.1582,6.1582,6.161,6.1589,6.0692,5.9828,5.8999,5.8609,5.8141,5.7674,5.7323,5.7362,5.7635,5.6816,5.6507,5.6507,5.6507,5.6507,5.6507,0.0,0.0,0.0,0.0,0.0,0.0,0.0,0.0,0.0,0.0,0.0,0.0,0.0,0.0,0.0,0.0,0.0,0.0,0.0,0.0,4.4952,4.4209,4.4061,4.4093,4.4244,4.4295,4.4393,4.457,4.5533,4.6089,4.6205,4.711,4.8014,4.8875,4.9037,4.956,5.0298,4.9676,4.9436,4.9449,4.8699,4.8467,4.8558,0.0,4.8735,4.8926,4.9742,5.1608,5.3936,5.5875,5.5747,5.5021,5.6749,5.7323,5.7847,6.0058,6.1398,6.2592,6.488,6.6112,6.7025,6.7937,6.8655,6.8717,6.7041,6.7187,6.686,6.4034,6.1576,5.9873,5.9747,6.0071,6.0759,6.204,6.5767,6.999,7.4294,7.472,7.5437,7.7701,7.6499,7.486,7.3335,7.2396,7.2004,7.2234,7.2039,7.1846,7.1735,7.0996,7.0138,6.9161,6.834,6.6777,6.4394,6.3614,6.2748,6.1753,6.1753,6.1706,6.1568,6.0711,5.9817,5.896,5.8219,5.7791,5.7635,5.6933,5.705,5.7635,5.6816,5.6507,5.6507,5.6507,5.6507,5.6507,0.0,0.0,0.0,0.0,0.0,0.0,0.0,0.0,0.0,0.0,4.6977,4.7813,0.0,0.0,0.0,0.0,0.0,0.0,0.0,0.0,0.0,4.5072,4.4395,4.4039,4.407,4.4222,4.4318,4.4354,4.4812,4.5085,4.5164,4.5507,4.5779,4.6038,4.6774,4.7222,4.7487,4.8024,4.8342,4.8449,4.829,4.8682,4.9405,4.9412,4.9903,0.0,5.0794,5.1664,5.3124,5.6311,5.8192,5.9487,6.1215,6.2231,6.2857,6.3302,6.4035,6.5007,6.6137,6.6592,6.7119,6.8697,6.8649,6.7923,6.6863,6.6187,6.4791,6.1398,5.9766,5.8723,5.7946,5.9595,6.2341,6.6089,6.9209,7.2662,7.7029,7.6446,7.5746,7.6182,7.47,7.3523,7.323,7.2411,7.2479,7.3859,7.2612,7.1539,7.0877,7.0684,6.9857,6.8282,6.7399,6.6374,6.5204,6.5049,6.4189,6.2666,6.2666,6.2313,6.1568,6.0711,5.9817,5.8999,5.8843,5.8375,5.7674,5.7557,5.7557,5.7635,5.6816,5.6507,5.6507,5.6507,5.6507,5.6507,0.0,0.0,0.0,0.0,0.0,0.0,0.0,4.5063,4.5909,4.6731,4.7614,4.8305,4.8713,4.875,0.0,0.0,0.0,0.0,0.0,0.0,0.0,4.5926,4.5509,4.5287,4.5287,4.5411,4.545,4.545,0.0,4.5808,4.5882,4.6063,4.6271,4.6464,4.6908,4.7193,4.7348,4.7783,4.8289,4.8763,4.8795,4.9388,5.0186,5.0211,5.053,0.0,5.099,5.2126,5.397,5.611,5.8629,6.1187,6.2956,6.3789,6.4177,6.4644,6.5385,6.6281,6.7138,6.7725,6.8349,6.9637,6.9325,6.8057,6.5719,6.4565,6.2807,5.8761,5.7942,5.7693,5.679,5.9176,6.2106,6.4644,6.8096,7.195,7.6301,7.6245,7.591,7.6378,7.4896,7.3488,7.2578,7.2072,7.2183,7.2988,7.2284,7.183,7.1894,7.0649,6.9319,6.8057,6.6717,6.5618,6.4722,6.4296,6.3478,6.2231,6.2698,6.2426,6.1607,6.1646,6.0945,5.9661,5.9194,5.8765,5.8297,5.744,5.7323,5.7635,5.6816,5.6507,5.6507,5.6507,5.6507,5.6507,0.0,0.0,0.0,0.0,0.0,0.0,0.0,4.5547,4.6402,4.7213,4.8034,4.855,4.855,4.8587,4.8642,0.0,0.0,0.0,0.0,0.0,0.0,0.0,0.0,0.0,4.6513,0.0,0.0,4.6513,4.6581,0.0,0.0,0.0,0.0,0.0,4.7707,4.7917,4.8078,4.8307,4.8841,0.0,0.0,5.0062,5.073,0.0,0.0,0.0,0.0,5.2724,5.4676,5.5928,5.8217,6.0864,6.286,6.3756,6.42,6.4902,6.5837,6.6969,6.8226,6.905,6.9871,7.1118,7.0339,6.8405,6.4941,6.327,6.12,5.6906,5.6704,5.7168,5.6665,5.8983,6.1444,6.2822,6.6003,6.994,7.464,7.5194,7.5579,7.684,7.5635,7.4155,7.2752,7.2479,7.244,7.2635,7.2284,7.2128,7.2284,7.0222,6.8621,6.7761,6.6398,6.5346,6.4644,6.3828,6.301,6.2153,6.2659,6.2426,6.1607,6.2309,6.1763,6.0246,5.9583,5.9077,5.8609,5.7284,5.7011,5.7362,5.6741,5.6507,5.6507,5.6702,5.6663,5.6507,0.0,0.0,0.0,0.0,0.0,0.0,0.0,4.5387,4.6204,4.704,4.7848,4.8325,4.8325,4.8504,4.8578,0.0,0.0,0.0,0.0,0.0,0.0,0.0,0.0,0.0,0.0,0.0,0.0,4.6513,4.6637,0.0,0.0,0.0,0.0,0.0,0.0,4.8618,4.8701,4.9689,0.0,0.0,0.0,0.0,0.0,0.0,0.0,0.0,0.0,5.3283,5.3915,5.6373,5.7409,5.8135,6.0678,6.2655,6.4022,6.4106,6.5316,6.7157,6.9663,7.0417,7.1079,7.3453,7.1664,6.8561,6.5722,6.3231,6.0459,5.6747,5.6704,5.7516,5.8221,5.9275,6.1082,6.4243,6.5118,6.7484,7.3507,7.3646,7.4109,7.6679,7.6142,7.5519,7.5363,7.4622,7.4505,7.5285,7.3882,7.2014,6.9754,6.8699,6.7722,6.6865,6.667,6.6554,6.6476,6.5618,6.4722,6.3867,6.3205,6.2426,6.1607,6.1685,6.1218,6.0285,6.0207,5.9271,5.7791,5.7635,5.7206,5.6585,5.6546,5.6507,5.6585,5.7323,5.7128,5.6585,0.0,0.0,0.0,0.0,0.0,0.0,4.6021,4.6425,4.6902,4.7709,4.8113,4.8296,4.8296,4.8373,4.8448,0.0,0.0,0.0,0.0,0.0,0.0,0.0,0.0,0.0,0.0,0.0,4.791,4.7924,4.8079,0.0,0.0,0.0,0.0,0.0,0.0,4.9349,4.9498,4.9961,0.0,0.0,0.0,0.0,0.0,0.0,0.0,0.0,0.0,0.0,5.4222,5.518,5.6252,5.7255,5.7709,5.9127,6.1069,6.3333,6.5596,6.7794,7.0011,7.1702,7.3142,7.4155,7.1407,6.79,6.5712,6.238,5.908,5.6502,5.7095,5.8014,5.7789,5.9292,6.0843,6.165,6.2714,6.4845,6.8821,6.9632,7.0997,7.4155,7.4281,7.4155,7.4155,7.3804,7.3336,7.2674,7.1401,6.995,6.8433,6.9131,6.9167,6.8271,6.7257,6.6203,6.5151,6.419,6.3297,6.2399,6.2507,6.2161,6.1427,6.1975,6.1759,6.0973,6.0466,5.9825,5.9087,5.8578,5.815,5.7878,5.7878,5.7878,5.7917,5.8228,5.7842,5.7145,0.0,0.0,0.0,0.0,0.0,4.5837,4.6919,4.7075,4.7378,4.8186,4.8296,4.8296,4.8296,4.8296,4.8325,4.8438,0.0,0.0,0.0,0.0,0.0,0.0,0.0,0.0,0.0,0.0,4.8796,4.8884,4.8979,4.9081,0.0,0.0,4.9406,4.9589,0.0,0.0,0.0,0.0,0.0,0.0,0.0,0.0,0.0,0.0,0.0,0.0,0.0,0.0,0.0,0.0,0.0,5.6445,5.5729,5.6389,5.8076,6.1362,6.4524,6.7426,6.9526,7.2181,7.4497,7.4924,7.1628,6.7765,6.5828,6.1887,5.8135,5.6227,5.726,5.8264,5.7572,5.9297,6.063,6.0024,6.0982,6.2722,6.5301,6.6312,6.7985,7.118,7.1645,7.1923,7.2472,7.2507,7.1888,7.0498,6.9453,6.8601,6.7989,6.9263,6.948,6.8397,6.7146,6.5936,6.4692,6.3724,6.2765,6.1911,6.2118,6.1847,6.1124,6.1748,6.1737,6.1243,6.0618,6.0196,5.9867,5.9242,5.8855,5.8618,5.8618,5.8618,5.8657,5.8894,5.8467,5.773,0.0,0.0,0.0,0.0,0.0,0.0,4.6741,4.7007,4.7301,4.8177,4.8296,4.8296,4.8296,4.8296,4.8296,4.8296,0.0,0.0,0.0,0.0,0.0,0.0,0.0,0.0,0.0,0.0,4.8669,4.8796,4.8884,4.8985,4.9214,4.9249,4.9374,4.949,0.0,0.0,0.0,0.0,0.0,0.0,0.0,0.0,0.0,0.0,0.0,0.0,0.0,0.0,0.0,0.0,0.0,0.0,0.0,5.5281,5.5638,5.7736,6.1514,6.5583,6.8202,7.1601,7.4749,7.6194,7.2815,6.8505,6.6284,6.2045,5.8012,5.5917,5.6927,5.8164,5.8002,5.9358,6.0482,6.0416,6.041,6.1364,6.4046,6.4417,6.5427,6.8138,6.8431,6.9143,7.0954,7.1059,7.0722,6.9969,6.9032,6.8518,6.8605,6.8562,6.7784,6.619,6.6113,6.6113,6.6074,6.5157,6.4237,6.3359,6.2446,6.1532,6.0694,6.0732,6.0738,6.0699,6.0699,6.0231,5.9526,5.9488,5.8976,5.8194,5.8194,5.8194,5.8315,5.9174,5.8937,5.8315,0.0,0.0,0.0,0.0,0.0,0.0,0.0,4.7397,4.7826,4.819,4.8236,4.8265,4.8296,4.8296,4.8296,4.8296,0.0,0.0,0.0,0.0,0.0,0.0,0.0,0.0,0.0,0.0,4.855,4.866,4.8873,4.9002,4.9069,4.9319,4.9467,4.949,4.9521,4.9597,0.0,0.0,0.0,0.0,0.0,0.0,5.227,0.0,0.0,0.0,0.0,0.0,0.0,0.0,0.0,0.0,0.0,0.0,0.0,5.5736,5.9122,6.3014,6.4528,6.7067,6.9396,6.9865,6.6553,6.318,6.303,5.9524,5.6249,5.6212,5.7098,5.8017,5.8529,5.9554,6.0265,6.0225,6.021,6.0499,6.1342,6.2563,6.434,6.7006,6.9437,7.0922,7.0946,6.9886,6.8843,6.8061,6.7036,6.6462,6.6481,6.6319,6.6415,6.6824,6.6212,6.5606,6.5021,6.3445,6.2496,6.2227,6.179,6.1209,6.0511,6.112,6.1098,6.0646,6.0646,6.0479,6.016,6.016,6.0006,5.9769,5.9769,5.9769,5.9808,6.0083,5.9622,5.8918,0.0,0.0,0.0,0.0,0.0,0.0,0.0,4.768,4.8018,4.8177,4.8197,4.8226,4.8287,4.8296,4.8296,4.8296,0.0,0.0,0.0,0.0,0.0,0.0,0.0,0.0,0.0,4.8466,4.8541,4.8615,4.8855,4.9002,4.9077,4.9319,4.9459,4.949,4.949,4.9544,0.0,0.0,0.0,0.0,0.0,0.0,5.2875,0.0,0.0,0.0,0.0,0.0,0.0,0.0,0.0,0.0,0.0,0.0,0.0,0.0,5.6884,5.9736,6.1537,6.3957,6.6071,6.6609,6.379,6.1109,6.1757,5.887,5.62,5.6645,5.7434,5.8165,5.8616,5.9413,5.9975,5.9912,5.9904,6.0034,6.0407,6.1744,6.3542,6.5811,6.8608,7.0043,6.9243,6.8454,6.7686,6.6876,6.5906,6.5329,6.5366,6.522,6.5497,6.6326,6.5544,6.4987,6.4782,6.3229,6.2502,6.2502,6.2314,6.1667,6.0678,6.158,6.1523,6.0779,6.0779,6.0763,0.0,6.0411,6.0258,6.0297,6.0602,6.0526,6.0335,6.0977,6.048,5.9526,0.0,0.0,0.0,0.0,0.0,0.0,0.0,0.0,4.7974,4.8158,4.8187,4.8226,4.8287,4.8296,4.8296,4.8296,0.0,0.0,0.0,0.0,0.0,0.0,0.0,0.0,0.0,4.8447,4.855,4.8624,4.8812,4.8993,4.9214,4.9295,4.9374,4.949,4.949,4.9527,0.0,0.0,0.0,0.0,0.0,0.0,0.0,0.0,0.0,0.0,0.0,0.0,0.0,0.0,0.0,0.0,0.0,0.0,0.0,0.0,0.0,0.0,0.0,6.1844,6.4172,6.5477,6.3528,6.1385,6.1903,5.9652,0.0,5.7226,5.7896,5.8529,5.8484,5.9053,5.9589,5.9589,5.9589,5.9926,6.0853,6.19,6.3154,6.4786,6.6552,6.7335,6.6453,6.7069,6.718,6.6413,6.5517,6.5061,6.5182,6.5069,6.4981,6.4981,6.4266,6.4315,6.5153,6.4263,6.3803,6.3765,6.3672,6.2766,6.122,6.2075,6.197,6.1106,6.1182,6.1144,6.1069,6.0348,6.0083,6.0159,6.0841,6.0652,6.0159,6.1734,6.1288,6.0007,0.0,0.0,0.0,0.0,0.0,0.0,0.0,0.0,0.0,0.0,4.8148,4.8226,4.8287,4.8296,4.8296,0.0,0.0,0.0,0.0,0.0,0.0,0.0,0.0,0.0,0.0,4.8523,4.8624,4.876,4.8899,4.9052,4.9214,4.9358,4.9467,4.949,4.949,4.9828,0.0,0.0,0.0,0.0,0.0,0.0,0.0,0.0,0.0,0.0,5.4713,5.4697,0.0,0.0,0.0,0.0,0.0,0.0,0.0,0.0,5.4538,5.4969,5.6321,0.0,5.8735,5.9089,5.8581,5.8207,0.0,5.8015,5.7204,5.7747,5.8066,5.8384,5.8988,5.9242,5.9364,5.9364,5.9364,5.9692,6.0629,6.3302,6.5293,6.568,6.7864,6.8726,6.7127,6.7267,6.7094,6.624,6.5387,6.4932,6.495,6.4932,6.4915,6.4915,6.4106,6.4077,6.495,6.4098,6.3663,6.3663,6.36,6.306,6.2113,6.2947,6.2501,6.1144,6.1818,6.1705,6.1144,6.1629,6.181,6.1772,6.1296,6.0993,6.0879,6.1258,6.0765,6.0121,0.0,0.0,0.0,0.0,0.0,0.0,0.0,0.0,0.0,0.0,0.0,0.0,0.0,0.0,0.0,0.0,0.0,0.0,0.0,0.0,0.0,0.0,0.0,4.8485,4.8485,4.8642,4.8742,4.8796,4.897,4.9293,4.9729,4.9934,5.0239,5.0616,5.0616,5.0842,0.0,0.0,0.0,0.0,5.304,0.0,0.0,0.0,0.0,0.0,5.4559,5.4559,0.0,5.4464,5.4447,5.4439,0.0,0.0,0.0,0.0,5.4963,5.5114,5.5977,5.624,5.6512,5.7263,5.745,5.7676,5.8464,5.8314,5.8117,5.8512,5.8615,5.8719,5.9093,5.9234,5.9422,5.975,5.9938,6.0453,6.1676,6.3804,6.5539,6.638,6.8063,6.8981,6.848,6.8158,6.7617,6.6746,6.5912,6.5296,6.4926,6.4888,6.4888,6.4888,6.4425,6.4425,6.4888,6.4046,6.3818,6.4197,6.4197,6.3743,6.2985,6.3818,6.3477,6.2273,6.2757,6.2682,6.2273,6.234,6.2416,6.2378,6.2273,6.2008,6.178,6.2576,6.2084,6.1212,0.0,0.0,0.0,0.0,0.0,0.0,0.0,0.0,0.0,0.0,0.0,0.0,0.0,0.0,0.0,0.0,0.0,0.0,0.0,0.0,0.0,0.0,0.0,4.8532,4.8532,4.8724,4.8822,4.884,4.9025,4.9479,5.0214,5.0484,5.1061,5.1931,5.2043,5.2118,0.0,0.0,0.0,0.0,5.3366,0.0,0.0,0.0,0.0,0.0,0.0,0.0,0.0,5.4409,5.4409,5.4409,5.4409,0.0,0.0,0.0,0.0,0.0,5.6849,5.6671,5.652,5.7779,5.8183,5.8437,5.9121,5.9253,5.9225,5.9177,5.9158,5.9186,5.924,5.9271,5.9525,6.0292,6.0783,6.1626,6.321,6.4199,6.5348,6.6937,6.7948,6.8838,6.9598,6.901,6.8337,6.7617,6.667,6.5789,6.5116,6.5069,6.504,6.4888,6.504,6.504,6.4888,6.4159,6.4159,6.4888,6.4888,6.4501,6.3818,6.4538,6.4425,6.3629,6.3743,0.0,6.3553,6.3023,6.2795,6.2833,6.3402,6.3174,6.2757,6.4159,6.3705,6.2492,0.0,0.0,0.0,0.0,0.0,0.0,0.0,0.0,0.0,0.0,0.0,0.0,0.0,0.0,0.0,0.0,0.0,0.0,0.0,0.0,0.0,4.8569,4.8697,4.8751,4.8751,4.8849,4.8945,4.9059,4.9084,4.9189,4.9392,5.0222,5.1061,5.1922,5.269,5.2998,5.3065,0.0,0.0,0.0,5.4221,0.0,0.0,0.0,0.0,0.0,0.0,0.0,0.0,5.4409,5.4409,5.4409,5.4409,0.0,0.0,0.0,0.0,0.0,5.7704,5.8406,5.8752,5.821,5.8587,5.9056,5.9206,5.9139,5.9033,5.9024,5.9024,5.9297,6.0172,5.9626,5.9391,6.0388,6.1272,6.2466,6.4283,6.5907,6.6985,6.7146,6.866,6.9417,6.8782,6.867,6.8565,6.8413,6.6973,6.6054,6.5903,6.5912,6.56,6.4917,6.5562,6.5609,6.4926,6.4766,6.4766,6.4888,6.4888,6.485,6.4699,6.4842,6.4425,6.3629,0.0,6.4273,6.3667,6.4273,6.4501,6.4471,6.3856,6.3515,6.3439,6.3705,6.3212,6.2416,0.0,0.0,0.0,0.0,0.0,0.0,0.0,0.0,0.0,0.0,0.0,0.0,0.0,0.0,0.0,0.0,0.0,0.0,0.0,0.0,0.0,4.8696,4.8813,4.884,4.8796,4.9283,4.9576,4.9657,5.0162,5.0724,5.1232,5.219,5.2865,5.3282,5.3666,5.3854,5.3854,5.4221,0.0,0.0,0.0,0.0,0.0,0.0,0.0,0.0,0.0,0.0,0.0,0.0,5.4409,5.4484,5.4926,0.0,0.0,0.0,0.0,0.0,5.8456,5.8944,5.9253,5.9394,5.9797,5.9993,5.9532,5.9731,5.9844,5.9223,5.9793,6.0401,6.0441,6.047,6.1036,6.2663,6.3908,6.4831,6.5275,6.5955,6.6587,6.7098,6.828,6.9085,6.9256,6.9266,6.9096,6.8641,6.7883,6.7276,6.6821,6.6367,6.5941,6.5562,6.5486,6.5267,6.4888,6.4888,6.4888,6.4888,6.4888,6.4888,6.4888,6.4888,6.469,6.4311,0.0,6.4652,6.4311,6.4728,6.4888,6.485,6.4463,6.4311,6.4311,6.4311,6.4084,6.3743,0.0,0.0,0.0,0.0,0.0,0.0,0.0,0.0,0.0,0.0,0.0,0.0,0.0,0.0,0.0,0.0,0.0,0.0,0.0,0.0,4.9101,4.9082,4.9338,4.9264,4.8831,4.9672,5.0107,5.0107,5.1076,5.1984,5.2887,5.368,5.417,5.4375,5.44,5.4409,5.4409,5.4409,5.4409,0.0,0.0,0.0,0.0,0.0,0.0,0.0,0.0,0.0,0.0,0.0,0.0,0.0,0.0,0.0,0.0,5.7668,5.8081,5.8315,5.8961,5.9222,5.9484,6.0097,6.036,6.0415,6.043,6.0742,6.0905,6.0472,6.1221,6.1716,6.1075,6.1568,6.2607,6.4188,6.5681,6.6595,6.6456,6.6303,6.6603,6.7627,6.8279,6.9018,6.9806,6.9901,6.9626,6.8944,6.8716,6.8262,6.7428,6.6935,6.6518,6.6101,6.5639,6.5309,6.512,6.4848,6.4799,6.4888,6.4888,6.4888,6.4888,6.4888,6.4888,6.4888,6.4888,6.4888,6.4888,6.4888,6.4888,6.4888,6.4888,6.4888,6.4888,6.4888,6.4888,6.4888,0.0,0.0,0.0,0.0,0.0,0.0,0.0,0.0,0.0,0.0,0.0,0.0,0.0,0.0,0.0,0.0,0.0,0.0,0.0,0.0,4.9943,4.9987,5.0776,5.0488,4.8919,4.9699,5.0107,5.0107,5.098,5.1861,5.2733,5.2924,5.3461,5.4317,5.4366,5.4409,5.4409,5.4409,5.4409,5.4409,0.0,0.0,0.0,0.0,0.0,0.0,0.0,0.0,0.0,0.0,0.0,0.0,0.0,0.0,5.7754,5.7866,5.8399,5.8929,5.9004,5.9643,6.0133,5.9458,5.9173,5.9742,6.2363,6.2152,6.1918,6.3598,6.3375,6.2887,6.2802,6.2934,6.3029,6.3123,6.4661,6.6456,6.8149,6.8385,6.8726,6.9579,6.9768,6.9806,6.9901,6.9901,6.9863,6.9825,6.9058,6.8262,6.7428,6.8034,6.7693,6.6139,6.6655,6.6559,6.5757,6.4734,6.4454,6.4888,6.4888,6.4888,6.4888,6.4888,6.4888,6.4888,6.4888,6.4888,6.4888,6.4888,6.4888,6.4888,6.4888,6.4888,6.4888,6.4888,6.4888,6.4888,0.0,0.0,0.0,0.0,0.0,0.0,0.0,0.0,0.0,0.0,0.0,0.0,0.0,0.0,0.0,0.0,0.0,0.0,0.0,4.9108,4.9338,4.9364,5.0276,5.0434,4.967,5.0971,5.163,5.163,5.2622,5.329,5.3716,5.3775,5.4032,5.4357,5.4392,5.4409,5.4409,5.4409,5.4409,5.4409,5.4409,0.0,0.0,0.0,0.0,0.0,0.0,0.0,0.0,0.0,5.5171,5.5611,5.6659,5.7379,5.7949,5.8445,5.8741,5.8922,5.8922,5.9236,5.9586,5.9838,5.9806,6.0043,6.1403,6.2589,6.3283,6.2849,6.4225,6.4979,6.3203,6.4868,6.6116,6.4876,6.672,6.8613,6.9323,6.9399,6.9522,6.9863,6.9748,6.9669,6.9669,6.9549,6.9467,6.9467,6.8713,6.8299,6.8515,6.7367,6.6613,6.648,6.5695,6.5128,6.4827,6.4399,6.4289,6.4445,6.4445,6.4445,6.4445,6.4445,6.4445,6.4445,6.4445,6.4445,6.4445,6.4445,6.4445,6.4445,6.4445,6.4445,6.4445,6.4445,6.4568,6.4708,0.0,0.0,0.0,0.0,0.0,0.0,0.0,0.0,0.0,0.0,0.0,0.0,0.0,0.0,0.0,0.0,0.0,0.0,4.8831,4.9115,4.9436,4.9729,5.0686,5.1246,5.1367,5.2483,5.293,5.2605,5.3525,5.4036,5.4137,5.4262,5.4323,5.4323,5.4383,5.4392,5.4366,5.4366,5.4366,5.4366,5.4366,5.4383,0.0,0.0,0.0,0.0,0.0,0.0,0.0,0.0,5.566,5.6295,5.7443,5.7947,5.8253,5.8823,5.8942,5.895,5.895,5.8972,5.9163,5.982,6.0128,6.0392,6.0999,6.3088,6.4869,6.4774,6.5726,6.5986,6.3917,6.5522,6.6793,6.5717,6.7877,6.9669,6.9669,6.9669,6.9669,6.9669,6.9539,6.9409,6.9409,6.9262,6.9214,6.9214,6.8699,6.8511,6.8753,6.7186,6.652,6.7063,6.5424,6.4633,6.4895,6.4298,6.4004,6.4004,6.4004,6.4077,6.4209,6.4209,6.4209,6.4209,6.4209,6.4209,6.4209,6.4209,6.4209,6.4209,6.4209,6.4209,6.4209,6.4209,6.4309,6.4463,0.0,0.0,0.0,0.0,0.0,0.0,0.0,0.0,0.0,0.0,0.0,0.0,0.0,0.0,0.0,0.0,0.0,0.0,4.889,4.9633,5.0548,5.1568,5.2436,5.3249,5.4072,5.41,5.359,5.2605,5.3423,5.3784,5.3794,5.4009,5.41,5.4109,5.4294,5.4357,5.4308,5.4308,5.4308,5.4308,5.4308,5.4323,5.4392,0.0,0.0,0.0,0.0,0.0,0.0,0.0,5.6435,5.7817,5.7817,5.8308,5.8889,5.8889,5.8933,5.8994,5.8994,5.8994,5.9043,5.9234,5.9814,6.0586,6.1617,6.3751,6.6561,7.0307,6.8115,6.5417,6.5154,6.4524,6.431,6.5084,6.7449,6.9176,6.9214,6.9214,6.9214,6.9214,6.9214,6.9214,6.9214,6.9203,6.9203,6.9166,6.9166,6.8828,6.7953,6.7937,6.7937,6.7878,6.6127,6.5559,6.6381,6.4532,6.359,6.359,6.359,6.3808,6.4209,6.4209,6.4209,6.4209,6.4209,6.4209,6.4209,6.4209,6.4209,6.4199,6.4209,6.4209,6.4199,6.4209,6.4209,6.4209,0.0,0.0,0.0,0.0,0.0,0.0,0.0,0.0,0.0,0.0,0.0,0.0,0.0,0.0,0.0,0.0,0.0,0.0,4.9257,4.9482,4.9993,5.0928,5.1874,5.2709,5.3365,5.3872,5.3888,5.345,5.3795,5.3944,5.3944,5.4137,5.4227,5.4235,5.4288,5.4326,5.4308,5.4308,5.4235,5.4182,5.4244,5.4253,5.4255,0.0,0.0,0.0,0.0,0.0,0.0,0.0,0.0,0.0,5.826,5.8574,5.8777,5.8777,5.8708,5.864,5.864,5.8828,5.9155,5.9539,6.0954,6.2541,6.3882,6.4878,6.6169,6.8464,6.7868,6.6596,6.5273,6.5983,6.6555,6.5978,6.7245,6.849,6.9101,6.9214,6.9214,6.9214,6.9034,6.8934,6.8934,6.88,6.8472,6.7913,6.7875,6.7763,6.7491,6.6943,6.6645,6.6634,6.5523,6.4744,6.4447,6.3884,6.359,6.359,6.359,6.3669,6.3764,6.3764,6.3764,6.3764,6.3764,6.3764,6.3764,6.3764,6.41,6.4584,6.3988,6.41,6.4547,6.3988,6.4209,6.4834,0.0,0.0,0.0,0.0,0.0,0.0,0.0,0.0,0.0,0.0,4.9196,0.0,0.0,0.0,0.0,0.0,0.0,0.0,0.0,4.9715,5.031,5.126,5.219,5.2988,5.3591,5.3856,5.3917,5.3784,5.3888,5.3926,5.3926,5.4083,5.4193,5.4202,5.42,5.4218,5.4218,5.4173,5.4155,5.41,5.4155,5.4333,5.4614,0.0,0.0,0.0,0.0,0.0,0.0,0.0,0.0,0.0,5.8528,5.8656,5.8635,5.8677,5.8646,5.8614,5.8671,5.8855,5.9236,6.0298,6.1498,6.28,6.4321,6.6138,6.7626,6.8205,6.795,6.7344,6.6528,6.6825,6.7053,6.67,6.7471,6.8317,6.8851,6.8926,6.8926,6.8926,6.8789,6.8658,6.8658,6.8553,6.8308,6.7825,6.7788,6.7639,6.7305,6.6525,6.6079,6.6079,6.5262,6.4742,6.4593,6.4259,6.4073,6.4073,6.3739,6.359,6.359,6.359,6.359,6.359,6.359,6.359,6.359,6.359,6.3888,6.4296,6.3776,6.4073,6.4742,6.4259,6.4696,6.5453,0.0,0.0,0.0,0.0,0.0,0.0,0.0,0.0,0.0,0.0,4.9453,4.9514,0.0,0.0,0.0,0.0,0.0,0.0,0.0,0.0,5.12,5.2183,5.3043,5.3779,5.438,5.4009,5.3804,5.3784,5.3784,5.3784,5.3794,5.3935,5.3991,5.3991,5.4046,5.4128,5.4194,5.414,5.4186,5.4288,5.4233,5.4653,5.5389,5.536,0.0,0.0,0.0,0.0,0.0,0.0,0.0,0.0,5.8625,5.8593,5.8529,5.8635,5.8656,5.8745,5.8997,5.8987,5.9397,6.1424,6.1936,6.2299,6.3782,6.7234,6.9833,6.8757,6.8076,6.7858,6.8393,6.7305,6.6562,6.7305,6.8011,6.8493,6.8493,6.8493,6.8493,6.8493,6.8493,6.8493,6.8493,6.8493,6.8456,6.8419,6.8382,6.8048,6.7231,6.6488,6.6042,6.5968,6.5225,6.5151,6.5868,6.5076,6.4705,6.4668,6.3962,6.359,6.359,6.359,6.359,6.359,6.359,6.359,6.359,6.359,6.3628,6.3702,6.3628,6.4073,6.4779,6.4705,6.5225,6.5856,0.0,0.0,0.0,0.0,0.0,0.0,0.0,0.0,0.0,0.0,0.0,0.0,0.0,0.0,0.0,0.0,0.0,0.0,0.0,0.0,5.1533,5.233,5.3618,5.4374,5.4417,5.4154,5.3954,5.3784,5.3784,5.3784,5.3794,5.3935,5.3991,5.3991,5.401,5.4354,5.4951,5.496,5.5285,5.5822,5.5765,5.5827,5.598,5.6498,5.6779,0.0,0.0,0.0,0.0,0.0,0.0,0.0,5.8459,5.8448,5.8437,5.8459,5.8469,5.8628,5.9275,5.9653,6.0331,6.252,6.4082,6.5194,6.554,6.684,6.7719,6.6854,6.7549,6.8343,6.8468,6.8233,6.8048,6.8196,6.8382,6.8493,6.8493,6.8493,6.8493,6.8493,6.8493,6.8493,6.8493,6.8493,6.8233,6.7602,6.7565,6.7193,6.6413,6.6191,6.5782,6.5113,6.4891,6.4593,6.4148,6.3962,6.385,6.385,6.3665,6.359,6.359,6.359,6.359,6.359,6.359,6.359,6.359,6.359,6.3962,6.4482,6.385,6.4073,6.4705,6.4073,6.4371,6.5039,0.0,0.0,0.0,0.0,0.0,0.0,0.0,0.0,0.0,0.0,0.0,0.0,0.0,0.0,0.0,0.0,0.0,0.0,0.0,0.0,5.2802,5.3548,5.419,5.4472,5.4409,5.41,5.3898,5.3784,5.3784,5.3784,5.3784,5.3888,5.3907,5.3916,5.4316,5.4754,5.5202,5.5515,5.5874,5.6226,5.6125,5.6265,5.662,5.6963,5.7316,5.7678,5.8186,0.0,0.0,0.0,0.0,0.0,0.0,0.0,5.8327,5.8382,5.8563,5.8838,5.9017,5.9763,6.0862,6.2509,6.4819,6.6451,6.5671,6.6413,6.7193,6.6748,6.7639,6.8493,6.8493,6.8493,6.8493,6.8493,6.8493,6.8493,6.8493,6.8493,6.8493,6.8493,6.8493,6.8493,6.8493,6.8493,6.8345,6.7899,6.7862,6.7342,6.6153,6.6079,6.5522,6.4259,6.4593,6.4593,6.4185,6.4185,6.4185,6.4185,6.3776,6.359,6.359,6.359,6.359,6.359,6.359,6.359,6.359,6.359,6.385,6.4185,6.3776,6.4073,6.4816,6.4816,6.5299,6.6005,0.0,0.0,0.0,0.0,0.0,0.0,0.0,0.0,0.0,0.0,0.0,0.0,0.0,0.0,0.0,0.0,0.0,0.0,0.0,0.0,0.0,5.4859,5.4608,5.4426,5.4422,5.4009,5.3804,5.3841,5.3804,5.3784,5.3784,5.3784,5.3859,5.4044,5.4694,5.5188,5.5591,5.6061,5.6391,5.6574,5.6367,5.6688,5.7279,5.7257,5.7634,5.8156,5.8179,5.8099,5.802,5.8145,0.0,0.0,0.0,0.0,5.8204,5.8305,5.8646,5.8996,5.8895,6.0245,6.1809,6.2469,6.4965,6.6896,6.5373,6.6191,6.7342,6.7491,6.8048,6.8493,6.8493,6.8493,6.8493,6.8493,6.8493,6.8493,6.8493,6.8493,6.8493,6.8493,6.8493,6.8493,6.8493,6.8493,6.8493,6.8493,6.8233,6.7491,6.6153,6.5819,6.5039,6.3628,6.4259,6.4593,6.4593,6.4593,6.4593,6.4593,6.3925,6.359,6.359,6.359,6.359,6.359,6.359,6.359,6.359,6.359,6.359,6.359,6.3739,6.4222,6.4928,6.5782,6.6525,6.7082,0.0,0.0,0.0,0.0,0.0,0.0,0.0,0.0,0.0,0.0,4.9886,4.9886,0.0,0.0,0.0,0.0,0.0,0.0,5.0156,0.0,0.0,5.4909,5.4603,5.4447,5.4565,5.4082,5.3879,5.4064,5.3879,5.3784,5.3784,5.3784,5.4156,5.4825,5.4875,5.5697,5.7042,5.6979,5.7417,5.8093,5.7962,5.7943,5.8042,5.7904,5.7932,5.8031,5.8145,5.8099,5.802,5.8145,5.8111,0.0,0.0,0.0,5.8031,5.8042,5.8173,5.8609,5.9955,6.2713,6.4924,6.3742,6.5373,6.7045,6.6153,6.6636,6.7491,6.8196,6.8419,6.8493,6.8493,6.8493,6.8493,6.8493,6.8493,6.8493,6.8493,6.8493,6.8493,6.8493,6.8493,6.8493,6.8493,6.8493,6.8493,6.8493,6.7193,6.6339,6.6128,6.4705,6.3813,6.359,6.3702,6.3776,6.3776,6.3776,6.3776,6.3776,6.3665,6.359,6.359,6.359,6.359,6.359,6.359,6.359,6.359,6.359,6.359,6.3665,6.4371,6.4705,6.4928,6.5782,6.6153,6.6265,0.0,0.0,0.0,0.0,0.0,0.0,0.0,0.0,0.0,0.0,0.0,4.9886,0.0,0.0,0.0,4.9933,5.0354,5.103,5.2006,5.2736,5.3602,5.4731,5.4627,5.4434,5.4308,5.41,5.3954,5.3926,5.3832,5.4044,5.4453,5.4432,5.4625,5.4996,5.5872,5.6598,5.7191,5.7563,5.7925,5.8282,5.8122,5.8122,5.8204,5.8042,5.8042,5.8099,5.8088,5.8042,5.8008,5.8065,5.8042,5.7997,5.7997,0.0,0.0,0.0,5.9023,5.9839,6.1563,6.3254,6.4454,6.431,6.5782,6.7193,6.6859,6.7379,6.8085,6.8419,6.8493,6.8493,6.8493,6.8493,6.8493,6.8493,6.8493,6.8493,6.8493,6.8493,6.8493,6.8493,6.8493,6.8493,6.8493,6.8493,6.8493,6.8493,6.7416,6.6562,6.6116,6.4928,6.4073,6.359,6.359,6.359,6.359,6.359,6.359,6.359,6.359,6.359,6.359,6.359,6.359,6.359,6.359,6.359,6.359,6.359,6.359,6.3665,6.4482,6.4519,6.4296,6.5596,6.5782,6.5522,0.0,0.0,0.0,0.0,0.0,0.0,0.0,0.0,0.0,0.0,0.0,0.0,0.0,0.0,0.0,0.0,5.1023,5.2146,5.3586,5.3707,5.3997,5.4639,5.4629,5.4484,5.4213,5.4154,5.4139,5.4167,5.4119,5.4488,5.5268,5.5418,5.5457,5.5474,5.6694,5.728,5.7415,5.7921,5.8133,5.8133,5.8065,5.8099,5.8179,5.8122,5.8145,5.8249,5.8088,5.8042,5.8042,5.8008,5.7997,5.7997,5.7997,5.8143,0.0,0.0,0.0,6.097,6.24,6.3147,6.3685,6.4491,6.5948,6.7233,6.7293,6.7936,6.8493,6.8493,6.8493,6.8493,6.8493,6.8493,6.8493,6.8493,6.8493,6.8493,6.8493,6.8493,6.8493,6.8493,6.8493,6.8493,6.8493,6.8493,6.8419,6.8196,6.7453,6.6636,6.5819,6.4965,6.4222,6.3628,6.359,6.359,6.359,6.359,6.359,6.359,6.359,6.359,6.359,6.359,6.359,6.359,6.359,6.359,6.359,6.359,6.359,6.3665,6.4482,6.4445,6.4073,6.5559,6.5819,6.5596,0.0,0.0,0.0,0.0,0.0,0.0,0.0,0.0,0.0,0.0,0.0,0.0,4.9886,5.0637,5.1158,5.1233,5.1923,5.2715,5.3624,5.3707,5.4041,5.4867,5.4684,0.0,5.4581,5.4248,5.4464,5.524,5.4973,5.5269,5.6047,5.671,5.6973,5.6901,5.6974,5.7453,5.8142,5.8065,5.8008,5.802,5.8122,5.8179,5.819,5.8338,5.8382,5.8371,5.8249,5.8204,5.8156,5.8042,5.7997,5.7997,5.7997,5.8499,5.9159,0.0,0.0,0.0,6.1618,6.2706,6.3892,6.4291,6.5694,6.6988,6.7257,6.7936,6.8493,6.8493,6.8493,6.8493,6.8493,6.8493,6.8493,6.8493,6.8493,6.8493,6.8493,6.8493,6.8493,6.8493,6.8493,6.8493,6.8493,6.8493,6.8196,6.7416,6.6599,6.5782,6.4928,6.411,6.3628,6.359,6.359,6.359,6.359,6.359,6.359,6.359,6.359,6.359,6.359,6.359,6.359,6.359,6.359,6.359,6.359,6.359,6.359,6.3665,6.4482,6.4779,6.4853,6.5745,6.6562,6.7193,0.0,0.0,0.0,0.0,0.0,0.0,0.0,0.0,0.0,0.0,0.0,0.0,0.0,5.1464,5.1971,5.1999,5.2285,5.2831,5.3704,5.3742,5.4078,5.4723,5.4661,5.45,5.4274,5.4586,5.4829,5.503,5.5397,5.5971,5.6737,5.6925,5.7291,5.7773,5.7773,5.7876,5.8065,5.802,5.7997,5.8008,5.8133,5.826,5.8327,5.8294,5.8334,5.8443,5.8246,5.8133,5.8054,5.802,5.8222,5.8531,5.8614,5.9127,5.9822,6.0334,6.1285,6.2164,6.2227,6.2641,6.3216,6.3958,6.5139,6.6297,6.6902,6.779,6.8493,6.8493,6.8493,6.8493,6.8493,6.8493,6.8493,6.8493,6.8493,6.8493,6.8493,6.8493,6.8493,6.8493,6.8493,6.8493,6.8493,6.8493,6.8382,6.8085,6.6859,6.5968,6.5633,6.4333,6.359,6.359,6.359,6.359,6.359,6.359,6.359,6.359,6.359,6.359,6.359,6.359,6.359,6.359,6.359,6.359,6.359,6.359,6.359,6.3665,6.4482,6.4482,6.4185,6.5596,6.5931,6.5856,0.0,0.0,0.0,0.0,0.0,0.0,0.0,0.0,0.0,0.0,0.0,0.0,0.0,0.0,5.2942,5.3207,5.3296,5.3552,5.4128,5.4166,5.4321,5.4646,5.4861,5.4806,5.4428,5.4839,5.5233,5.5642,5.5797,5.6409,5.7478,5.7394,5.7633,5.8122,5.8122,5.8077,5.7997,5.7997,5.7997,5.802,5.8215,5.8305,5.8375,5.8596,5.8589,5.848,5.8633,5.8448,5.8122,5.8122,5.8375,5.8711,5.8992,5.9676,6.056,6.1363,6.2021,6.2462,6.2462,6.2423,6.2618,6.3617,6.4433,6.5346,6.6604,6.7432,6.8062,6.8444,6.8493,6.8493,6.8493,6.8493,6.8493,6.8493,6.8493,6.8493,6.8493,6.8493,6.8493,6.8493,6.8493,6.8493,6.8493,6.8493,6.8382,6.8122,6.7119,6.6376,6.6128,6.5039,6.4445,6.4445,6.4148,6.3999,6.3999,6.3739,6.359,6.359,6.359,6.359,6.359,6.359,6.359,6.359,6.359,6.359,6.359,6.359,6.3776,6.4073,6.4593,6.4668,6.4556,6.5671,6.5893,6.5782,0.0,0.0,0.0,0.0,0.0,0.0,0.0,0.0,0.0,5.1237,0.0,0.0,0.0,0.0,0.0,5.4844,5.4882,5.4882,5.4882,5.4913,5.4807,5.4659,5.5329,5.5512,5.5146,5.5096,5.5744,5.709,5.627,5.6658,5.8179,5.8054,5.7997,5.7997,5.7997,5.7997,5.7997,5.7997,5.7997,5.802,5.8305,5.8327,5.8323,5.9294,5.9131,5.8515,5.9291,5.9058,5.8382,5.8393,5.8419,5.8537,5.9096,6.0176,6.1412,6.2152,6.2278,6.2185,0.0,0.0,0.0,6.3301,6.355,6.4147,6.6306,6.6851,6.7148,6.821,6.8456,6.8456,6.8493,6.8493,6.8493,6.8493,6.8493,6.8493,6.8493,6.8493,6.8493,6.8493,6.8493,6.8493,6.8493,6.8493,6.8196,6.7379,6.7305,6.6971,6.6191,6.6128,6.6079,6.6079,6.5262,6.4816,6.4816,6.3999,6.359,6.359,6.359,6.359,6.359,6.359,6.359,6.359,6.359,6.359,6.359,6.359,6.4073,6.4779,6.4779,6.5299,6.6042,6.6042,6.6562,6.7268,0.0,0.0,0.0,0.0,0.0,0.0,0.0,0.0,5.1426,0.0,0.0,0.0,5.3321,5.4079,5.4655,5.4875,5.4934,5.4963,5.4963,5.4769,5.4964,5.5647,5.5353,5.5464,5.6098,5.6317,5.6619,5.7044,5.7254,5.7602,5.8054,5.802,5.7997,5.7997,5.7997,5.795,5.7869,5.7962,5.7997,5.802,5.8305,5.8371,5.836,5.8724,5.8736,5.863,5.8767,5.8508,5.8122,5.8301,5.8767,5.9488,6.083,6.1623,6.2053,6.2095,6.2154,6.2158,6.2087,0.0,0.0,0.0,0.0,0.0,6.4201,6.5118,6.6111,6.7123,6.7518,6.7825,6.8382,6.8493,6.8493,6.8493,6.8493,6.8493,6.8493,6.8493,6.8493,6.8493,6.8493,6.8493,6.8493,6.8493,6.8419,6.8196,6.7639,6.7193,6.6971,6.6413,6.6079,6.6079,6.5262,6.4816,6.4816,6.3999,6.359,6.359,6.359,6.359,6.359,6.359,6.359,6.359,6.359,6.359,6.359,6.359,6.3739,6.3925,6.3925,6.4445,6.5151,6.5151,6.5708,6.6413,0.0,0.0,0.0,0.0,0.0,0.0,5.1123,5.1805,5.2411,0.0,0.0,0.0,5.4193,5.4617,5.492,5.492,5.489,5.4935,5.4935,5.4629,5.4697,5.5257,5.5343,5.5666,5.6189,5.6678,5.707,5.7438,5.748,5.7666,5.7997,5.7997,5.7997,5.7997,5.7997,5.7927,5.7822,5.7892,5.7892,5.7869,5.8204,5.8294,5.8271,5.8813,5.8836,5.8625,5.89,5.888,5.8736,5.8543,5.9143,6.0083,6.1054,6.1742,6.2195,6.1964,6.1964,6.2005,6.1854,6.1792,6.1736,6.1736,0.0,0.0,6.2983,6.3654,6.4572,6.5792,6.643,6.7045,6.7862,6.8271,6.8493,6.8493,6.8493,6.8493,6.8493,6.8493,6.8493,6.8493,6.8493,6.8493,6.8493,6.8493,6.8493,6.8493,6.8085,6.7788,6.7788,6.7342,6.7082,6.7082,6.5596,6.4816,6.4816,6.3619,6.3003,6.304,6.3317,6.3442,6.3442,6.3442,6.3442,6.3442,6.3442,6.3442,6.3442,6.3442,6.3685,6.411,6.411,6.4593,6.5336,6.5336,6.5671,6.6079,0.0,0.0,0.0,5.0038,5.0599,5.1161,5.1426,5.2639,5.3631,0.0,5.4465,5.492,5.492,5.492,5.4913,5.4905,5.4837,5.4783,5.4752,5.4434,5.4251,5.4203,5.5352,5.5939,5.5943,5.6584,5.7299,5.7997,5.7299,5.7299,5.7997,5.7997,5.7997,5.7973,5.7973,5.7904,5.7775,5.7775,5.7715,5.7655,5.8107,5.8162,5.8127,5.9265,5.9157,5.8522,5.9322,5.9603,5.9556,5.8964,5.9453,6.0309,6.0469,6.1097,6.1815,6.1804,6.1776,6.169,6.1615,6.1559,6.158,6.158,6.1602,0.0,6.2318,6.2634,6.3132,6.4461,6.5455,6.632,6.7135,6.7839,6.8321,6.8321,6.8396,6.842,6.8481,6.8493,6.8493,6.8493,6.8493,6.8493,6.8493,6.8493,6.8493,6.8493,6.8481,6.8469,6.8457,6.8457,6.8457,6.8457,6.6218,6.503,6.503,6.3305,6.2433,6.2433,6.2946,6.3183,6.3183,6.3183,6.3183,6.3183,6.3183,6.3183,6.3183,6.3183,6.3768,6.4645,6.4645,6.525,6.6079,6.6005,6.6079,6.6228,0.0,4.9886,5.0113,5.0827,5.0523,5.0834,5.2911,5.2904,5.3131,5.4503,5.4799,5.492,5.492,5.492,5.489,5.4822,5.4799,5.4705,5.4418,5.4152,5.427,5.4951,5.5443,5.6043,5.682,5.7449,5.785,5.7997,5.785,5.785,5.7997,5.7997,5.795,5.7845,5.7845,5.7691,5.7474,5.7474,5.751,5.768,5.8505,5.8572,5.8278,5.9198,5.9179,5.8662,5.8831,5.8762,5.8652,5.8989,5.9357,5.9836,6.0749,6.0869,6.0857,6.1589,6.1503,6.1199,6.1528,6.1473,6.1372,6.1372,6.175,0.0,6.1638,6.2708,6.3939,6.4312,6.5236,6.6202,6.6971,6.7277,6.7387,6.7387,6.759,6.793,6.8432,6.8493,6.8493,6.8493,6.8493,6.8493,6.8493,6.8493,6.8493,6.8493,6.8396,6.8296,6.8159,6.8196,6.8196,6.8196,6.7086,6.6495,6.6495,6.4794,6.3957,6.3957,6.3453,6.3183,6.3183,6.3183,6.3183,6.3183,6.3183,6.3183,6.3183,6.3183,6.3388,6.3676,6.3676,6.4661,6.6005,6.5299,6.5893,6.6959,4.9886,4.9886,5.0038,5.0486,5.0865,5.1585,5.2866,5.3397,5.3965,5.4806,5.492,5.492,5.492,5.492,5.4883,5.4799,5.4635,0.0,0.0,5.3907,5.3903,5.4321,5.5128,5.5824,5.6348,5.7441,5.7997,5.7997,5.7997,5.7997,5.7997,5.7939,5.7939,5.7997,5.7798,5.7643,5.7619,5.7873,5.8006,5.803,5.836,5.841,5.8316,5.8887,5.8916,5.8687,5.8687,5.8614,5.8608,5.9283,5.9711,5.9975,6.0164,6.0443,6.0767,6.1091,6.1014,6.0883,6.1243,6.127,6.1197,6.1197,6.1438,0.0,0.0,6.1494,6.2227,6.2922,6.3791,6.4824,6.6023,6.6733,6.7087,6.7087,6.7387,6.7667,6.78,6.8095,6.8334,6.8383,6.8346,6.8334,6.8383,6.8346,6.8309,6.8309,6.8246,6.8183,6.8083,6.8083,6.8083,6.8083,6.69,6.626,6.626,6.4968,6.4119,6.3714,6.3653,6.3432,6.299,6.299,6.299,6.299,6.299,6.299,6.299,6.299,6.3075,6.3243,6.3709,6.4212,6.4704,6.5074,6.5481,6.5852,4.9886,4.9886,4.9962,5.0113,5.113,5.207,5.2563,5.3662,5.4541,5.4844,5.4919,5.4941,5.4927,5.4912,5.4867,5.4799,5.4468,5.4239,5.4089,5.3709,5.3501,5.3451,5.4848,5.5596,5.5655,5.7141,5.7962,5.7962,5.7939,5.7927,5.7927,5.7822,5.7942,5.8251,5.7848,5.7825,5.8166,5.8505,5.8623,5.8538,5.8309,5.8371,5.8677,5.8946,5.8953,5.8847,5.8751,5.8687,5.8815,5.9503,5.9939,6.015,5.9834,6.015,6.0708,6.109,6.094,6.0805,6.1384,6.1521,6.1521,6.1521,6.1477,6.1343,0.0,0.0,0.0,6.1933,6.2753,6.3732,6.5103,6.6133,6.6722,6.6634,6.7014,6.7213,6.6777,6.7355,6.7889,6.8044,6.8083,6.8108,6.8183,6.8057,6.8018,6.8044,6.7993,6.798,6.8006,6.8006,6.7969,6.7784,6.6628,6.5927,6.5767,6.5027,6.4302,6.3677,6.4141,6.387,6.305,6.305,6.2976,6.2793,6.2793,6.2793,6.2793,6.2793,6.2977,6.3272,6.4058,6.4082,6.3847,6.53,6.5558,6.5214,4.9886,4.9886,5.0151,5.094,5.0561,5.0947,5.3215,5.3056,5.3207,5.4731,5.5064,5.513,5.5099,5.499,5.4843,5.4723,5.4401,5.4063,5.3709,5.3622,5.3504,5.3339,5.4805,5.5666,5.5753,5.7132,5.7834,5.7834,5.7691,5.7667,5.7667,5.7619,5.796,5.8529,5.7995,5.8373,5.9367,5.8953,5.8908,5.9113,5.9099,5.9358,5.9834,6.0078,5.9872,5.935,5.8874,5.8687,5.8805,5.9346,5.9499,5.9696,6.1264,6.0648,5.9859,6.2544,6.2161,6.1204,6.2716,6.3143,6.3143,6.3143,6.2911,6.2671,6.2616,0.0,6.3204,6.3291,0.0,6.4641,6.5114,0.0,0.0,6.495,6.5756,6.6184,6.5418,6.622,6.6961,6.7221,6.7747,6.7993,6.7707,6.7681,6.772,6.7926,6.7664,6.7569,6.7741,6.7754,6.7423,6.6712,6.719,6.7116,6.6418,6.6282,6.6195,6.6098,6.5448,6.4751,6.3956,6.3956,6.3539,6.2793,6.2793,6.2793,6.2793,6.2793,6.3246,6.3981,6.418,6.4709,6.5521,6.642,6.7159,6.77,4.9886,4.9886,5.0038,5.0372,5.094,5.1698,5.279,5.3473,5.4079,5.4806,5.4971,5.5021,5.4985,5.5201,5.5136,5.4619,5.4636,5.4586,5.4363,5.4223,5.4244,5.4524,5.5606,5.6184,5.6161,5.7166,5.7667,5.7667,5.7619,5.7583,5.7619,5.802,5.8433,5.8811,5.8519,5.875,5.9346,5.9128,5.9262,5.9676,5.9822,6.0237,6.0599,5.9737,5.9257,5.8995,5.8768,5.8646,5.8609,5.8806,5.9251,5.9725,5.9725,5.9855,6.0132,6.0929,6.1204,6.1456,6.2357,6.2474,6.2481,6.3209,6.2541,6.1945,6.2714,0.0,6.2664,6.3136,0.0,0.0,0.0,0.0,0.0,0.0,6.5712,6.6115,6.5576,6.5824,6.6294,6.6895,6.7137,6.73,6.7355,6.7556,6.7494,6.7119,6.738,6.7413,6.7026,6.7444,6.7333,6.6512,6.7297,6.7297,6.6512,6.6966,6.6966,6.6476,6.5692,6.4897,6.4066,6.3576,6.316,6.2793,6.2793,6.2793,6.2793,6.2793,6.3319,6.4139,6.4655,6.5123,6.5615,6.6916,6.7284,6.7247,5.0227,5.0075,4.9962,5.0227,5.1244,5.2222,5.2677,5.3965,5.492,5.492,5.4941,5.4949,5.486,5.54,5.5471,5.4823,5.4904,5.4971,5.4899,5.4648,5.4738,5.5229,5.6088,5.6545,5.6556,5.7194,5.7534,5.7534,5.7498,5.7583,5.7838,5.832,5.8879,5.9492,5.926,5.9347,5.9749,5.9601,5.9663,5.9859,6.0089,6.0309,6.0396,5.9335,5.88,5.8646,5.8646,5.8572,5.8491,5.8596,5.9123,0.0,5.9005,5.9428,6.0092,6.002,6.0508,6.1248,6.1929,6.1912,6.2053,6.3198,6.2371,6.1581,0.0,0.0,0.0,6.2977,6.3168,0.0,0.0,0.0,6.4873,6.4762,0.0,6.5855,6.5406,6.532,6.5639,6.6502,6.6595,6.6699,6.7018,6.728,6.7117,6.6416,6.6906,6.7019,6.6549,6.704,6.7113,6.6512,6.7297,6.7297,6.6512,6.7297,6.7407,6.6806,6.6256,6.5521,6.4763,6.409,6.3673,6.3453,6.3233,6.327,6.3453,6.3233,6.3649,6.4494,6.5301,6.5618,6.5802,6.7187,6.7333,6.6916,5.0971,5.0486,5.0151,5.1009,5.1199,5.1805,5.3404,5.4389,5.492,5.492,5.5085,5.5075,5.4731,5.5434,5.5742,5.5401,5.5128,5.4971,5.4899,5.4638,5.4606,5.4896,5.5874,5.658,5.6882,5.7241,5.74,5.74,5.7264,5.7599,5.836,5.8396,5.9253,6.0715,6.0178,6.0402,6.112,6.0567,6.0037,5.9519,5.953,5.9231,5.8821,5.9298,5.9076,5.8529,5.8529,5.8454,0.0,5.8996,5.9113,0.0,0.0,0.0,5.9246,6.1222,6.0966,6.0402,0.0,0.0,0.0,6.3554,0.0,0.0,0.0,0.0,6.2705,0.0,0.0,6.3712,6.4021,6.4111,6.4008,6.3637,6.4517,0.0,0.0,6.4436,6.4943,6.5728,6.6135,6.6421,6.6684,6.6714,6.6519,6.6052,6.6043,6.6167,6.6463,6.6512,6.6512,6.6512,6.7297,6.7297,6.6512,6.7297,6.77,6.7664,6.7627,6.7187,6.6402,6.6402,6.5962,6.5178,6.4383,6.4494,6.5141,6.4383,6.453,6.5325,6.6145,6.6476,6.6549,6.7407,6.7664,6.7664,5.1843,5.1767,5.1661,5.1957,5.2487,5.3245,5.4352,5.4731,5.4845,5.47,5.4761,5.4912,5.5245,5.5876,5.6182,5.6117,5.6353,5.6523,5.6481,5.6224,5.6396,5.7036,5.7092,5.7158,5.7359,5.7291,5.7517,5.8049,5.8011,5.842,5.9216,5.9747,6.029,6.081,6.0783,6.0746,6.0628,6.0048,5.9683,5.9504,5.9504,5.932,5.9084,5.8902,5.8708,5.8471,5.8443,5.8371,0.0,5.8476,5.8685,5.8896,5.8981,5.915,5.9357,5.9598,6.0056,0.0,0.0,0.0,6.1126,6.2409,0.0,0.0,0.0,0.0,0.0,0.0,0.0,0.0,6.3749,6.3966,6.4077,6.3921,6.4427,6.4856,0.0,6.5151,6.509,6.4305,6.5438,6.633,6.6421,6.583,6.5372,6.5214,6.4942,6.4794,6.4897,6.5925,6.6256,6.5742,6.699,6.7063,6.5742,6.7026,6.7444,6.6916,6.6916,6.6769,6.6476,6.5962,6.5545,6.5288,6.5007,6.5031,6.5288,6.5007,6.5375,6.6109,6.6402,6.6843,6.7333,6.759,6.77,6.77,5.2715,5.2866,5.2866,5.2866,5.3548,5.4314,5.4806,5.492,5.4822,5.4629,5.4869,5.517,5.5441,5.6323,5.674,5.6394,5.6979,5.7216,5.6837,5.691,5.7239,5.7792,5.7674,5.7679,5.7844,5.7802,5.8016,5.8524,5.8712,5.9253,6.0036,6.0543,6.0942,6.1231,6.1405,6.1073,6.0358,5.9998,5.9581,5.9231,5.915,5.9084,5.8954,5.8552,5.8493,5.8637,0.0,5.826,5.8122,5.8122,5.828,5.8469,5.8097,5.8457,5.8953,5.8445,5.8991,5.9737,5.9779,5.949,0.0,6.1096,6.0523,0.0,6.1362,0.0,6.2048,0.0,0.0,0.0,0.0,6.3179,6.3514,6.3514,6.3834,6.4145,0.0,6.509,6.5018,6.3591,6.5007,6.593,6.5499,6.5381,6.4824,6.3596,6.4014,6.4134,6.3649,6.4897,6.5668,6.5742,6.6733,6.6916,6.6145,6.7187,6.7444,6.6916,6.6916,6.6916,6.6916,6.6402,6.6145,6.6145,6.5852,6.5888,6.6145,6.5852,6.6035,6.6512,6.6806,6.7076,6.7297,6.759,6.77,6.77,5.3586,5.3745,5.3745,5.3745,5.4389,5.492,5.492,5.4965,5.492,5.472,5.5444,5.5789,5.5371,5.6798,5.7354,5.6321,5.705,5.712,5.6114,5.672,5.7174,5.7185,5.7729,5.8074,5.8308,5.8638,5.881,5.8847,5.9419,6.0072,6.0869,6.0869,6.1267,6.1992,6.1992,6.1379,6.0383,6.0383,5.9757,5.8677,5.8561,5.8508,5.8502,5.8294,5.8534,5.892,5.8371,5.8099,5.7997,5.7997,5.7997,5.7997,5.7997,5.7997,5.7997,5.7997,5.7997,5.8062,5.8384,5.8093,5.8115,5.9723,0.0,0.0,0.0,0.0,6.1254,0.0,0.0,0.0,0.0,0.0,6.2514,6.2549,6.2837,6.3048,6.2942,6.4256,6.4792,6.3596,6.4785,6.5252,6.4109,6.5262,6.4758,6.154,6.3355,6.4071,6.2817,6.3673,6.4884,6.6402,6.6512,6.6916,6.7627,6.7664,6.7664,6.7627,6.7664,6.77,6.77,6.77,6.77,6.7664,6.688,6.7003,6.7627,6.688,6.6549,6.6623,6.7407,6.7223,6.6659,6.7407,6.77,6.77,5.4427,5.4579,5.4579,5.4579,5.4761,5.492,5.492,5.5575,5.6019,5.5822,5.6374,5.6953,5.7298,5.7471,5.7709,5.7998,5.8269,5.8295,5.8021,5.7999,5.8089,5.8259,5.8113,5.8074,5.8308,5.8638,5.9102,5.9673,6.024,6.0905,6.1702,6.1702,6.1811,6.1992,6.1992,6.1379,6.0383,6.0383,5.9663,5.8561,5.8492,5.8644,5.8804,0.0,5.8475,5.8787,5.8244,5.8031,5.7997,5.7997,5.7997,5.7997,5.7997,5.7997,5.7997,5.7997,5.7997,5.801,5.8089,5.8043,5.8102,5.8774,5.8807,5.8853,0.0,0.0,0.0,0.0,0.0,0.0,0.0,0.0,6.2687,6.322,6.3849,6.4059,6.3437,6.4659,6.5315,6.4396,6.4312,6.4583,6.5252,6.3925,6.2922,6.264,6.2311,6.2062,6.1912,6.4213,6.554,6.5618,6.6769,6.7187,6.6806,6.7407,6.7407,6.6806,6.7407,6.77,6.77,6.77,6.77,6.77,6.748,6.7517,6.7664,6.748,6.7407,6.7407,6.7627,6.759,6.7407,6.7627,6.77,6.77,5.4731,5.492,5.492,5.492,5.5282,5.562,5.562,5.6029,5.6333,5.6206,5.6668,5.7091,5.7348,5.7776,5.8056,5.8167,5.8502,5.8497,5.8032,5.8296,5.8471,5.8503,5.8389,5.8367,5.846,5.8895,5.9444,6.0176,6.07,6.1316,6.1992,6.1992,6.1992,6.1992,6.1992,6.1531,6.0737,6.0235,5.9575,5.8884,5.8569,5.8515,0.0,5.8249,5.8267,5.842,5.8097,5.7997,5.7997,5.7997,5.7997,5.7997,5.7997,5.7997,5.7997,5.7997,5.7997,5.7997,5.7997,5.7797,5.7838,5.87,5.8737,5.8719,5.9281,5.9995,6.0441,0.0,6.0685,6.1275,0.0,0.0,6.2274,6.318,6.4043,6.4374,6.3855,6.4801,6.5306,6.4666,6.4623,6.4992,6.5713,6.3436,6.2095,6.2529,6.2223,6.2106,6.224,6.3965,6.515,6.5603,6.63,6.6769,6.704,6.748,6.748,6.7026,6.748,6.77,6.77,6.77,6.77,6.77,6.77,6.77,6.77,6.77,6.77,6.77,6.77,6.77,6.77,6.77,6.77,6.77,5.4761,5.492,5.492,5.492,5.5853,5.6667,5.67,5.6671,5.6639,5.6614,5.696,5.713,5.694,5.7968,5.8427,5.7732,5.8316,5.8307,5.7365,5.8175,5.8604,5.8363,5.8582,5.8687,5.8687,5.922,5.9785,6.0383,6.0917,6.1461,6.1992,6.1992,6.1992,6.1992,6.1992,6.1646,6.1,5.995,5.9388,5.9198,5.8622,5.8305,5.8145,5.8042,5.7997,5.7997,5.7997,5.7997,5.7997,5.7997,5.7997,5.7997,5.7997,5.7997,5.7997,5.7997,5.7997,5.7997,5.7997,5.7606,5.7554,5.8999,5.9047,5.893,5.9776,6.0438,6.0766,6.0239,6.064,6.0922,0.0,0.0,6.1901,6.291,6.3781,6.428,6.4108,6.4631,6.4973,6.4677,6.5149,0.0,6.5768,6.3587,6.2135,6.2135,6.2799,6.3131,6.3033,6.3544,6.4471,6.5852,6.5597,6.6182,6.77,6.77,6.77,6.77,6.77,6.77,6.77,6.77,6.77,6.77,6.77,6.77,6.77,6.77,6.77,6.77,6.77,6.77,6.77,6.77,6.77,6.77,5.4882,5.492,5.492,5.492,5.6347,5.7554,5.7704,5.844,5.8918,5.8764,5.9121,5.9273,5.9063,5.8828,5.865,5.8502,5.8613,5.864,5.8412,5.8592,5.8677,5.8635,5.8667,5.8687,5.8687,5.922,5.9785,6.0383,6.0917,6.1461,6.1992,6.1992,6.1992,6.1992,6.1992,6.1409,6.0322,5.9682,5.9025,5.8399,5.8275,5.8145,5.8031,5.8008,5.7997,5.7997,5.7997,5.7997,5.7997,5.7997,5.7997,5.7997,5.7997,5.7997,5.7997,5.7997,5.7997,5.7997,5.7997,5.7939,5.7946,5.8388,5.8931,5.9403,5.9679,6.0348,6.0849,6.0781,6.0858,6.1092,6.1625,0.0,0.0,6.3488,6.376,6.3867,6.3851,6.4198,6.4575,6.4956,6.4158,6.4171,6.5673,6.4398,6.3458,6.3458,6.3638,6.3387,6.2569,6.4201,6.5272,0.0,6.6009,6.6733,0.0,0.0,6.77,6.77,6.77,6.77,6.77,6.77,6.77,6.77,6.77,6.77,6.77,6.77,6.77,6.77,6.77,6.77,6.77,6.77,6.77,6.77,5.5489,5.5223,5.5223,5.6197,5.7176,5.8081,5.8735,5.9634,5.994,5.9256,5.9041,5.8895,5.8705,5.8684,5.8687,5.8687,5.8687,5.8687,5.8687,5.8687,5.8687,5.8687,5.8687,5.8687,5.8687,5.8943,5.9516,6.0383,6.0664,6.1191,6.1992,6.1992,6.1992,6.1992,6.1705,6.122,6.056,5.9758,5.9081,5.8584,5.8306,5.8111,5.7997,5.7997,5.7997,5.7997,5.7997,5.7997,5.7997,5.7997,5.7997,5.7997,5.7997,5.7997,5.7997,5.7997,5.7997,5.7997,5.7997,5.7997,5.8122,5.8653,5.9066,5.951,6.0087,6.0751,6.1299,6.1392,6.1443,6.1545,6.203,6.2586,0.0,0.0,0.0,0.0,6.4093,6.4195,6.4404,6.4657,6.4354,6.4474,6.5371,6.5059,6.4726,6.4498,6.4103,6.3718,6.3389,6.4329,6.5123,0.0,0.0,0.0,6.77,0.0,6.77,6.77,6.77,6.77,6.77,6.77,6.77,6.77,6.77,6.77,6.77,6.77,6.77,6.77,6.77,6.77,6.77,6.77,6.77,6.77,5.6095,5.5722,5.5765,5.7489,5.8087,5.8614,5.948,6.0267,6.037,5.9386,5.8784,5.8342,5.808,5.8449,5.8687,5.8687,5.8687,5.8687,5.8687,5.8687,5.8687,5.8687,5.8687,5.8687,5.8687,5.8687,5.9216,6.021,6.0334,0.0,0.0,6.1946,6.1946,6.1797,6.1392,6.0983,6.057,0.0,5.9158,5.8736,5.8323,5.8088,5.7997,5.7997,5.7997,5.7997,5.7997,5.7997,5.7997,5.7997,5.7997,5.7997,5.7997,5.7997,5.7997,5.7997,5.7997,5.7997,5.7997,5.7997,5.8143,5.8792,5.9196,5.9676,6.0443,6.1282,6.191,6.207,6.2086,6.2164,6.2327,6.2611,0.0,0.0,0.0,0.0,0.0,6.4151,6.4232,6.4162,6.4686,6.4944,6.469,6.5146,6.5243,6.4711,6.4291,6.4143,6.4303,6.4317,0.0,0.0,0.0,6.6126,6.7569,0.0,6.77,6.77,6.77,6.77,6.77,6.77,6.77,6.77,6.77,6.77,6.77,6.77,6.77,6.77,6.77,6.77,6.77,6.77,6.77,6.77,5.6241,5.6397,5.67,5.7793,5.8785,5.948,5.9573,6.0113,6.0437,6.0123,5.974,5.9328,5.8931,5.8794,5.8687,5.8687,5.8687,5.8687,5.8687,5.8687,5.8687,5.8687,5.8687,5.8687,5.8687,5.8687,5.9006,5.9581,6.0123,6.0713,0.0,6.1774,6.1728,6.1262,6.1215,0.0,0.0,5.9258,5.8767,5.8095,5.8045,5.8008,5.7997,5.7997,5.7997,5.7997,5.7997,5.7997,5.7997,5.7997,5.7997,5.7997,5.7997,5.7997,5.7997,5.7997,5.7997,5.7997,5.7997,5.7997,5.8033,5.8107,5.9208,6.0322,6.042,6.1581,6.2707,6.2693,6.2717,6.281,6.3126,6.2977,6.2926,0.0,0.0,0.0,0.0,6.361,6.4033,6.3706,6.4357,6.4416,6.3398,6.3992,6.4137,6.3334,6.4352,6.4791,6.4339,0.0,0.0,6.4899,6.5583,6.6363,6.7252,6.7565,6.77,6.77,6.77,6.77,6.77,6.77,6.77,6.77,6.77,6.77,6.77,6.77,6.77,6.77,6.77,6.77,6.77,6.77,6.77,6.77,5.7972,5.7768,5.787,5.94,5.9645,5.9798,6.0398,6.0414,6.0252,6.0065,5.9676,5.9262,5.8845,5.875,5.8687,5.8687,5.8687,5.8687,5.8687,5.8687,5.8687,5.8687,5.8687,5.8687,5.8687,5.8687,5.898,5.9504,6.0098,6.0689,0.0,0.0,0.0,0.0,0.0,5.9807,5.9159,5.8881,5.8428,5.7997,5.7997,5.7997,5.7997,5.7997,5.7997,5.7997,5.7997,5.7997,5.7997,5.7997,5.7997,5.7997,5.7997,5.7997,5.7997,5.7997,5.7997,5.7997,5.7997,5.7997,5.7997,5.7997,5.8841,5.982,6.0309,6.1263,6.2218,6.2683,6.2793,6.2853,6.298,6.3059,6.3069,0.0,0.0,0.0,0.0,6.3086,6.3269,6.3154,6.368,6.3898,6.3448,6.3959,6.4353,6.4512,6.4578,6.4513,6.4317,0.0,0.0,6.5483,0.0,6.6179,6.7488,6.7647,6.77,6.77,6.77,6.77,6.77,6.77,6.77,6.77,6.77,6.77,6.77,6.77,6.77,6.77,6.77,6.77,6.77,6.77,6.77,6.77,5.9214,5.8886,5.8989,6.0613,6.0413,6.0246,6.0925,6.0538,6.0101,5.984,5.9476,5.9072,5.8729,5.8687,5.8687,5.8687,5.8687,5.8687,5.8687,5.8687,5.8687,5.8687,5.8687,5.8687,5.8687,5.8687,5.89,5.9246,5.9847,0.0,0.0,0.0,0.0,0.0,5.9686,5.9281,5.8945,5.8504,5.8227,5.7997,5.7997,5.7997,5.7997,5.7997,5.7997,5.7997,5.7997,5.7997,5.7997,5.7997,5.7997,5.7997,5.7997,5.7997,5.7997,5.7997,5.7997,5.7997,5.7997,5.7997,5.7997,5.7997,5.8609,5.9416,6.0224,6.1006,6.1814,6.2646,6.2793,6.2793,6.2793,6.2991,6.3069,6.2853,0.0,0.0,0.0,6.3013,6.3134,6.3046,6.3583,6.3756,6.3282,6.3748,6.4241,6.4545,6.4143,6.4034,6.4422,0.0,0.0,0.0,0.0,0.0,6.7529,6.766,6.77,6.77,6.77,6.77,6.77,6.77,6.77,6.77,6.77,6.77,6.77,6.77,6.77,6.77,6.77,6.77,6.77,6.77,6.77,6.77,5.9386,5.9573,5.9891,6.0935,6.1075,6.1022,6.0823,6.0444,6.0043,5.9668,5.9243,5.8915,5.8719,5.8687,5.8687,5.8687,5.8687,5.8687,5.8687,5.8687,5.8687,5.8687,5.8687,5.8687,5.8687,5.8687,5.8687,5.8725,5.9257,0.0,5.953,0.0,6.0073,5.9493,5.9428,5.9045,5.8382,5.8271,5.8111,5.7997,5.7997,5.7997,5.7997,5.7997,5.7997,5.7997,5.7997,5.7997,5.7997,5.7997,5.7997,5.7997,5.7997,5.7997,5.7997,5.7997,5.7997,5.7997,5.7997,5.7997,5.7997,5.7997,5.8609,5.9416,6.0224,6.1006,6.1814,6.2646,6.2793,6.2793,6.2793,6.2793,6.278,6.2793,0.0,0.0,0.0,6.3539,6.3951,6.3613,6.4316,6.417,6.2566,6.3136,6.3282,6.2493,6.2665,6.3399,0.0,0.0,0.0,6.479,6.5592,0.0,6.721,6.7515,6.77,6.77,6.77,6.77,6.77,6.77,6.77,6.77,6.77,6.77,6.77,6.77,6.77,6.77,6.77,6.77,6.77,6.77,6.77,6.77,6.0577,6.0621,6.0713,6.1031,6.0987,6.0855,6.0801,6.0238,5.9766,5.9627,5.914,5.877,5.8698,5.8687,5.8687,5.8687,5.8687,5.8687,5.8687,5.8687,5.8687,5.8687,5.8687,5.8687,5.8687,5.8687,5.8687,5.8687,0.0,0.0,0.0,5.972,5.9479,5.8943,5.8824,5.8648,5.8393,5.8271,5.8111,5.7997,5.7997,5.7997,5.7997,5.7997,5.7997,5.7997,5.7997,5.7997,5.7997,5.7997,5.7997,5.7997,5.7997,5.7997,5.7997,5.7997,5.7997,5.7997,5.7997,5.7997,5.7997,5.7997,5.9024,6.0077,6.0346,6.1447,6.2499,6.2756,6.2793,6.2793,6.2793,6.2793,6.2793,6.2793,6.2793,0.0,6.2793,0.0,6.3171,6.307,6.3289,6.3253,6.274,6.291,6.3309,6.4001,6.363,6.366,0.0,0.0,0.0,0.0,6.5563,0.0,6.7515,6.7647,6.77,6.77,6.77,6.77,6.77,6.77,6.77,6.77,6.77,6.77,6.77,6.77,6.77,6.77,6.77,6.77,6.77,6.77,6.77,6.77,6.1118,6.1032,6.0987,6.0987,6.0812,6.0645,6.0482,5.9985,5.9542,5.9406,5.8967,5.8687,5.8687,5.8687,0.0,5.8687,5.8687,5.8687,5.8687,5.8687,5.8687,5.8687,5.8687,5.8687,5.8687,5.8687,0.0,5.8687,5.9059,5.9205,5.9205,5.9205,5.9022,5.8687,5.8529,5.8422,5.8382,5.819,5.8065,5.7997,5.7997,5.7997,5.7997,5.7997,5.7997,5.7997,5.7997,5.7997,5.7997,5.7997,5.7997,5.7997,5.7997,5.7997,5.7997,5.7997,5.7997,5.7997,5.7997,5.7997,5.7997,5.7997,5.8988,6.0114,6.0713,6.1838,6.2793,6.2793,6.2793,6.2793,6.2793,6.2793,6.2793,6.2793,6.2793,6.2793,6.2793,0.0,6.2865,6.3081,6.3105,6.3105,0.0,6.3105,6.3372,6.4001,6.3892,0.0,0.0,0.0,0.0,6.5683,6.5747,0.0,6.77,6.77,6.77,6.77,6.77,6.77,6.77,6.77,6.77,6.77,6.77,6.77,6.77,6.77,6.77,6.77,6.77,6.77,6.77,6.77,6.77,6.77,6.1079,6.0951,6.079,6.079,6.0614,6.0317,5.9954,5.9731,5.9403,5.9053,5.8832,5.8687,5.8687,5.8687,5.8687,5.8687,0.0,0.0,5.8687,5.8687,5.8687,5.8687,5.8687,5.8687,5.8687,5.8687,5.8687,5.8687,5.8687,5.8687,5.8687,5.8687,5.8687,5.8667,5.8491,5.8393,5.8371,5.8099,5.7997,5.7997,5.7997,5.7997,5.7997,5.7997,5.7997,5.7997,5.7997,5.7997,5.7997,5.7997,5.7997,5.7997,5.7997,5.7997,5.7997,5.7997,5.7997,5.7997,5.7997,5.7997,5.7997,5.807,5.8719,5.9783,6.1337,6.2254,6.2793,6.2793,6.2793,6.2793,6.2793,6.2793,6.2829,6.2866,6.2829,6.2829,6.2866,6.2829,6.2985,6.3494,0.0,0.0,6.3564,6.36,6.345,0.0,6.3661,0.0,0.0,0.0,6.5034,6.5362,6.6072,6.6843,6.77,6.7627,6.7627,6.77,6.77,6.77,6.77,6.77,6.77,6.77,6.77,6.77,6.77,6.77,6.77,6.77,6.77,6.77,6.77,6.77,6.77,6.77,0.0,6.0951,6.079,6.079,6.0385,6.0007,5.9907,5.9459,5.9093,5.9014,5.8832,5.8687,5.8687,5.8687,5.8687,5.8687,5.8687,5.8687,5.8687,5.8687,5.8687,5.8687,5.8687,5.8687,5.8687,5.8687,5.8687,5.8687,5.8687,5.8687,5.8687,5.8687,5.8646,5.8551,5.8459,5.8349,5.8249,5.8065,5.7997,5.7997,5.7997,5.7997,5.7997,5.7997,5.7997,5.7997,5.7997,5.7997,5.7997,5.7997,5.7997,5.7997,5.7997,5.7997,5.7997,5.7997,5.7997,5.7997,5.7997,5.7997,5.8143,5.8756,5.9967,6.13,6.2291,6.2646,6.2793,6.2793,6.2793,6.2793,6.2793,6.2793,6.3013,6.3686,6.3246,6.3013,6.3686,6.3196,6.2841,0.0,6.3584,6.3731,6.3059,6.3584,6.4069,0.0,0.0,6.4264,6.5469,6.567,6.5875,6.6206,6.5802,6.6256,6.77,6.71,6.71,6.77,6.77,6.77,6.77,6.77,6.77,6.77,6.77,6.77,6.77,6.77,6.77,6.77,6.77,6.77,6.77,6.77,6.77,6.77,6.0369,6.0558,6.0621,6.0424,6.0038,5.9702,5.9502,5.9206,5.8955,5.8855,5.877,5.8687,5.8687,5.8687,5.8687,5.8687,5.8687,5.8687,5.8687,5.8687,5.8687,5.8687,5.8687,5.8687,5.8687,5.8687,5.8687,5.8687,5.8687,5.8687,5.8687,5.8687,5.8635,5.8519,5.8448,5.8327,5.8179,5.8054,5.7997,5.7997,5.7997,5.7997,5.7997,5.7997,5.7997,5.7997,5.7997,5.7997,5.7997,5.7997,5.7997,5.7997,5.7997,5.7997,5.7997,5.7997,5.7997,5.7997,5.7997,5.7997,5.829,5.9453,6.0419,6.1374,6.2536,6.2793,6.2793,6.2793,6.3123,6.327,6.2866,6.3417,6.3857,6.3539,6.3608,6.3679,6.3527,6.3315,6.324,6.3367,6.3796,6.4053,6.393,6.4383,6.4759,6.5005,6.4955,0.0,6.6198,6.6235,6.6303,6.6476,6.6439,6.6806,6.77,6.726,6.726,6.77,6.77,6.77,6.77,6.77,6.77,6.77,6.77,6.77,6.77,6.77,6.77,6.77,6.77,6.77,6.77,6.77,6.77,6.77,5.9584,6.0008,6.0262,5.9954,5.9677,5.9382,5.9043,5.8965,5.8875,5.8719,5.8687,5.8687,5.8687,5.8687,5.8687,5.8687,5.8687,5.8687,5.8687,5.8687,5.8687,5.8687,5.8687,5.8687,5.8687,5.8687,5.8687,5.8687,5.8687,5.8687,5.8687,5.8687,5.8625,5.8497,5.8437,5.8316,5.8145,5.8042,5.7997,5.7997,5.7997,5.7997,5.7997,5.7997,5.7997,5.7997,5.7997,5.7997,5.7997,5.7997,5.7997,5.7997,5.7997,5.7997,5.7997,5.7997,5.7997,5.7997,5.7997,5.818,5.8694,6.0052,6.0591,6.1104,6.2499,6.2793,6.2829,6.2976,6.3576,6.3906,6.3306,6.4224,6.4725,6.3463,6.3954,6.4158,6.3218,0.0,6.3623,6.4064,6.4213,6.453,6.5215,6.5288,6.5288,6.5288,6.5705,6.6035,6.6292,6.6182,6.6256,6.6476,6.7026,6.7407,6.7517,6.7627,6.77,6.77,6.77,6.7774,6.7884,6.7884,6.7884,6.7884,6.7884,6.7811,6.77,6.77,6.77,6.77,6.77,6.77,6.77,6.77,6.77,6.77,5.9425,5.9696,5.9766,5.9884,5.947,5.9072,5.9004,5.8872,5.8729,5.8698,5.8687,5.8687,5.8687,5.8687,5.8687,5.8687,5.8687,5.8687,5.8687,5.8687,5.8687,5.8687,5.8687,5.8687,5.8687,5.8687,5.8687,5.8687,5.8687,5.8687,5.8687,5.8687,5.8582,5.8426,5.8404,5.8271,5.8031,5.8008,5.7997,5.7997,5.7997,5.7997,5.7997,5.7997,5.7997,5.7997,5.7997,5.7997,5.7997,5.7997,5.7997,5.7997,5.7997,5.7997,5.7997,5.7997,5.7997,5.7997,5.7997,5.8988,6.0089,6.0346,6.1398,6.2499,6.2756,6.2793,6.3013,6.3759,6.4029,6.4286,6.4811,6.4567,6.4563,6.5359,6.4177,6.3436,6.4373,0.0,6.3219,6.4016,6.4714,6.5141,6.5288,6.5288,6.5288,6.5288,6.4114,6.4004,6.5398,6.4824,6.5094,6.6439,6.5962,6.5999,6.6659,6.737,6.77,6.77,6.77,6.8068,6.8715,6.8715,6.8715,6.8715,6.8715,6.8311,6.77,6.77,6.77,6.77,6.77,6.77,6.77,6.77,6.77,6.77,5.821,5.8631,5.903,5.9357,5.884,5.832,5.8202,5.8462,5.8539,5.8093,5.8427,5.8687,5.8687,5.8687,5.8687,5.8687,5.8687,5.8687,5.8687,5.8687,5.8687,5.8687,5.8687,5.8687,5.8687,5.8687,5.8687,5.8687,5.8687,5.8687,5.8687,5.8687,5.8572,5.8393,5.8393,5.826,5.7997,5.7997,5.7997,5.7997,5.7997,5.7997,5.7997,5.7997,5.7997,5.7997,5.7997,5.7997,5.7997,5.7997,5.7997,5.7997,5.7997,5.7997,5.7997,5.7997,5.7997,5.7997,5.7997,5.8877,5.9857,6.0309,6.13,6.2291,6.2683,6.316,6.3613,6.4029,6.48,6.5375,6.5288,6.5705,6.5959,6.5667,6.4992,0.0,0.0,6.409,6.391,6.4077,6.4824,6.5288,6.5288,6.5692,6.5962,6.5962,6.5632,6.5595,6.5925,6.4842,6.4925,6.6463,6.6976,6.721,6.7136,6.8361,6.8802,6.8348,6.8788,6.9192,6.9522,6.9119,6.8885,6.8898,6.8458,6.8031,6.77,6.77,6.77,6.77,6.77,6.77,6.77,6.77,6.7958,6.8348,5.6896,5.7566,5.8309,5.8651,5.8171,5.7747,5.7752,5.8316,5.8465,5.787,5.8316,5.8687,5.8687,5.8687,5.8687,5.8687,5.8687,5.8687,5.8687,5.8687,5.8687,5.8687,5.8687,5.8687,5.8687,5.8687,5.8687,5.8687,5.8687,5.8687,5.8687,5.8667,5.8551,5.8393,5.8371,5.8238,5.7997,5.7997,5.7997,5.7997,5.7997,5.7997,5.7997,5.7997,5.7997,5.7997,5.7997,5.7997,5.7997,5.7997,5.7997,5.7997,5.7997,5.7997,5.7997,5.7997,5.8143,5.829,5.829,5.8866,5.9673,6.0493,6.1447,6.2328,6.2952,6.3759,6.4433,6.4604,6.5632,6.6366,6.5925,6.6696,6.6976,6.5686,0.0,0.0,0.0,6.4626,6.4832,6.4701,6.5044,6.5362,6.5545,6.5962,6.6166,6.5996,6.6703,6.679,6.5996,6.5041,6.5154,6.6463,6.7871,6.8421,6.7994,6.9192,6.9596,6.9192,6.9816,7.0183,7.0367,6.9559,6.9192,6.9119,6.8311,6.7884,6.77,6.77,6.77,6.77,6.77,6.77,6.77,6.77,6.8104,6.8605,5.6106,5.6844,5.764,5.7854,5.767,5.7779,5.8512,5.865,5.8687,5.8613,5.865,5.8687,5.8687,5.8687,5.8687,5.8687,5.8687,5.8687,5.8687,5.8687,5.8687,5.8687,5.8687,5.8687,5.8687,5.8687,5.8687,5.8687,5.8687,5.8687,5.8687,5.8582,5.8465,5.8393,5.8282,5.8122,5.7997,5.7997,5.7997,5.7997,5.7997,5.7997,5.7997,5.7997,5.7997,5.7997,5.7997,5.7997,5.7997,5.7997,5.7997,5.7997,5.7997,5.7997,5.7997,5.7997,5.8547,5.9123,5.9123,5.971,6.0493,6.13,6.2732,6.3919,6.3992,6.464,6.5411,6.6182,6.6402,6.6696,6.7407,6.699,6.6456,6.6026,0.0,0.0,6.4821,6.5045,6.5532,6.6256,6.5742,6.5582,6.6329,6.5778,6.5115,6.4422,6.5071,6.5138,6.4394,6.4898,6.5616,6.6476,6.7333,6.8141,6.8788,6.8921,6.9339,7.0,7.0073,7.0477,7.1197,7.0367,7.0,6.9963,6.9155,6.8385,6.77,6.77,6.77,6.77,6.77,6.77,6.77,6.77,6.7737,6.7811,5.5396,5.5687,5.6303,5.7434,5.7151,5.7026,5.7833,5.839,5.8502,5.8019,5.839,5.8687,5.8687,5.8687,5.8687,5.8687,5.8687,5.8687,5.8687,5.8687,5.8687,5.8687,5.8687,5.8687,5.8687,5.8687,5.8687,5.8687,5.8687,5.8656,5.8582,5.8503,5.8422,5.8282,5.8201,5.8111,5.7997,5.7997,5.7997,5.7997,5.7997,5.7997,5.7997,5.7997,5.7997,5.7997,5.7997,5.7997,5.7997,5.7997,5.7997,5.7997,5.7997,5.8327,5.8829,5.9355,5.971,6.004,6.0566,6.0896,6.1227,6.1533,6.2854,6.4103,6.4103,6.5118,6.6145,6.6439,6.688,6.7333,6.7627,6.7444,6.722,6.7062,0.0,6.5996,6.589,6.5516,6.5228,6.5007,6.4751,6.4677,6.4984,6.5191,6.5404,6.5663,6.6009,6.6038,6.5707,6.5921,6.5368,6.3949,6.6416,6.8142,6.8885,7.0389,7.1027,7.083,7.1358,7.1762,7.2004,7.1211,7.0587,7.0073,6.9265,6.8458,6.77,6.77,6.77,6.77,6.77,6.77,6.77,6.77,6.77,6.7774,5.4705,5.4825,5.5456,5.6867,5.6432,5.6357,5.7685,5.813,5.8205,5.7907,5.8353,5.8687,5.8687,5.8687,5.8687,5.8687,5.8687,5.8687,5.8687,5.8687,5.8687,5.8687,5.8687,5.8687,5.8687,5.8687,5.8687,5.8687,5.8656,5.8604,5.8481,5.8443,5.8334,5.8179,5.8145,5.8077,5.7997,5.7997,5.7997,5.7997,5.7997,5.7997,5.7997,5.7997,5.7997,5.7997,5.7997,5.7997,5.7997,5.7997,5.818,5.84,5.84,5.8939,5.9747,6.0529,6.0786,6.097,6.1777,6.1998,6.1998,6.1998,6.3062,6.4103,6.4103,6.5338,6.6512,6.6512,6.715,6.77,6.77,6.77,6.7627,6.737,6.7076,6.6696,6.6182,6.5888,6.5375,6.4567,6.4249,6.4286,6.48,6.5154,6.57,6.6581,6.6725,6.6509,6.5953,6.567,6.4737,6.3045,6.5468,6.7385,6.8612,7.0504,7.1269,7.1014,7.1771,7.2152,7.213,7.1551,7.0977,7.044,6.9376,6.8605,6.8068,6.7811,6.77,6.77,6.77,6.77,6.7737,6.7994,6.8091,6.8141,5.397,5.4453,5.527,5.6134,5.5567,5.5827,5.8316,5.8019,5.7796,5.8613,5.8687,5.8687,5.8687,5.8687,5.8687,5.8687,5.8687,5.8687,5.8687,5.8687,5.8687,5.8687,5.8687,5.8687,5.8687,5.8687,5.8687,5.8687,5.8572,5.8481,5.8481,5.829,5.8179,5.8179,5.8054,5.7997,5.7997,5.7997,5.7997,5.7997,5.7997,5.7997,5.7997,5.7997,5.7997,5.7997,5.7997,5.7997,5.7997,5.7997,5.8547,5.9196,5.9196,5.9783,6.0566,6.1374,6.1606,6.1777,6.2572,6.2793,6.2793,6.2793,6.3466,6.4103,6.4103,6.5338,6.6512,6.6512,6.715,6.77,6.7664,6.77,6.7444,6.6623,6.7187,6.715,6.5508,6.5999,6.6182,6.5398,6.4604,6.4714,6.6329,6.5854,6.5794,6.6748,6.6806,6.6109,6.4586,6.3796,6.3724,6.4443,6.4546,6.5673,6.7947,6.8732,6.9481,7.0317,7.1035,7.1406,7.1386,7.1348,7.1307,7.1197,6.9619,6.8898,6.8862,6.8017,6.77,6.77,6.77,6.77,6.7811,6.8605,6.8885,6.8788,5.3859,5.397,5.4611,5.606,5.6097,5.6533,5.839,5.8502,5.8427,5.865,5.8687,5.8687,5.8687,5.8687,5.8687,5.8687,5.8687,5.8687,5.8687,5.8687,5.8687,5.8687,5.8687,5.8687,5.8687,5.8687,5.8687,5.8687,5.8572,5.8486,5.8437,5.8257,5.8133,5.8054,5.802,5.7997,5.7997,5.7997,5.7997,5.7997,5.7997,5.7997,5.7997,5.7997,5.7997,5.7997,5.7997,5.7997,5.8107,5.8646,5.9013,5.9416,6.0529,6.1043,6.141,6.2218,6.2426,6.2499,6.2719,6.3246,6.3576,6.2939,6.3894,6.4934,6.4934,6.6182,6.7187,6.6623,6.6696,6.6696,6.6109,6.6476,6.6769,6.6549,6.6696,6.6696,6.6219,6.5375,6.4934,6.5251,6.4604,6.4728,6.6407,6.6359,6.6639,6.757,6.6618,6.5161,6.3188,6.3792,6.3589,6.2281,6.3772,6.4703,6.4897,6.7227,6.9049,7.03,7.052,7.0904,7.1406,7.1391,7.1325,7.1233,7.022,6.9412,6.8862,6.8017,6.77,6.77,6.77,6.77,6.7811,6.8605,6.8201,6.7357,5.3784,5.3784,5.4342,5.6023,5.6023,5.6422,5.839,5.8427,5.8353,5.865,5.8687,5.8687,5.8687,5.8687,5.8687,5.8687,5.8687,5.8687,5.8687,5.8687,5.8687,5.8687,5.8687,5.8687,5.8687,5.8687,5.8667,5.8625,5.8519,5.84,5.8327,5.8167,5.8065,5.7997,5.7997,5.7997,5.7997,5.7997,5.7997,5.7997,5.7997,5.7997,5.7997,5.7997,5.7997,5.7997,5.7997,5.8217,5.8535,5.9049,5.9636,6.037,6.1667,6.2071,6.2181,6.2646,6.305,6.3319,6.3319,6.3686,6.4066,6.382,6.4554,6.5288,6.5288,6.6292,6.71,6.6586,6.6733,6.6843,6.6329,6.6659,6.6953,6.6953,6.6696,6.6512,6.6512,6.5118,6.4383,6.5178,6.4602,6.489,6.688,6.6818,6.6813,6.715,6.5472,6.3726,6.2118,6.2206,6.187,6.091,6.2162,6.2979,6.317,6.5251,6.72,6.8998,6.9301,6.9963,7.095,7.0918,7.1072,7.1233,7.011,6.9339,6.8862,6.8017,6.77,6.77,6.77,6.7517,6.7357,6.8495,6.8091,6.7063,5.3784,5.3859,5.4379,5.5912,5.5642,5.5976,5.8242,5.8019,5.7881,5.8613,5.8687,5.8687,5.8687,5.8687,5.8687,5.8687,5.8687,5.8687,5.8687,5.8687,5.8687,5.8687,5.8687,5.8687,5.8677,5.8677,5.8625,5.8481,5.8437,5.8327,5.8215,5.8054,5.7997,5.7997,5.7997,5.7997,5.7997,5.7997,5.7997,5.7997,5.7997,5.7997,5.7997,5.7997,5.7997,5.7997,5.807,5.8572,5.9221,5.938,6.0444,6.1851,6.2572,6.2793,6.2793,6.2793,6.3429,6.4066,6.3992,6.4103,6.4383,6.5118,6.5362,6.5398,6.5398,6.6035,6.6586,6.6512,6.7076,6.759,6.7517,6.748,6.748,6.748,6.688,6.6402,6.6402,6.5079,6.4416,6.521,6.4657,6.5127,6.7372,6.7137,6.6518,6.5726,6.3756,6.2238,6.1358,5.9909,5.9461,6.0185,6.0185,6.0875,6.2273,6.3082,6.4653,6.6896,6.7636,6.8769,7.0196,7.0141,7.045,7.1001,6.9531,6.8811,6.8641,6.7981,6.7664,6.759,6.759,6.7136,6.6696,6.8164,6.8238,6.748,5.3784,5.4304,5.4862,5.5233,5.6199,5.7127,5.7685,5.813,5.8502,5.8687,5.8687,5.8687,5.8687,5.8687,5.8687,5.8687,5.8687,5.8687,5.8687,5.8687,5.8687,5.8687,5.8687,5.8646,5.8561,5.8524,5.8551,5.8481,5.8323,5.8249,5.8215,5.8054,5.7997,5.7997,5.7997,5.7997,5.7997,5.7997,5.7997,5.7997,5.7997,5.7997,5.7997,5.7997,5.7997,5.807,5.8719,5.9049,5.938,6.0639,6.1741,6.2572,6.2756,6.2793,6.2793,6.2793,6.3429,6.3956,6.3282,6.404,6.5068,6.5251,6.5765,6.6256,6.6256,6.6843,6.726,6.6623,6.6623,6.6549,6.5925,6.5815,6.5815,6.5815,6.5668,6.5545,6.5545,6.4758,6.447,6.5291,6.4762,6.4828,6.6046,6.6626,6.6151,6.4239,6.3634,6.2772,6.1358,6.0427,6.0013,6.0185,6.0185,6.0358,6.0703,6.2066,6.3894,6.6137,6.6896,6.8033,6.9439,6.9379,6.9409,6.9497,6.9079,6.8201,6.7063,6.7517,6.7333,6.6769,6.6769,6.6659,6.6549,6.688,6.6916,6.6733,5.3784,5.4119,5.4564,5.4936,5.605,5.7063,5.7435,5.8167,5.8687,5.8687,5.8687,5.8687,5.8687,5.8687,5.8687,5.8687,5.8687,5.8687,5.8687,5.8687,5.8687,5.8687,5.8635,5.8582,5.8481,5.8422,5.8356,5.8356,5.8246,5.8156,5.8099,5.8031,5.7997,5.7997,5.7997,5.7997,5.7997,5.7997,5.7997,5.7997,5.7997,5.7997,5.7997,5.7997,5.7997,5.8107,5.8902,5.9673,6.0517,6.1777,6.2462,6.2793,6.2793,6.2793,6.2793,6.2793,6.3429,6.4103,6.4004,6.4628,6.5472,6.6256,6.6476,6.6586,6.699,6.7407,6.759,6.715,6.6769,6.6366,6.5962,6.5888,6.5888,6.5888,6.5888,6.576,6.5419,6.4701,6.4376,6.4891,6.4658,6.4787,6.5733,6.6192,6.5826,6.422,6.3462,6.2565,6.1358,6.0254,5.9633,5.9633,6.0358,6.0565,6.0185,6.2082,6.3618,6.4826,6.6309,6.7595,6.8638,6.824,6.8228,6.8452,6.8044,6.7552,6.7076,6.7113,6.688,6.6476,6.6072,6.5705,6.5411,6.5778,6.5668,6.5338,5.3784,5.3896,5.423,5.4862,5.5827,5.6729,5.7387,5.8167,5.8687,5.8687,5.8687,5.8687,5.8687,5.8687,5.8687,5.8687,5.8687,5.8687,5.8687,5.8677,5.8656,5.8656,5.8551,5.8486,5.8465,5.8279,5.8179,5.8179,5.8193,5.8099,5.7997,5.7997,5.7997,5.7997,5.7997,5.7997,5.7997,5.7997,5.7997,5.7997,5.7997,5.7997,5.7997,5.7997,5.7997,5.8107,5.9086,6.0444,6.1924,6.2572,6.2793,6.2793,6.2793,6.2793,6.2793,6.2793,6.3429,6.4249,6.4897,6.5178,6.5618,6.6966,6.6769,6.6476,6.715,6.7407,6.748,6.7333,6.6769,6.6292,6.6292,6.6182,6.6072,6.6072,6.5993,6.5779,6.5343,6.4585,6.4196,6.4476,6.4435,6.4669,6.5434,6.5757,6.5412,6.422,6.3358,6.2289,6.0978,5.9944,5.9357,5.9219,6.0565,6.1013,6.0392,6.253,6.3669,6.3807,6.5842,6.7137,6.7719,6.7022,6.6992,6.7469,6.6923,6.6856,6.7076,6.6806,6.6549,6.6219,6.5545,6.4897,6.4347,6.4897,6.4677,6.4139,5.3784,5.4342,5.4862,5.4973,5.631,5.735,5.7472,5.8167,5.8687,5.8687,5.8687,5.8687,5.8687,5.8687,5.8687,5.8687,5.8687,5.8687,5.8687,5.8604,5.8551,5.8551,5.8443,5.8371,5.8234,5.8201,5.8179,5.8179,5.8077,5.802,5.7997,5.7997,5.7997,5.7997,5.7997,5.7997,5.7997,5.7997,5.7997,5.7997,5.7997,5.7997,5.7997,5.7997,5.7997,5.818,5.9722,6.1251,6.2646,6.2756,6.2793,6.2793,6.2793,6.2793,6.2793,6.2793,6.3429,6.4139,6.4237,6.4787,6.5362,6.5582,6.5545,6.5472,6.5582,6.6145,6.6476,6.5765,6.5545,6.5472,6.5472,6.4897,6.4433,6.4433,6.3932,6.3747,6.4287,6.3912,6.3851,6.4525,6.4059,6.3779,6.3894,6.5136,6.4757,6.1979,6.3393,6.291,5.9478,6.0392,6.0703,6.0047,6.0875,6.1254,6.1151,6.2772,6.391,6.4565,6.5585,6.609,6.6189,6.5965,6.5891,6.5951,6.6476,6.591,6.4727,6.6709,6.6733,6.5435,6.5325,6.5215,6.5081,6.4494,6.4213,6.4286,5.3784,5.4082,5.4453,5.4936,5.6013,5.6989,5.7425,5.8167,5.8687,5.8687,5.8687,5.8687,5.8687,5.8687,5.8687,5.8687,5.8687,5.8667,5.8604,5.8513,5.8497,5.8432,5.8323,5.8271,5.8179,5.8122,5.8077,5.8077,5.8031,5.7997,5.7997,5.7997,5.7997,5.7997,5.7997,5.7997,5.7997,5.7997,5.7997,5.7997,5.7997,5.7997,5.7997,5.7997,5.7997,5.8217,5.9832,6.1435,6.2793,6.2793,6.2793,6.2793,6.2793,6.2793,6.2793,6.2793,6.3429,6.4213,6.464,6.5375,6.5962,6.5962,6.5962,6.5742,6.4824,6.4897,6.5191,6.5288,6.4934,6.4787,6.5215,6.5007,6.4794,6.4826,6.4978,6.483,6.3932,6.3983,6.4112,6.4058,6.3404,6.317,6.3565,6.4584,6.4324,6.2117,6.3289,6.2979,6.0427,6.053,6.0737,6.0806,6.1116,6.153,6.1979,6.2634,6.3565,6.4703,6.4239,6.4688,6.5861,6.5368,6.5321,6.5609,6.594,6.6105,6.6159,6.6783,6.6366,6.5251,6.4824,6.4347,6.3857,6.3503,6.3686,6.4213]}]]